<?xml version="1.0" encoding="UTF-8" standalone="no" ?>
<gpx xmlns="http://www.topografix.com/GPX/1/1" xmlns:xsi="http://www.w3.org/2001/XMLSchema-instance" xsi:schemaLocation="http://www.topografix.com/GPX/1/1 http://www.topografix.com/GPX/1/1/gpx.xsd" version="1.1" creator="VisuGPX - https://www.visugpx.com">
  <metadata>
    <name>rando stéphane</name>
    <desc><![CDATA[itinéraire de l' aprés midi]]></desc>
  </metadata>
  <trk>
    <name><![CDATA[27/08/2016 14:07]]></name>
    <desc><![CDATA[]]></desc>
    <trkseg>
      <trkpt lat="49.52488" lon="3.31807">
        <ele>145.8</ele>
        <time>2016-08-27T12:07:36.426Z</time>
      </trkpt>
      <trkpt lat="49.52488" lon="3.31811">
        <ele>148.3</ele>
        <time>2016-08-27T12:08:02.000Z</time>
      </trkpt>
      <trkpt lat="49.52479" lon="3.31797">
        <ele>123.8</ele>
        <time>2016-08-27T12:08:03.000Z</time>
      </trkpt>
      <trkpt lat="49.52481" lon="3.31796">
        <ele>124.8</ele>
        <time>2016-08-27T12:08:04.000Z</time>
      </trkpt>
      <trkpt lat="49.52482" lon="3.31795">
        <ele>122.9</ele>
        <time>2016-08-27T12:08:05.000Z</time>
      </trkpt>
      <trkpt lat="49.52482" lon="3.31795">
        <ele>122.4</ele>
        <time>2016-08-27T12:08:26.000Z</time>
      </trkpt>
      <trkpt lat="49.52486" lon="3.31794">
        <ele>122.4</ele>
        <time>2016-08-27T12:08:27.000Z</time>
      </trkpt>
      <trkpt lat="49.5249" lon="3.31805">
        <ele>120.7</ele>
        <time>2016-08-27T12:08:36.000Z</time>
      </trkpt>
      <trkpt lat="49.52491" lon="3.31806">
        <ele>120.4</ele>
        <time>2016-08-27T12:08:37.000Z</time>
      </trkpt>
      <trkpt lat="49.52496" lon="3.31815">
        <ele>118.7</ele>
        <time>2016-08-27T12:08:45.000Z</time>
      </trkpt>
      <trkpt lat="49.52497" lon="3.31816">
        <ele>118.7</ele>
        <time>2016-08-27T12:08:46.000Z</time>
      </trkpt>
      <trkpt lat="49.52495" lon="3.31816">
        <ele>116.8</ele>
        <time>2016-08-27T12:08:58.000Z</time>
      </trkpt>
      <trkpt lat="49.52494" lon="3.31816">
        <ele>116.7</ele>
        <time>2016-08-27T12:08:59.000Z</time>
      </trkpt>
      <trkpt lat="49.52493" lon="3.31816">
        <ele>116.6</ele>
        <time>2016-08-27T12:09:00.000Z</time>
      </trkpt>
      <trkpt lat="49.52493" lon="3.31816">
        <ele>116.5</ele>
        <time>2016-08-27T12:09:01.000Z</time>
      </trkpt>
      <trkpt lat="49.52493" lon="3.31817">
        <ele>116.4</ele>
        <time>2016-08-27T12:09:02.000Z</time>
      </trkpt>
      <trkpt lat="49.52493" lon="3.31818">
        <ele>116.5</ele>
        <time>2016-08-27T12:09:03.000Z</time>
      </trkpt>
      <trkpt lat="49.52494" lon="3.31818">
        <ele>116.4</ele>
        <time>2016-08-27T12:09:04.000Z</time>
      </trkpt>
      <trkpt lat="49.52497" lon="3.3182">
        <ele>116.1</ele>
        <time>2016-08-27T12:09:07.000Z</time>
      </trkpt>
      <trkpt lat="49.52497" lon="3.31821">
        <ele>116.1</ele>
        <time>2016-08-27T12:09:08.000Z</time>
      </trkpt>
      <trkpt lat="49.52498" lon="3.31819">
        <ele>116.1</ele>
        <time>2016-08-27T12:09:09.000Z</time>
      </trkpt>
      <trkpt lat="49.52504" lon="3.31814">
        <ele>116</ele>
        <time>2016-08-27T12:09:19.000Z</time>
      </trkpt>
      <trkpt lat="49.52503" lon="3.31814">
        <ele>115.9</ele>
        <time>2016-08-27T12:09:20.000Z</time>
      </trkpt>
      <trkpt lat="49.52503" lon="3.31815">
        <ele>115.9</ele>
        <time>2016-08-27T12:09:21.000Z</time>
      </trkpt>
      <trkpt lat="49.52502" lon="3.31815">
        <ele>115.9</ele>
        <time>2016-08-27T12:09:22.000Z</time>
      </trkpt>
      <trkpt lat="49.52495" lon="3.31817">
        <ele>113.2</ele>
        <time>2016-08-27T12:09:28.000Z</time>
      </trkpt>
      <trkpt lat="49.52494" lon="3.31817">
        <ele>112.5</ele>
        <time>2016-08-27T12:09:29.000Z</time>
      </trkpt>
      <trkpt lat="49.52493" lon="3.31816">
        <ele>112.1</ele>
        <time>2016-08-27T12:09:30.000Z</time>
      </trkpt>
      <trkpt lat="49.52491" lon="3.31811">
        <ele>111.2</ele>
        <time>2016-08-27T12:09:41.000Z</time>
      </trkpt>
      <trkpt lat="49.52491" lon="3.31812">
        <ele>111.2</ele>
        <time>2016-08-27T12:09:42.000Z</time>
      </trkpt>
      <trkpt lat="49.52492" lon="3.31812">
        <ele>111.2</ele>
        <time>2016-08-27T12:09:43.000Z</time>
      </trkpt>
      <trkpt lat="49.52492" lon="3.31812">
        <ele>111.2</ele>
        <time>2016-08-27T12:09:44.000Z</time>
      </trkpt>
      <trkpt lat="49.52498" lon="3.31811">
        <ele>111.3</ele>
        <time>2016-08-27T12:09:50.000Z</time>
      </trkpt>
      <trkpt lat="49.52498" lon="3.31812">
        <ele>111.3</ele>
        <time>2016-08-27T12:09:51.000Z</time>
      </trkpt>
      <trkpt lat="49.52498" lon="3.31813">
        <ele>111.2</ele>
        <time>2016-08-27T12:09:52.000Z</time>
      </trkpt>
      <trkpt lat="49.525" lon="3.31817">
        <ele>110.6</ele>
        <time>2016-08-27T12:09:59.000Z</time>
      </trkpt>
      <trkpt lat="49.525" lon="3.31817">
        <ele>110.5</ele>
        <time>2016-08-27T12:10:00.000Z</time>
      </trkpt>
      <trkpt lat="49.525" lon="3.31816">
        <ele>110.5</ele>
        <time>2016-08-27T12:10:01.000Z</time>
      </trkpt>
      <trkpt lat="49.52501" lon="3.31815">
        <ele>110.4</ele>
        <time>2016-08-27T12:10:02.000Z</time>
      </trkpt>
      <trkpt lat="49.52501" lon="3.31815">
        <ele>110.3</ele>
        <time>2016-08-27T12:10:03.000Z</time>
      </trkpt>
      <trkpt lat="49.52501" lon="3.31815">
        <ele>110.2</ele>
        <time>2016-08-27T12:10:04.000Z</time>
      </trkpt>
      <trkpt lat="49.52502" lon="3.31817">
        <ele>109.8</ele>
        <time>2016-08-27T12:10:08.000Z</time>
      </trkpt>
      <trkpt lat="49.52503" lon="3.31816">
        <ele>109.6</ele>
        <time>2016-08-27T12:10:09.000Z</time>
      </trkpt>
      <trkpt lat="49.52503" lon="3.31816">
        <ele>109.5</ele>
        <time>2016-08-27T12:10:11.000Z</time>
      </trkpt>
      <trkpt lat="49.52502" lon="3.31816">
        <ele>109.4</ele>
        <time>2016-08-27T12:10:12.000Z</time>
      </trkpt>
      <trkpt lat="49.52502" lon="3.31817">
        <ele>109.3</ele>
        <time>2016-08-27T12:10:13.000Z</time>
      </trkpt>
      <trkpt lat="49.52504" lon="3.3182">
        <ele>109</ele>
        <time>2016-08-27T12:10:17.000Z</time>
      </trkpt>
      <trkpt lat="49.52504" lon="3.31821">
        <ele>108.9</ele>
        <time>2016-08-27T12:10:18.000Z</time>
      </trkpt>
      <trkpt lat="49.52504" lon="3.31821">
        <ele>108.9</ele>
        <time>2016-08-27T12:10:21.000Z</time>
      </trkpt>
      <trkpt lat="49.52504" lon="3.31822">
        <ele>108.8</ele>
        <time>2016-08-27T12:10:22.000Z</time>
      </trkpt>
      <trkpt lat="49.52507" lon="3.31818">
        <ele>109.2</ele>
        <time>2016-08-27T12:10:38.000Z</time>
      </trkpt>
      <trkpt lat="49.52507" lon="3.31818">
        <ele>109.3</ele>
        <time>2016-08-27T12:10:39.000Z</time>
      </trkpt>
      <trkpt lat="49.52507" lon="3.31817">
        <ele>109.2</ele>
        <time>2016-08-27T12:10:40.000Z</time>
      </trkpt>
      <trkpt lat="49.52507" lon="3.31819">
        <ele>109.2</ele>
        <time>2016-08-27T12:10:43.000Z</time>
      </trkpt>
      <trkpt lat="49.52503" lon="3.31832">
        <ele>109.3</ele>
        <time>2016-08-27T12:11:07.000Z</time>
      </trkpt>
      <trkpt lat="49.52507" lon="3.3182">
        <ele>109.2</ele>
        <time>2016-08-27T12:11:15.000Z</time>
      </trkpt>
      <trkpt lat="49.52507" lon="3.31818">
        <ele>109.2</ele>
        <time>2016-08-27T12:11:16.000Z</time>
      </trkpt>
      <trkpt lat="49.52509" lon="3.31815">
        <ele>109.1</ele>
        <time>2016-08-27T12:11:20.000Z</time>
      </trkpt>
      <trkpt lat="49.52509" lon="3.31814">
        <ele>109</ele>
        <time>2016-08-27T12:11:21.000Z</time>
      </trkpt>
      <trkpt lat="49.52506" lon="3.3181">
        <ele>109.3</ele>
        <time>2016-08-27T12:11:34.000Z</time>
      </trkpt>
      <trkpt lat="49.52507" lon="3.31811">
        <ele>109.6</ele>
        <time>2016-08-27T12:11:35.000Z</time>
      </trkpt>
      <trkpt lat="49.52507" lon="3.31813">
        <ele>109.9</ele>
        <time>2016-08-27T12:11:36.000Z</time>
      </trkpt>
      <trkpt lat="49.52506" lon="3.31815">
        <ele>110.4</ele>
        <time>2016-08-27T12:11:38.000Z</time>
      </trkpt>
      <trkpt lat="49.52505" lon="3.31813">
        <ele>111.1</ele>
        <time>2016-08-27T12:11:40.000Z</time>
      </trkpt>
      <trkpt lat="49.525" lon="3.31824">
        <ele>110.8</ele>
        <time>2016-08-27T12:11:44.000Z</time>
      </trkpt>
      <trkpt lat="49.52499" lon="3.31828">
        <ele>111</ele>
        <time>2016-08-27T12:11:45.000Z</time>
      </trkpt>
      <trkpt lat="49.52497" lon="3.31839">
        <ele>110.6</ele>
        <time>2016-08-27T12:11:48.000Z</time>
      </trkpt>
      <trkpt lat="49.52497" lon="3.31841">
        <ele>110.6</ele>
        <time>2016-08-27T12:11:49.000Z</time>
      </trkpt>
      <trkpt lat="49.52493" lon="3.31851">
        <ele>111.3</ele>
        <time>2016-08-27T12:11:52.000Z</time>
      </trkpt>
      <trkpt lat="49.52493" lon="3.31855">
        <ele>112</ele>
        <time>2016-08-27T12:11:54.000Z</time>
      </trkpt>
      <trkpt lat="49.52494" lon="3.31854">
        <ele>111.8</ele>
        <time>2016-08-27T12:11:55.000Z</time>
      </trkpt>
      <trkpt lat="49.52495" lon="3.31851">
        <ele>112.2</ele>
        <time>2016-08-27T12:11:56.000Z</time>
      </trkpt>
      <trkpt lat="49.52496" lon="3.31849">
        <ele>112.1</ele>
        <time>2016-08-27T12:11:59.000Z</time>
      </trkpt>
      <trkpt lat="49.52497" lon="3.31845">
        <ele>111.6</ele>
        <time>2016-08-27T12:12:00.000Z</time>
      </trkpt>
      <trkpt lat="49.52498" lon="3.3184">
        <ele>108.2</ele>
        <time>2016-08-27T12:12:10.000Z</time>
      </trkpt>
      <trkpt lat="49.52498" lon="3.31841">
        <ele>108.5</ele>
        <time>2016-08-27T12:12:11.000Z</time>
      </trkpt>
      <trkpt lat="49.52498" lon="3.31842">
        <ele>108.6</ele>
        <time>2016-08-27T12:12:15.000Z</time>
      </trkpt>
      <trkpt lat="49.52498" lon="3.31843">
        <ele>108.1</ele>
        <time>2016-08-27T12:12:16.000Z</time>
      </trkpt>
      <trkpt lat="49.52502" lon="3.31841">
        <ele>108</ele>
        <time>2016-08-27T12:12:22.000Z</time>
      </trkpt>
      <trkpt lat="49.52502" lon="3.31841">
        <ele>108</ele>
        <time>2016-08-27T12:12:23.000Z</time>
      </trkpt>
      <trkpt lat="49.52501" lon="3.31841">
        <ele>108.2</ele>
        <time>2016-08-27T12:12:27.000Z</time>
      </trkpt>
      <trkpt lat="49.52502" lon="3.3184">
        <ele>108.1</ele>
        <time>2016-08-27T12:12:28.000Z</time>
      </trkpt>
      <trkpt lat="49.52502" lon="3.31831">
        <ele>105.9</ele>
        <time>2016-08-27T12:12:41.000Z</time>
      </trkpt>
      <trkpt lat="49.52502" lon="3.31832">
        <ele>105.8</ele>
        <time>2016-08-27T12:12:42.000Z</time>
      </trkpt>
      <trkpt lat="49.52502" lon="3.31834">
        <ele>105.8</ele>
        <time>2016-08-27T12:12:43.000Z</time>
      </trkpt>
      <trkpt lat="49.52498" lon="3.31833">
        <ele>104</ele>
        <time>2016-08-27T12:12:54.000Z</time>
      </trkpt>
      <trkpt lat="49.52498" lon="3.31832">
        <ele>103.4</ele>
        <time>2016-08-27T12:12:55.000Z</time>
      </trkpt>
      <trkpt lat="49.52498" lon="3.31832">
        <ele>103.1</ele>
        <time>2016-08-27T12:12:56.000Z</time>
      </trkpt>
      <trkpt lat="49.52499" lon="3.31832">
        <ele>102.8</ele>
        <time>2016-08-27T12:12:57.000Z</time>
      </trkpt>
      <trkpt lat="49.525" lon="3.31833">
        <ele>102.5</ele>
        <time>2016-08-27T12:12:58.000Z</time>
      </trkpt>
      <trkpt lat="49.525" lon="3.31833">
        <ele>102.4</ele>
        <time>2016-08-27T12:12:59.000Z</time>
      </trkpt>
      <trkpt lat="49.525" lon="3.31834">
        <ele>102.3</ele>
        <time>2016-08-27T12:13:00.000Z</time>
      </trkpt>
      <trkpt lat="49.52501" lon="3.31832">
        <ele>103.4</ele>
        <time>2016-08-27T12:13:11.000Z</time>
      </trkpt>
      <trkpt lat="49.525" lon="3.31832">
        <ele>103.6</ele>
        <time>2016-08-27T12:13:12.000Z</time>
      </trkpt>
      <trkpt lat="49.52501" lon="3.31832">
        <ele>103.5</ele>
        <time>2016-08-27T12:13:14.000Z</time>
      </trkpt>
      <trkpt lat="49.525" lon="3.31833">
        <ele>103.5</ele>
        <time>2016-08-27T12:13:15.000Z</time>
      </trkpt>
      <trkpt lat="49.52501" lon="3.31834">
        <ele>103.9</ele>
        <time>2016-08-27T12:13:22.000Z</time>
      </trkpt>
      <trkpt lat="49.52501" lon="3.31835">
        <ele>103.9</ele>
        <time>2016-08-27T12:13:23.000Z</time>
      </trkpt>
      <trkpt lat="49.52501" lon="3.31834">
        <ele>103.8</ele>
        <time>2016-08-27T12:13:27.000Z</time>
      </trkpt>
      <trkpt lat="49.52502" lon="3.31832">
        <ele>102.4</ele>
        <time>2016-08-27T12:13:28.000Z</time>
      </trkpt>
      <trkpt lat="49.525" lon="3.31829">
        <ele>101.9</ele>
        <time>2016-08-27T12:13:33.000Z</time>
      </trkpt>
      <trkpt lat="49.525" lon="3.31829">
        <ele>102.2</ele>
        <time>2016-08-27T12:13:34.000Z</time>
      </trkpt>
      <trkpt lat="49.52499" lon="3.3183">
        <ele>102.3</ele>
        <time>2016-08-27T12:13:35.000Z</time>
      </trkpt>
      <trkpt lat="49.52503" lon="3.31837">
        <ele>102.9</ele>
        <time>2016-08-27T12:13:44.000Z</time>
      </trkpt>
      <trkpt lat="49.52503" lon="3.31836">
        <ele>102.9</ele>
        <time>2016-08-27T12:13:45.000Z</time>
      </trkpt>
      <trkpt lat="49.52504" lon="3.31836">
        <ele>102.9</ele>
        <time>2016-08-27T12:13:48.000Z</time>
      </trkpt>
      <trkpt lat="49.52504" lon="3.31835">
        <ele>103.1</ele>
        <time>2016-08-27T12:13:49.000Z</time>
      </trkpt>
      <trkpt lat="49.52504" lon="3.31835">
        <ele>103.5</ele>
        <time>2016-08-27T12:13:51.000Z</time>
      </trkpt>
      <trkpt lat="49.52504" lon="3.31835">
        <ele>103.6</ele>
        <time>2016-08-27T12:13:52.000Z</time>
      </trkpt>
      <trkpt lat="49.52505" lon="3.31834">
        <ele>103.6</ele>
        <time>2016-08-27T12:13:53.000Z</time>
      </trkpt>
      <trkpt lat="49.52505" lon="3.31834">
        <ele>103.9</ele>
        <time>2016-08-27T12:13:55.000Z</time>
      </trkpt>
      <trkpt lat="49.52505" lon="3.31833">
        <ele>104</ele>
        <time>2016-08-27T12:13:56.000Z</time>
      </trkpt>
      <trkpt lat="49.52505" lon="3.31833">
        <ele>104.1</ele>
        <time>2016-08-27T12:13:57.000Z</time>
      </trkpt>
      <trkpt lat="49.52504" lon="3.31826">
        <ele>106</ele>
        <time>2016-08-27T12:14:06.000Z</time>
      </trkpt>
      <trkpt lat="49.52504" lon="3.31825">
        <ele>106</ele>
        <time>2016-08-27T12:14:07.000Z</time>
      </trkpt>
      <trkpt lat="49.52504" lon="3.31826">
        <ele>105.9</ele>
        <time>2016-08-27T12:14:08.000Z</time>
      </trkpt>
      <trkpt lat="49.52504" lon="3.31826">
        <ele>105.6</ele>
        <time>2016-08-27T12:14:13.000Z</time>
      </trkpt>
      <trkpt lat="49.52505" lon="3.31824">
        <ele>106</ele>
        <time>2016-08-27T12:14:14.000Z</time>
      </trkpt>
      <trkpt lat="49.52505" lon="3.31824">
        <ele>106.5</ele>
        <time>2016-08-27T12:14:17.000Z</time>
      </trkpt>
      <trkpt lat="49.52505" lon="3.31823">
        <ele>106.9</ele>
        <time>2016-08-27T12:14:18.000Z</time>
      </trkpt>
      <trkpt lat="49.52504" lon="3.3183">
        <ele>108.2</ele>
        <time>2016-08-27T12:14:36.000Z</time>
      </trkpt>
      <trkpt lat="49.52504" lon="3.3183">
        <ele>108.1</ele>
        <time>2016-08-27T12:14:37.000Z</time>
      </trkpt>
      <trkpt lat="49.52504" lon="3.3183">
        <ele>108</ele>
        <time>2016-08-27T12:14:38.000Z</time>
      </trkpt>
      <trkpt lat="49.52499" lon="3.31838">
        <ele>108.1</ele>
        <time>2016-08-27T12:14:47.000Z</time>
      </trkpt>
      <trkpt lat="49.52498" lon="3.31844">
        <ele>108.1</ele>
        <time>2016-08-27T12:14:48.000Z</time>
      </trkpt>
      <trkpt lat="49.52497" lon="3.31851">
        <ele>108.2</ele>
        <time>2016-08-27T12:14:49.000Z</time>
      </trkpt>
      <trkpt lat="49.52496" lon="3.31858">
        <ele>108.3</ele>
        <time>2016-08-27T12:14:50.000Z</time>
      </trkpt>
      <trkpt lat="49.52496" lon="3.31865">
        <ele>108.4</ele>
        <time>2016-08-27T12:14:51.000Z</time>
      </trkpt>
      <trkpt lat="49.52495" lon="3.31872">
        <ele>108.4</ele>
        <time>2016-08-27T12:14:52.000Z</time>
      </trkpt>
      <trkpt lat="49.5249" lon="3.31862">
        <ele>108</ele>
        <time>2016-08-27T12:15:01.000Z</time>
      </trkpt>
      <trkpt lat="49.5249" lon="3.31861">
        <ele>107.9</ele>
        <time>2016-08-27T12:15:02.000Z</time>
      </trkpt>
      <trkpt lat="49.52488" lon="3.31847">
        <ele>107.6</ele>
        <time>2016-08-27T12:15:09.000Z</time>
      </trkpt>
      <trkpt lat="49.52488" lon="3.31846">
        <ele>107.5</ele>
        <time>2016-08-27T12:15:10.000Z</time>
      </trkpt>
      <trkpt lat="49.52487" lon="3.31842">
        <ele>107.2</ele>
        <time>2016-08-27T12:15:18.000Z</time>
      </trkpt>
      <trkpt lat="49.52488" lon="3.31841">
        <ele>106.9</ele>
        <time>2016-08-27T12:15:19.000Z</time>
      </trkpt>
      <trkpt lat="49.52488" lon="3.3184">
        <ele>106.7</ele>
        <time>2016-08-27T12:15:20.000Z</time>
      </trkpt>
      <trkpt lat="49.52494" lon="3.31845">
        <ele>106.6</ele>
        <time>2016-08-27T12:15:31.000Z</time>
      </trkpt>
      <trkpt lat="49.52495" lon="3.31841">
        <ele>106.5</ele>
        <time>2016-08-27T12:15:32.000Z</time>
      </trkpt>
      <trkpt lat="49.52496" lon="3.3184">
        <ele>106.4</ele>
        <time>2016-08-27T12:15:34.000Z</time>
      </trkpt>
      <trkpt lat="49.52496" lon="3.31838">
        <ele>106.3</ele>
        <time>2016-08-27T12:15:35.000Z</time>
      </trkpt>
      <trkpt lat="49.52504" lon="3.31834">
        <ele>107.6</ele>
        <time>2016-08-27T12:15:44.000Z</time>
      </trkpt>
      <trkpt lat="49.52504" lon="3.31833">
        <ele>107.6</ele>
        <time>2016-08-27T12:15:45.000Z</time>
      </trkpt>
      <trkpt lat="49.52504" lon="3.31831">
        <ele>107.5</ele>
        <time>2016-08-27T12:15:46.000Z</time>
      </trkpt>
      <trkpt lat="49.52504" lon="3.3182">
        <ele>106.9</ele>
        <time>2016-08-27T12:16:03.000Z</time>
      </trkpt>
      <trkpt lat="49.52503" lon="3.3182">
        <ele>107</ele>
        <time>2016-08-27T12:16:04.000Z</time>
      </trkpt>
      <trkpt lat="49.52503" lon="3.3182">
        <ele>107.1</ele>
        <time>2016-08-27T12:16:07.000Z</time>
      </trkpt>
      <trkpt lat="49.52502" lon="3.31822">
        <ele>106.7</ele>
        <time>2016-08-27T12:16:08.000Z</time>
      </trkpt>
      <trkpt lat="49.52501" lon="3.31824">
        <ele>106.6</ele>
        <time>2016-08-27T12:16:10.000Z</time>
      </trkpt>
      <trkpt lat="49.52501" lon="3.31824">
        <ele>106.7</ele>
        <time>2016-08-27T12:16:11.000Z</time>
      </trkpt>
      <trkpt lat="49.525" lon="3.31824">
        <ele>106.7</ele>
        <time>2016-08-27T12:16:12.000Z</time>
      </trkpt>
      <trkpt lat="49.52502" lon="3.31829">
        <ele>107</ele>
        <time>2016-08-27T12:16:19.000Z</time>
      </trkpt>
      <trkpt lat="49.52502" lon="3.31829">
        <ele>107</ele>
        <time>2016-08-27T12:16:20.000Z</time>
      </trkpt>
      <trkpt lat="49.52502" lon="3.3183">
        <ele>107.1</ele>
        <time>2016-08-27T12:16:21.000Z</time>
      </trkpt>
      <trkpt lat="49.52504" lon="3.31832">
        <ele>107.4</ele>
        <time>2016-08-27T12:16:26.000Z</time>
      </trkpt>
      <trkpt lat="49.52504" lon="3.31832">
        <ele>107.4</ele>
        <time>2016-08-27T12:16:27.000Z</time>
      </trkpt>
      <trkpt lat="49.52504" lon="3.31832">
        <ele>107.3</ele>
        <time>2016-08-27T12:16:28.000Z</time>
      </trkpt>
      <trkpt lat="49.52501" lon="3.31838">
        <ele>107.1</ele>
        <time>2016-08-27T12:16:39.000Z</time>
      </trkpt>
      <trkpt lat="49.525" lon="3.31838">
        <ele>106.9</ele>
        <time>2016-08-27T12:16:40.000Z</time>
      </trkpt>
      <trkpt lat="49.525" lon="3.31838">
        <ele>106.3</ele>
        <time>2016-08-27T12:16:45.000Z</time>
      </trkpt>
      <trkpt lat="49.52499" lon="3.31838">
        <ele>105.8</ele>
        <time>2016-08-27T12:16:46.000Z</time>
      </trkpt>
      <trkpt lat="49.52497" lon="3.31829">
        <ele>105.1</ele>
        <time>2016-08-27T12:17:03.000Z</time>
      </trkpt>
      <trkpt lat="49.52497" lon="3.3183">
        <ele>105.2</ele>
        <time>2016-08-27T12:17:04.000Z</time>
      </trkpt>
      <trkpt lat="49.52497" lon="3.31828">
        <ele>105.3</ele>
        <time>2016-08-27T12:17:05.000Z</time>
      </trkpt>
      <trkpt lat="49.52497" lon="3.31825">
        <ele>103.4</ele>
        <time>2016-08-27T12:17:20.000Z</time>
      </trkpt>
      <trkpt lat="49.52497" lon="3.31826">
        <ele>103.3</ele>
        <time>2016-08-27T12:17:21.000Z</time>
      </trkpt>
      <trkpt lat="49.52497" lon="3.31827">
        <ele>103.3</ele>
        <time>2016-08-27T12:17:22.000Z</time>
      </trkpt>
      <trkpt lat="49.52497" lon="3.31827">
        <ele>103</ele>
        <time>2016-08-27T12:17:24.000Z</time>
      </trkpt>
      <trkpt lat="49.52497" lon="3.31827">
        <ele>102.9</ele>
        <time>2016-08-27T12:17:25.000Z</time>
      </trkpt>
      <trkpt lat="49.52498" lon="3.31826">
        <ele>102.8</ele>
        <time>2016-08-27T12:17:26.000Z</time>
      </trkpt>
      <trkpt lat="49.52499" lon="3.31813">
        <ele>102.6</ele>
        <time>2016-08-27T12:17:34.000Z</time>
      </trkpt>
      <trkpt lat="49.52499" lon="3.31811">
        <ele>102.6</ele>
        <time>2016-08-27T12:17:35.000Z</time>
      </trkpt>
      <trkpt lat="49.52508" lon="3.3181">
        <ele>102.2</ele>
        <time>2016-08-27T12:17:45.000Z</time>
      </trkpt>
      <trkpt lat="49.52507" lon="3.31812">
        <ele>102</ele>
        <time>2016-08-27T12:17:46.000Z</time>
      </trkpt>
      <trkpt lat="49.52507" lon="3.31814">
        <ele>101.9</ele>
        <time>2016-08-27T12:17:47.000Z</time>
      </trkpt>
      <trkpt lat="49.5251" lon="3.31826">
        <ele>101.6</ele>
        <time>2016-08-27T12:17:59.000Z</time>
      </trkpt>
      <trkpt lat="49.52513" lon="3.3183">
        <ele>101.5</ele>
        <time>2016-08-27T12:18:00.000Z</time>
      </trkpt>
      <trkpt lat="49.52514" lon="3.31839">
        <ele>101.6</ele>
        <time>2016-08-27T12:18:02.000Z</time>
      </trkpt>
      <trkpt lat="49.52515" lon="3.31844">
        <ele>101.6</ele>
        <time>2016-08-27T12:18:03.000Z</time>
      </trkpt>
      <trkpt lat="49.52518" lon="3.31852">
        <ele>101.6</ele>
        <time>2016-08-27T12:18:05.000Z</time>
      </trkpt>
      <trkpt lat="49.5252" lon="3.3186">
        <ele>101.5</ele>
        <time>2016-08-27T12:18:07.000Z</time>
      </trkpt>
      <trkpt lat="49.52525" lon="3.3187">
        <ele>101.2</ele>
        <time>2016-08-27T12:18:10.000Z</time>
      </trkpt>
      <trkpt lat="49.5253" lon="3.3188">
        <ele>101</ele>
        <time>2016-08-27T12:18:13.000Z</time>
      </trkpt>
      <trkpt lat="49.52523" lon="3.31871">
        <ele>99.9</ele>
        <time>2016-08-27T12:18:23.000Z</time>
      </trkpt>
      <trkpt lat="49.52522" lon="3.31868">
        <ele>99.8</ele>
        <time>2016-08-27T12:18:24.000Z</time>
      </trkpt>
      <trkpt lat="49.52518" lon="3.31858">
        <ele>99.6</ele>
        <time>2016-08-27T12:18:28.000Z</time>
      </trkpt>
      <trkpt lat="49.52517" lon="3.31855">
        <ele>99.5</ele>
        <time>2016-08-27T12:18:29.000Z</time>
      </trkpt>
      <trkpt lat="49.5251" lon="3.31846">
        <ele>98.5</ele>
        <time>2016-08-27T12:18:38.000Z</time>
      </trkpt>
      <trkpt lat="49.5251" lon="3.31844">
        <ele>98.4</ele>
        <time>2016-08-27T12:18:39.000Z</time>
      </trkpt>
      <trkpt lat="49.5251" lon="3.31839">
        <ele>98.3</ele>
        <time>2016-08-27T12:18:43.000Z</time>
      </trkpt>
      <trkpt lat="49.5251" lon="3.3184">
        <ele>98.2</ele>
        <time>2016-08-27T12:18:44.000Z</time>
      </trkpt>
      <trkpt lat="49.5251" lon="3.3184">
        <ele>98.3</ele>
        <time>2016-08-27T12:18:48.000Z</time>
      </trkpt>
      <trkpt lat="49.52512" lon="3.3184">
        <ele>98.5</ele>
        <time>2016-08-27T12:18:53.000Z</time>
      </trkpt>
      <trkpt lat="49.52512" lon="3.3183">
        <ele>98.2</ele>
        <time>2016-08-27T12:19:04.000Z</time>
      </trkpt>
      <trkpt lat="49.52512" lon="3.31831">
        <ele>98.2</ele>
        <time>2016-08-27T12:19:05.000Z</time>
      </trkpt>
      <trkpt lat="49.52511" lon="3.31831">
        <ele>98.2</ele>
        <time>2016-08-27T12:19:08.000Z</time>
      </trkpt>
      <trkpt lat="49.52506" lon="3.31832">
        <ele>97.8</ele>
        <time>2016-08-27T12:19:10.000Z</time>
      </trkpt>
      <trkpt lat="49.52506" lon="3.31831">
        <ele>97.9</ele>
        <time>2016-08-27T12:19:11.000Z</time>
      </trkpt>
      <trkpt lat="49.52505" lon="3.31831">
        <ele>98.5</ele>
        <time>2016-08-27T12:19:12.000Z</time>
      </trkpt>
      <trkpt lat="49.52505" lon="3.31829">
        <ele>99.4</ele>
        <time>2016-08-27T12:19:14.000Z</time>
      </trkpt>
      <trkpt lat="49.52503" lon="3.3183">
        <ele>99.9</ele>
        <time>2016-08-27T12:19:15.000Z</time>
      </trkpt>
      <trkpt lat="49.52498" lon="3.31828">
        <ele>101.2</ele>
        <time>2016-08-27T12:19:18.000Z</time>
      </trkpt>
      <trkpt lat="49.52497" lon="3.31827">
        <ele>102</ele>
        <time>2016-08-27T12:19:19.000Z</time>
      </trkpt>
      <trkpt lat="49.52496" lon="3.31826">
        <ele>102.9</ele>
        <time>2016-08-27T12:19:20.000Z</time>
      </trkpt>
      <trkpt lat="49.5249" lon="3.31817">
        <ele>109.1</ele>
        <time>2016-08-27T12:19:26.000Z</time>
      </trkpt>
      <trkpt lat="49.52489" lon="3.31816">
        <ele>109.8</ele>
        <time>2016-08-27T12:19:27.000Z</time>
      </trkpt>
      <trkpt lat="49.52487" lon="3.3181">
        <ele>113.4</ele>
        <time>2016-08-27T12:19:38.000Z</time>
      </trkpt>
      <trkpt lat="49.52487" lon="3.31809">
        <ele>113.9</ele>
        <time>2016-08-27T12:19:39.000Z</time>
      </trkpt>
      <trkpt lat="49.52487" lon="3.31809">
        <ele>113.3</ele>
        <time>2016-08-27T12:19:40.000Z</time>
      </trkpt>
      <trkpt lat="49.52488" lon="3.31808">
        <ele>113.2</ele>
        <time>2016-08-27T12:19:41.000Z</time>
      </trkpt>
      <trkpt lat="49.52488" lon="3.31807">
        <ele>113</ele>
        <time>2016-08-27T12:19:42.000Z</time>
      </trkpt>
      <trkpt lat="49.52488" lon="3.31807">
        <ele>113.7</ele>
        <time>2016-08-27T12:19:43.000Z</time>
      </trkpt>
      <trkpt lat="49.52488" lon="3.31808">
        <ele>113.9</ele>
        <time>2016-08-27T12:19:44.000Z</time>
      </trkpt>
      <trkpt lat="49.52488" lon="3.31809">
        <ele>114.4</ele>
        <time>2016-08-27T12:19:45.000Z</time>
      </trkpt>
      <trkpt lat="49.52487" lon="3.31809">
        <ele>115.2</ele>
        <time>2016-08-27T12:19:51.000Z</time>
      </trkpt>
      <trkpt lat="49.52486" lon="3.31809">
        <ele>115.9</ele>
        <time>2016-08-27T12:19:52.000Z</time>
      </trkpt>
      <trkpt lat="49.52485" lon="3.3181">
        <ele>116</ele>
        <time>2016-08-27T12:19:54.000Z</time>
      </trkpt>
      <trkpt lat="49.52485" lon="3.3181">
        <ele>116</ele>
        <time>2016-08-27T12:19:55.000Z</time>
      </trkpt>
      <trkpt lat="49.52485" lon="3.3181">
        <ele>115.8</ele>
        <time>2016-08-27T12:20:17.000Z</time>
      </trkpt>
      <trkpt lat="49.52491" lon="3.31806">
        <ele>114.1</ele>
        <time>2016-08-27T12:20:18.000Z</time>
      </trkpt>
      <trkpt lat="49.52485" lon="3.31812">
        <ele>112.6</ele>
        <time>2016-08-27T12:20:25.000Z</time>
      </trkpt>
      <trkpt lat="49.52484" lon="3.31813">
        <ele>112.3</ele>
        <time>2016-08-27T12:20:26.000Z</time>
      </trkpt>
      <trkpt lat="49.52483" lon="3.31813">
        <ele>112</ele>
        <time>2016-08-27T12:20:35.000Z</time>
      </trkpt>
      <trkpt lat="49.52482" lon="3.31815">
        <ele>111.2</ele>
        <time>2016-08-27T12:20:36.000Z</time>
      </trkpt>
      <trkpt lat="49.52482" lon="3.31805">
        <ele>110.3</ele>
        <time>2016-08-27T12:21:14.000Z</time>
      </trkpt>
      <trkpt lat="49.52482" lon="3.31805">
        <ele>110.3</ele>
        <time>2016-08-27T12:21:15.000Z</time>
      </trkpt>
      <trkpt lat="49.52482" lon="3.31805">
        <ele>110.4</ele>
        <time>2016-08-27T12:22:10.000Z</time>
      </trkpt>
      <trkpt lat="49.52483" lon="3.31806">
        <ele>111.3</ele>
        <time>2016-08-27T12:22:11.000Z</time>
      </trkpt>
      <trkpt lat="49.52482" lon="3.31804">
        <ele>110.2</ele>
        <time>2016-08-27T12:24:50.000Z</time>
      </trkpt>
      <trkpt lat="49.52483" lon="3.31804">
        <ele>110.4</ele>
        <time>2016-08-27T12:24:51.000Z</time>
      </trkpt>
      <trkpt lat="49.52482" lon="3.31804">
        <ele>110.4</ele>
        <time>2016-08-27T12:26:36.000Z</time>
      </trkpt>
      <trkpt lat="49.5249" lon="3.31797">
        <ele>117.7</ele>
        <time>2016-08-27T12:26:37.000Z</time>
      </trkpt>
      <trkpt lat="49.52493" lon="3.31784">
        <ele>117.6</ele>
        <time>2016-08-27T12:26:48.000Z</time>
      </trkpt>
      <trkpt lat="49.52494" lon="3.31783">
        <ele>117.3</ele>
        <time>2016-08-27T12:26:49.000Z</time>
      </trkpt>
      <trkpt lat="49.525" lon="3.31776">
        <ele>116.6</ele>
        <time>2016-08-27T12:26:55.000Z</time>
      </trkpt>
      <trkpt lat="49.52502" lon="3.31774">
        <ele>116.4</ele>
        <time>2016-08-27T12:26:56.000Z</time>
      </trkpt>
      <trkpt lat="49.52502" lon="3.31762">
        <ele>116.1</ele>
        <time>2016-08-27T12:27:03.000Z</time>
      </trkpt>
      <trkpt lat="49.52501" lon="3.3176">
        <ele>115.9</ele>
        <time>2016-08-27T12:27:04.000Z</time>
      </trkpt>
      <trkpt lat="49.52497" lon="3.31749">
        <ele>115.8</ele>
        <time>2016-08-27T12:27:11.000Z</time>
      </trkpt>
      <trkpt lat="49.52497" lon="3.31747">
        <ele>115.9</ele>
        <time>2016-08-27T12:27:12.000Z</time>
      </trkpt>
      <trkpt lat="49.52491" lon="3.31737">
        <ele>114.9</ele>
        <time>2016-08-27T12:27:19.000Z</time>
      </trkpt>
      <trkpt lat="49.5249" lon="3.31736">
        <ele>115</ele>
        <time>2016-08-27T12:27:20.000Z</time>
      </trkpt>
      <trkpt lat="49.52483" lon="3.31729">
        <ele>114.7</ele>
        <time>2016-08-27T12:27:30.000Z</time>
      </trkpt>
      <trkpt lat="49.52482" lon="3.31727">
        <ele>114.5</ele>
        <time>2016-08-27T12:27:31.000Z</time>
      </trkpt>
      <trkpt lat="49.52479" lon="3.31714">
        <ele>114.5</ele>
        <time>2016-08-27T12:27:38.000Z</time>
      </trkpt>
      <trkpt lat="49.52478" lon="3.31712">
        <ele>114.5</ele>
        <time>2016-08-27T12:27:39.000Z</time>
      </trkpt>
      <trkpt lat="49.52472" lon="3.31703">
        <ele>113.9</ele>
        <time>2016-08-27T12:27:45.000Z</time>
      </trkpt>
      <trkpt lat="49.52471" lon="3.31702">
        <ele>113.9</ele>
        <time>2016-08-27T12:27:46.000Z</time>
      </trkpt>
      <trkpt lat="49.52464" lon="3.31697">
        <ele>114.9</ele>
        <time>2016-08-27T12:27:53.000Z</time>
      </trkpt>
      <trkpt lat="49.52464" lon="3.31696">
        <ele>114.8</ele>
        <time>2016-08-27T12:27:54.000Z</time>
      </trkpt>
      <trkpt lat="49.52464" lon="3.31696">
        <ele>114.9</ele>
        <time>2016-08-27T12:27:55.000Z</time>
      </trkpt>
      <trkpt lat="49.52463" lon="3.31695">
        <ele>114.7</ele>
        <time>2016-08-27T12:27:56.000Z</time>
      </trkpt>
      <trkpt lat="49.5246" lon="3.31683">
        <ele>114</ele>
        <time>2016-08-27T12:28:05.000Z</time>
      </trkpt>
      <trkpt lat="49.52459" lon="3.31683">
        <ele>113.9</ele>
        <time>2016-08-27T12:28:06.000Z</time>
      </trkpt>
      <trkpt lat="49.52459" lon="3.31682">
        <ele>113.9</ele>
        <time>2016-08-27T12:28:07.000Z</time>
      </trkpt>
      <trkpt lat="49.52459" lon="3.31682">
        <ele>114</ele>
        <time>2016-08-27T12:28:08.000Z</time>
      </trkpt>
      <trkpt lat="49.52459" lon="3.31681">
        <ele>114</ele>
        <time>2016-08-27T12:28:09.000Z</time>
      </trkpt>
      <trkpt lat="49.52459" lon="3.31679">
        <ele>113.9</ele>
        <time>2016-08-27T12:28:10.000Z</time>
      </trkpt>
      <trkpt lat="49.52462" lon="3.31668">
        <ele>113.1</ele>
        <time>2016-08-27T12:28:17.000Z</time>
      </trkpt>
      <trkpt lat="49.52462" lon="3.31666">
        <ele>113.2</ele>
        <time>2016-08-27T12:28:18.000Z</time>
      </trkpt>
      <trkpt lat="49.52463" lon="3.31653">
        <ele>113.3</ele>
        <time>2016-08-27T12:28:25.000Z</time>
      </trkpt>
      <trkpt lat="49.52464" lon="3.31651">
        <ele>113.4</ele>
        <time>2016-08-27T12:28:26.000Z</time>
      </trkpt>
      <trkpt lat="49.52469" lon="3.3164">
        <ele>113.9</ele>
        <time>2016-08-27T12:28:33.000Z</time>
      </trkpt>
      <trkpt lat="49.5247" lon="3.31638">
        <ele>113.8</ele>
        <time>2016-08-27T12:28:34.000Z</time>
      </trkpt>
      <trkpt lat="49.52475" lon="3.31626">
        <ele>113.5</ele>
        <time>2016-08-27T12:28:40.000Z</time>
      </trkpt>
      <trkpt lat="49.52475" lon="3.31624">
        <ele>113.6</ele>
        <time>2016-08-27T12:28:41.000Z</time>
      </trkpt>
      <trkpt lat="49.52479" lon="3.31613">
        <ele>113.6</ele>
        <time>2016-08-27T12:28:47.000Z</time>
      </trkpt>
      <trkpt lat="49.52479" lon="3.31612">
        <ele>113.6</ele>
        <time>2016-08-27T12:28:48.000Z</time>
      </trkpt>
      <trkpt lat="49.52483" lon="3.31601">
        <ele>113</ele>
        <time>2016-08-27T12:28:55.000Z</time>
      </trkpt>
      <trkpt lat="49.52483" lon="3.31599">
        <ele>113</ele>
        <time>2016-08-27T12:28:56.000Z</time>
      </trkpt>
      <trkpt lat="49.52487" lon="3.31587">
        <ele>112.8</ele>
        <time>2016-08-27T12:29:03.000Z</time>
      </trkpt>
      <trkpt lat="49.52487" lon="3.31585">
        <ele>112.9</ele>
        <time>2016-08-27T12:29:04.000Z</time>
      </trkpt>
      <trkpt lat="49.52489" lon="3.31572">
        <ele>112.9</ele>
        <time>2016-08-27T12:29:11.000Z</time>
      </trkpt>
      <trkpt lat="49.5249" lon="3.3157">
        <ele>113.2</ele>
        <time>2016-08-27T12:29:12.000Z</time>
      </trkpt>
      <trkpt lat="49.52493" lon="3.31558">
        <ele>113</ele>
        <time>2016-08-27T12:29:18.000Z</time>
      </trkpt>
      <trkpt lat="49.52493" lon="3.31556">
        <ele>113.2</ele>
        <time>2016-08-27T12:29:19.000Z</time>
      </trkpt>
      <trkpt lat="49.52496" lon="3.31546">
        <ele>112.8</ele>
        <time>2016-08-27T12:29:25.000Z</time>
      </trkpt>
      <trkpt lat="49.52497" lon="3.31544">
        <ele>112.5</ele>
        <time>2016-08-27T12:29:26.000Z</time>
      </trkpt>
      <trkpt lat="49.52499" lon="3.31533">
        <ele>112.1</ele>
        <time>2016-08-27T12:29:31.000Z</time>
      </trkpt>
      <trkpt lat="49.525" lon="3.3153">
        <ele>112</ele>
        <time>2016-08-27T12:29:32.000Z</time>
      </trkpt>
      <trkpt lat="49.52503" lon="3.31519">
        <ele>111.7</ele>
        <time>2016-08-27T12:29:38.000Z</time>
      </trkpt>
      <trkpt lat="49.52504" lon="3.31517">
        <ele>111.9</ele>
        <time>2016-08-27T12:29:39.000Z</time>
      </trkpt>
      <trkpt lat="49.52504" lon="3.31505">
        <ele>111.3</ele>
        <time>2016-08-27T12:29:45.000Z</time>
      </trkpt>
      <trkpt lat="49.52505" lon="3.31502">
        <ele>111.3</ele>
        <time>2016-08-27T12:29:46.000Z</time>
      </trkpt>
      <trkpt lat="49.52506" lon="3.31489">
        <ele>110.7</ele>
        <time>2016-08-27T12:29:52.000Z</time>
      </trkpt>
      <trkpt lat="49.52507" lon="3.31487">
        <ele>110.6</ele>
        <time>2016-08-27T12:29:53.000Z</time>
      </trkpt>
      <trkpt lat="49.5251" lon="3.31477">
        <ele>110.7</ele>
        <time>2016-08-27T12:29:58.000Z</time>
      </trkpt>
      <trkpt lat="49.52511" lon="3.31475">
        <ele>110.6</ele>
        <time>2016-08-27T12:29:59.000Z</time>
      </trkpt>
      <trkpt lat="49.52513" lon="3.31462">
        <ele>110.4</ele>
        <time>2016-08-27T12:30:05.000Z</time>
      </trkpt>
      <trkpt lat="49.52514" lon="3.3146">
        <ele>110.3</ele>
        <time>2016-08-27T12:30:06.000Z</time>
      </trkpt>
      <trkpt lat="49.52517" lon="3.31448">
        <ele>109.9</ele>
        <time>2016-08-27T12:30:12.000Z</time>
      </trkpt>
      <trkpt lat="49.52518" lon="3.31445">
        <ele>109.9</ele>
        <time>2016-08-27T12:30:13.000Z</time>
      </trkpt>
      <trkpt lat="49.5252" lon="3.31433">
        <ele>109.7</ele>
        <time>2016-08-27T12:30:18.000Z</time>
      </trkpt>
      <trkpt lat="49.52521" lon="3.31431">
        <ele>109.4</ele>
        <time>2016-08-27T12:30:19.000Z</time>
      </trkpt>
      <trkpt lat="49.52524" lon="3.31418">
        <ele>109.5</ele>
        <time>2016-08-27T12:30:25.000Z</time>
      </trkpt>
      <trkpt lat="49.52525" lon="3.31416">
        <ele>109.6</ele>
        <time>2016-08-27T12:30:26.000Z</time>
      </trkpt>
      <trkpt lat="49.52527" lon="3.31404">
        <ele>109.9</ele>
        <time>2016-08-27T12:30:32.000Z</time>
      </trkpt>
      <trkpt lat="49.52527" lon="3.31402">
        <ele>109.8</ele>
        <time>2016-08-27T12:30:33.000Z</time>
      </trkpt>
      <trkpt lat="49.52528" lon="3.31389">
        <ele>109.5</ele>
        <time>2016-08-27T12:30:39.000Z</time>
      </trkpt>
      <trkpt lat="49.52529" lon="3.31387">
        <ele>109.6</ele>
        <time>2016-08-27T12:30:40.000Z</time>
      </trkpt>
      <trkpt lat="49.52533" lon="3.31377">
        <ele>109.7</ele>
        <time>2016-08-27T12:30:45.000Z</time>
      </trkpt>
      <trkpt lat="49.52533" lon="3.31374">
        <ele>109.8</ele>
        <time>2016-08-27T12:30:46.000Z</time>
      </trkpt>
      <trkpt lat="49.52536" lon="3.31362">
        <ele>109.5</ele>
        <time>2016-08-27T12:30:52.000Z</time>
      </trkpt>
      <trkpt lat="49.52536" lon="3.3136">
        <ele>109.6</ele>
        <time>2016-08-27T12:30:53.000Z</time>
      </trkpt>
      <trkpt lat="49.5254" lon="3.31347">
        <ele>110</ele>
        <time>2016-08-27T12:31:01.000Z</time>
      </trkpt>
      <trkpt lat="49.52541" lon="3.31346">
        <ele>110.2</ele>
        <time>2016-08-27T12:31:02.000Z</time>
      </trkpt>
      <trkpt lat="49.52546" lon="3.31336">
        <ele>111.5</ele>
        <time>2016-08-27T12:31:08.000Z</time>
      </trkpt>
      <trkpt lat="49.52547" lon="3.31334">
        <ele>111.7</ele>
        <time>2016-08-27T12:31:09.000Z</time>
      </trkpt>
      <trkpt lat="49.5255" lon="3.31321">
        <ele>113</ele>
        <time>2016-08-27T12:31:16.000Z</time>
      </trkpt>
      <trkpt lat="49.5255" lon="3.3132">
        <ele>113.1</ele>
        <time>2016-08-27T12:31:17.000Z</time>
      </trkpt>
      <trkpt lat="49.52555" lon="3.31309">
        <ele>112.2</ele>
        <time>2016-08-27T12:31:23.000Z</time>
      </trkpt>
      <trkpt lat="49.52556" lon="3.31306">
        <ele>112</ele>
        <time>2016-08-27T12:31:24.000Z</time>
      </trkpt>
      <trkpt lat="49.5256" lon="3.31296">
        <ele>112</ele>
        <time>2016-08-27T12:31:29.000Z</time>
      </trkpt>
      <trkpt lat="49.5256" lon="3.31294">
        <ele>112.1</ele>
        <time>2016-08-27T12:31:30.000Z</time>
      </trkpt>
      <trkpt lat="49.52565" lon="3.31284">
        <ele>112.1</ele>
        <time>2016-08-27T12:31:39.000Z</time>
      </trkpt>
      <trkpt lat="49.52566" lon="3.31282">
        <ele>111.9</ele>
        <time>2016-08-27T12:31:40.000Z</time>
      </trkpt>
      <trkpt lat="49.5257" lon="3.3127">
        <ele>111</ele>
        <time>2016-08-27T12:31:46.000Z</time>
      </trkpt>
      <trkpt lat="49.52571" lon="3.31268">
        <ele>110.8</ele>
        <time>2016-08-27T12:31:47.000Z</time>
      </trkpt>
      <trkpt lat="49.52573" lon="3.31255">
        <ele>110.1</ele>
        <time>2016-08-27T12:31:52.000Z</time>
      </trkpt>
      <trkpt lat="49.52574" lon="3.31253">
        <ele>109.9</ele>
        <time>2016-08-27T12:31:53.000Z</time>
      </trkpt>
      <trkpt lat="49.52577" lon="3.31242">
        <ele>109.2</ele>
        <time>2016-08-27T12:31:58.000Z</time>
      </trkpt>
      <trkpt lat="49.52578" lon="3.3124">
        <ele>109.1</ele>
        <time>2016-08-27T12:31:59.000Z</time>
      </trkpt>
      <trkpt lat="49.52582" lon="3.31229">
        <ele>108.5</ele>
        <time>2016-08-27T12:32:04.000Z</time>
      </trkpt>
      <trkpt lat="49.52582" lon="3.31226">
        <ele>108.6</ele>
        <time>2016-08-27T12:32:05.000Z</time>
      </trkpt>
      <trkpt lat="49.52586" lon="3.31215">
        <ele>107.4</ele>
        <time>2016-08-27T12:32:10.000Z</time>
      </trkpt>
      <trkpt lat="49.52586" lon="3.31213">
        <ele>107.4</ele>
        <time>2016-08-27T12:32:11.000Z</time>
      </trkpt>
      <trkpt lat="49.5259" lon="3.31201">
        <ele>107.3</ele>
        <time>2016-08-27T12:32:17.000Z</time>
      </trkpt>
      <trkpt lat="49.52591" lon="3.31199">
        <ele>107.4</ele>
        <time>2016-08-27T12:32:18.000Z</time>
      </trkpt>
      <trkpt lat="49.52596" lon="3.31188">
        <ele>108</ele>
        <time>2016-08-27T12:32:24.000Z</time>
      </trkpt>
      <trkpt lat="49.52597" lon="3.31187">
        <ele>107.8</ele>
        <time>2016-08-27T12:32:25.000Z</time>
      </trkpt>
      <trkpt lat="49.52602" lon="3.31177">
        <ele>108.6</ele>
        <time>2016-08-27T12:32:31.000Z</time>
      </trkpt>
      <trkpt lat="49.52602" lon="3.31176">
        <ele>108.7</ele>
        <time>2016-08-27T12:32:32.000Z</time>
      </trkpt>
      <trkpt lat="49.52607" lon="3.31166">
        <ele>108.7</ele>
        <time>2016-08-27T12:32:38.000Z</time>
      </trkpt>
      <trkpt lat="49.52607" lon="3.31164">
        <ele>108.7</ele>
        <time>2016-08-27T12:32:39.000Z</time>
      </trkpt>
      <trkpt lat="49.52611" lon="3.31152">
        <ele>109.1</ele>
        <time>2016-08-27T12:32:46.000Z</time>
      </trkpt>
      <trkpt lat="49.52611" lon="3.31151">
        <ele>109.2</ele>
        <time>2016-08-27T12:32:47.000Z</time>
      </trkpt>
      <trkpt lat="49.52613" lon="3.31138">
        <ele>110.8</ele>
        <time>2016-08-27T12:33:09.000Z</time>
      </trkpt>
      <trkpt lat="49.52613" lon="3.31136">
        <ele>110.8</ele>
        <time>2016-08-27T12:33:10.000Z</time>
      </trkpt>
      <trkpt lat="49.52612" lon="3.31122">
        <ele>111.6</ele>
        <time>2016-08-27T12:33:18.000Z</time>
      </trkpt>
      <trkpt lat="49.52612" lon="3.3112">
        <ele>111.8</ele>
        <time>2016-08-27T12:33:19.000Z</time>
      </trkpt>
      <trkpt lat="49.52609" lon="3.31108">
        <ele>112.2</ele>
        <time>2016-08-27T12:33:25.000Z</time>
      </trkpt>
      <trkpt lat="49.52608" lon="3.31105">
        <ele>112.7</ele>
        <time>2016-08-27T12:33:26.000Z</time>
      </trkpt>
      <trkpt lat="49.52605" lon="3.31093">
        <ele>112.6</ele>
        <time>2016-08-27T12:33:32.000Z</time>
      </trkpt>
      <trkpt lat="49.52604" lon="3.3109">
        <ele>112.3</ele>
        <time>2016-08-27T12:33:33.000Z</time>
      </trkpt>
      <trkpt lat="49.52601" lon="3.31078">
        <ele>112.8</ele>
        <time>2016-08-27T12:33:39.000Z</time>
      </trkpt>
      <trkpt lat="49.526" lon="3.31076">
        <ele>113</ele>
        <time>2016-08-27T12:33:40.000Z</time>
      </trkpt>
      <trkpt lat="49.52598" lon="3.31064">
        <ele>113.6</ele>
        <time>2016-08-27T12:33:46.000Z</time>
      </trkpt>
      <trkpt lat="49.52597" lon="3.31062">
        <ele>113.9</ele>
        <time>2016-08-27T12:33:47.000Z</time>
      </trkpt>
      <trkpt lat="49.52595" lon="3.3105">
        <ele>114.6</ele>
        <time>2016-08-27T12:33:53.000Z</time>
      </trkpt>
      <trkpt lat="49.52594" lon="3.31048">
        <ele>114.4</ele>
        <time>2016-08-27T12:33:54.000Z</time>
      </trkpt>
      <trkpt lat="49.52591" lon="3.31036">
        <ele>114.6</ele>
        <time>2016-08-27T12:34:01.000Z</time>
      </trkpt>
      <trkpt lat="49.52591" lon="3.31034">
        <ele>114.5</ele>
        <time>2016-08-27T12:34:02.000Z</time>
      </trkpt>
      <trkpt lat="49.52588" lon="3.31022">
        <ele>114.9</ele>
        <time>2016-08-27T12:34:08.000Z</time>
      </trkpt>
      <trkpt lat="49.52587" lon="3.3102">
        <ele>114.8</ele>
        <time>2016-08-27T12:34:09.000Z</time>
      </trkpt>
      <trkpt lat="49.52589" lon="3.31007">
        <ele>114.2</ele>
        <time>2016-08-27T12:34:20.000Z</time>
      </trkpt>
      <trkpt lat="49.52591" lon="3.31007">
        <ele>113.9</ele>
        <time>2016-08-27T12:34:21.000Z</time>
      </trkpt>
      <trkpt lat="49.52598" lon="3.31009">
        <ele>113.5</ele>
        <time>2016-08-27T12:34:26.000Z</time>
      </trkpt>
      <trkpt lat="49.526" lon="3.31009">
        <ele>113.4</ele>
        <time>2016-08-27T12:34:27.000Z</time>
      </trkpt>
      <trkpt lat="49.52608" lon="3.3101">
        <ele>113</ele>
        <time>2016-08-27T12:34:32.000Z</time>
      </trkpt>
      <trkpt lat="49.52609" lon="3.3101">
        <ele>113</ele>
        <time>2016-08-27T12:34:33.000Z</time>
      </trkpt>
      <trkpt lat="49.52617" lon="3.31008">
        <ele>112.3</ele>
        <time>2016-08-27T12:34:39.000Z</time>
      </trkpt>
      <trkpt lat="49.52618" lon="3.31008">
        <ele>112.3</ele>
        <time>2016-08-27T12:34:40.000Z</time>
      </trkpt>
      <trkpt lat="49.52627" lon="3.31006">
        <ele>111.9</ele>
        <time>2016-08-27T12:34:46.000Z</time>
      </trkpt>
      <trkpt lat="49.52629" lon="3.31006">
        <ele>111.9</ele>
        <time>2016-08-27T12:34:47.000Z</time>
      </trkpt>
      <trkpt lat="49.52636" lon="3.31005">
        <ele>111.8</ele>
        <time>2016-08-27T12:34:52.000Z</time>
      </trkpt>
      <trkpt lat="49.52638" lon="3.31005">
        <ele>111.8</ele>
        <time>2016-08-27T12:34:53.000Z</time>
      </trkpt>
      <trkpt lat="49.52646" lon="3.31003">
        <ele>112</ele>
        <time>2016-08-27T12:34:58.000Z</time>
      </trkpt>
      <trkpt lat="49.52648" lon="3.31003">
        <ele>112</ele>
        <time>2016-08-27T12:34:59.000Z</time>
      </trkpt>
      <trkpt lat="49.52655" lon="3.31">
        <ele>112</ele>
        <time>2016-08-27T12:35:03.000Z</time>
      </trkpt>
      <trkpt lat="49.52657" lon="3.31">
        <ele>112</ele>
        <time>2016-08-27T12:35:04.000Z</time>
      </trkpt>
      <trkpt lat="49.52665" lon="3.30998">
        <ele>111.2</ele>
        <time>2016-08-27T12:35:10.000Z</time>
      </trkpt>
      <trkpt lat="49.52667" lon="3.30997">
        <ele>111.3</ele>
        <time>2016-08-27T12:35:11.000Z</time>
      </trkpt>
      <trkpt lat="49.52675" lon="3.30996">
        <ele>112.1</ele>
        <time>2016-08-27T12:35:16.000Z</time>
      </trkpt>
      <trkpt lat="49.52677" lon="3.30996">
        <ele>112.1</ele>
        <time>2016-08-27T12:35:17.000Z</time>
      </trkpt>
      <trkpt lat="49.52685" lon="3.30994">
        <ele>112</ele>
        <time>2016-08-27T12:35:22.000Z</time>
      </trkpt>
      <trkpt lat="49.52687" lon="3.30994">
        <ele>112</ele>
        <time>2016-08-27T12:35:23.000Z</time>
      </trkpt>
      <trkpt lat="49.52695" lon="3.30992">
        <ele>112.6</ele>
        <time>2016-08-27T12:35:29.000Z</time>
      </trkpt>
      <trkpt lat="49.52696" lon="3.30991">
        <ele>112.7</ele>
        <time>2016-08-27T12:35:30.000Z</time>
      </trkpt>
      <trkpt lat="49.52705" lon="3.3099">
        <ele>112.3</ele>
        <time>2016-08-27T12:35:36.000Z</time>
      </trkpt>
      <trkpt lat="49.52706" lon="3.3099">
        <ele>112.2</ele>
        <time>2016-08-27T12:35:37.000Z</time>
      </trkpt>
      <trkpt lat="49.52715" lon="3.30987">
        <ele>112.1</ele>
        <time>2016-08-27T12:35:43.000Z</time>
      </trkpt>
      <trkpt lat="49.52716" lon="3.30987">
        <ele>112.2</ele>
        <time>2016-08-27T12:35:44.000Z</time>
      </trkpt>
      <trkpt lat="49.52725" lon="3.30984">
        <ele>112.8</ele>
        <time>2016-08-27T12:35:50.000Z</time>
      </trkpt>
      <trkpt lat="49.52727" lon="3.30983">
        <ele>112.9</ele>
        <time>2016-08-27T12:35:51.000Z</time>
      </trkpt>
      <trkpt lat="49.52735" lon="3.30981">
        <ele>113.2</ele>
        <time>2016-08-27T12:35:57.000Z</time>
      </trkpt>
      <trkpt lat="49.52736" lon="3.30981">
        <ele>113.1</ele>
        <time>2016-08-27T12:35:58.000Z</time>
      </trkpt>
      <trkpt lat="49.52744" lon="3.30978">
        <ele>112.9</ele>
        <time>2016-08-27T12:36:06.000Z</time>
      </trkpt>
      <trkpt lat="49.52746" lon="3.30977">
        <ele>112.6</ele>
        <time>2016-08-27T12:36:07.000Z</time>
      </trkpt>
      <trkpt lat="49.52754" lon="3.30976">
        <ele>112.6</ele>
        <time>2016-08-27T12:36:14.000Z</time>
      </trkpt>
      <trkpt lat="49.52755" lon="3.30976">
        <ele>112.7</ele>
        <time>2016-08-27T12:36:15.000Z</time>
      </trkpt>
      <trkpt lat="49.52763" lon="3.30974">
        <ele>111.3</ele>
        <time>2016-08-27T12:36:21.000Z</time>
      </trkpt>
      <trkpt lat="49.52765" lon="3.30973">
        <ele>111.1</ele>
        <time>2016-08-27T12:36:22.000Z</time>
      </trkpt>
      <trkpt lat="49.52772" lon="3.30971">
        <ele>110.9</ele>
        <time>2016-08-27T12:36:28.000Z</time>
      </trkpt>
      <trkpt lat="49.52773" lon="3.30971">
        <ele>111.1</ele>
        <time>2016-08-27T12:36:29.000Z</time>
      </trkpt>
      <trkpt lat="49.52782" lon="3.30969">
        <ele>111.5</ele>
        <time>2016-08-27T12:36:35.000Z</time>
      </trkpt>
      <trkpt lat="49.52783" lon="3.30969">
        <ele>111.6</ele>
        <time>2016-08-27T12:36:36.000Z</time>
      </trkpt>
      <trkpt lat="49.52791" lon="3.30969">
        <ele>111.5</ele>
        <time>2016-08-27T12:36:42.000Z</time>
      </trkpt>
      <trkpt lat="49.52793" lon="3.30969">
        <ele>111.3</ele>
        <time>2016-08-27T12:36:43.000Z</time>
      </trkpt>
      <trkpt lat="49.52801" lon="3.30967">
        <ele>111.4</ele>
        <time>2016-08-27T12:36:49.000Z</time>
      </trkpt>
      <trkpt lat="49.52802" lon="3.30967">
        <ele>111.4</ele>
        <time>2016-08-27T12:36:50.000Z</time>
      </trkpt>
      <trkpt lat="49.5281" lon="3.30965">
        <ele>111.4</ele>
        <time>2016-08-27T12:36:55.000Z</time>
      </trkpt>
      <trkpt lat="49.52811" lon="3.30965">
        <ele>111.2</ele>
        <time>2016-08-27T12:36:56.000Z</time>
      </trkpt>
      <trkpt lat="49.52819" lon="3.30964">
        <ele>110.7</ele>
        <time>2016-08-27T12:37:02.000Z</time>
      </trkpt>
      <trkpt lat="49.52821" lon="3.30964">
        <ele>110.5</ele>
        <time>2016-08-27T12:37:03.000Z</time>
      </trkpt>
      <trkpt lat="49.52829" lon="3.30962">
        <ele>109.9</ele>
        <time>2016-08-27T12:37:08.000Z</time>
      </trkpt>
      <trkpt lat="49.5283" lon="3.30962">
        <ele>109.9</ele>
        <time>2016-08-27T12:37:09.000Z</time>
      </trkpt>
      <trkpt lat="49.52838" lon="3.3096">
        <ele>110.1</ele>
        <time>2016-08-27T12:37:16.000Z</time>
      </trkpt>
      <trkpt lat="49.52839" lon="3.3096">
        <ele>110.1</ele>
        <time>2016-08-27T12:37:17.000Z</time>
      </trkpt>
      <trkpt lat="49.52847" lon="3.3096">
        <ele>110.2</ele>
        <time>2016-08-27T12:37:22.000Z</time>
      </trkpt>
      <trkpt lat="49.52849" lon="3.30959">
        <ele>110.2</ele>
        <time>2016-08-27T12:37:23.000Z</time>
      </trkpt>
      <trkpt lat="49.52857" lon="3.30957">
        <ele>110.5</ele>
        <time>2016-08-27T12:37:28.000Z</time>
      </trkpt>
      <trkpt lat="49.52859" lon="3.30957">
        <ele>110.5</ele>
        <time>2016-08-27T12:37:29.000Z</time>
      </trkpt>
      <trkpt lat="49.52868" lon="3.30955">
        <ele>111</ele>
        <time>2016-08-27T12:37:34.000Z</time>
      </trkpt>
      <trkpt lat="49.52869" lon="3.30955">
        <ele>110.9</ele>
        <time>2016-08-27T12:37:35.000Z</time>
      </trkpt>
      <trkpt lat="49.52878" lon="3.30952">
        <ele>109.9</ele>
        <time>2016-08-27T12:37:40.000Z</time>
      </trkpt>
      <trkpt lat="49.5288" lon="3.30952">
        <ele>110.1</ele>
        <time>2016-08-27T12:37:41.000Z</time>
      </trkpt>
      <trkpt lat="49.52887" lon="3.30948">
        <ele>110.8</ele>
        <time>2016-08-27T12:37:47.000Z</time>
      </trkpt>
      <trkpt lat="49.52889" lon="3.30948">
        <ele>110.8</ele>
        <time>2016-08-27T12:37:48.000Z</time>
      </trkpt>
      <trkpt lat="49.52897" lon="3.30948">
        <ele>111.7</ele>
        <time>2016-08-27T12:37:53.000Z</time>
      </trkpt>
      <trkpt lat="49.52898" lon="3.30947">
        <ele>112</ele>
        <time>2016-08-27T12:37:54.000Z</time>
      </trkpt>
      <trkpt lat="49.52907" lon="3.30946">
        <ele>113.7</ele>
        <time>2016-08-27T12:38:00.000Z</time>
      </trkpt>
      <trkpt lat="49.52908" lon="3.30945">
        <ele>113.9</ele>
        <time>2016-08-27T12:38:01.000Z</time>
      </trkpt>
      <trkpt lat="49.52915" lon="3.30944">
        <ele>113.7</ele>
        <time>2016-08-27T12:38:04.000Z</time>
      </trkpt>
      <trkpt lat="49.52917" lon="3.30944">
        <ele>113.7</ele>
        <time>2016-08-27T12:38:05.000Z</time>
      </trkpt>
      <trkpt lat="49.52925" lon="3.30943">
        <ele>112.6</ele>
        <time>2016-08-27T12:38:09.000Z</time>
      </trkpt>
      <trkpt lat="49.52927" lon="3.30943">
        <ele>112.5</ele>
        <time>2016-08-27T12:38:10.000Z</time>
      </trkpt>
      <trkpt lat="49.52935" lon="3.30941">
        <ele>113.5</ele>
        <time>2016-08-27T12:38:14.000Z</time>
      </trkpt>
      <trkpt lat="49.52936" lon="3.3094">
        <ele>113.6</ele>
        <time>2016-08-27T12:38:15.000Z</time>
      </trkpt>
      <trkpt lat="49.52943" lon="3.30939">
        <ele>114</ele>
        <time>2016-08-27T12:38:19.000Z</time>
      </trkpt>
      <trkpt lat="49.52945" lon="3.30938">
        <ele>113.9</ele>
        <time>2016-08-27T12:38:20.000Z</time>
      </trkpt>
      <trkpt lat="49.52953" lon="3.30936">
        <ele>114.1</ele>
        <time>2016-08-27T12:38:24.000Z</time>
      </trkpt>
      <trkpt lat="49.52954" lon="3.30936">
        <ele>114.3</ele>
        <time>2016-08-27T12:38:25.000Z</time>
      </trkpt>
      <trkpt lat="49.52963" lon="3.30933">
        <ele>114.6</ele>
        <time>2016-08-27T12:38:31.000Z</time>
      </trkpt>
      <trkpt lat="49.52964" lon="3.30932">
        <ele>114.8</ele>
        <time>2016-08-27T12:38:32.000Z</time>
      </trkpt>
      <trkpt lat="49.52967" lon="3.30931">
        <ele>115.4</ele>
        <time>2016-08-27T12:38:35.000Z</time>
      </trkpt>
      <trkpt lat="49.52968" lon="3.30931">
        <ele>115.2</ele>
        <time>2016-08-27T12:38:36.000Z</time>
      </trkpt>
      <trkpt lat="49.52969" lon="3.30931">
        <ele>114.9</ele>
        <time>2016-08-27T12:38:37.000Z</time>
      </trkpt>
      <trkpt lat="49.52977" lon="3.30929">
        <ele>115.2</ele>
        <time>2016-08-27T12:38:45.000Z</time>
      </trkpt>
      <trkpt lat="49.52978" lon="3.30929">
        <ele>115.3</ele>
        <time>2016-08-27T12:38:46.000Z</time>
      </trkpt>
      <trkpt lat="49.52987" lon="3.30928">
        <ele>116.3</ele>
        <time>2016-08-27T12:38:53.000Z</time>
      </trkpt>
      <trkpt lat="49.52987" lon="3.30928">
        <ele>116.4</ele>
        <time>2016-08-27T12:38:54.000Z</time>
      </trkpt>
      <trkpt lat="49.5299" lon="3.30927">
        <ele>117.3</ele>
        <time>2016-08-27T12:38:58.000Z</time>
      </trkpt>
      <trkpt lat="49.5299" lon="3.30927">
        <ele>117.5</ele>
        <time>2016-08-27T12:38:59.000Z</time>
      </trkpt>
      <trkpt lat="49.52992" lon="3.30926">
        <ele>117.6</ele>
        <time>2016-08-27T12:39:03.000Z</time>
      </trkpt>
      <trkpt lat="49.52996" lon="3.30924">
        <ele>118.2</ele>
        <time>2016-08-27T12:39:04.000Z</time>
      </trkpt>
      <trkpt lat="49.53004" lon="3.3092">
        <ele>119.3</ele>
        <time>2016-08-27T12:39:10.000Z</time>
      </trkpt>
      <trkpt lat="49.53005" lon="3.3092">
        <ele>119.5</ele>
        <time>2016-08-27T12:39:11.000Z</time>
      </trkpt>
      <trkpt lat="49.53013" lon="3.30917">
        <ele>118.9</ele>
        <time>2016-08-27T12:39:16.000Z</time>
      </trkpt>
      <trkpt lat="49.53015" lon="3.30917">
        <ele>118.8</ele>
        <time>2016-08-27T12:39:17.000Z</time>
      </trkpt>
      <trkpt lat="49.53022" lon="3.30914">
        <ele>118.6</ele>
        <time>2016-08-27T12:39:22.000Z</time>
      </trkpt>
      <trkpt lat="49.53024" lon="3.30912">
        <ele>118.5</ele>
        <time>2016-08-27T12:39:23.000Z</time>
      </trkpt>
      <trkpt lat="49.53031" lon="3.30909">
        <ele>118.9</ele>
        <time>2016-08-27T12:39:27.000Z</time>
      </trkpt>
      <trkpt lat="49.53033" lon="3.30908">
        <ele>118.8</ele>
        <time>2016-08-27T12:39:28.000Z</time>
      </trkpt>
      <trkpt lat="49.53041" lon="3.30904">
        <ele>118.9</ele>
        <time>2016-08-27T12:39:34.000Z</time>
      </trkpt>
      <trkpt lat="49.53043" lon="3.30903">
        <ele>118.9</ele>
        <time>2016-08-27T12:39:35.000Z</time>
      </trkpt>
      <trkpt lat="49.5305" lon="3.30901">
        <ele>118.9</ele>
        <time>2016-08-27T12:39:41.000Z</time>
      </trkpt>
      <trkpt lat="49.53051" lon="3.30901">
        <ele>119</ele>
        <time>2016-08-27T12:39:42.000Z</time>
      </trkpt>
      <trkpt lat="49.5306" lon="3.30895">
        <ele>119.4</ele>
        <time>2016-08-27T12:39:48.000Z</time>
      </trkpt>
      <trkpt lat="49.53061" lon="3.30895">
        <ele>119.5</ele>
        <time>2016-08-27T12:39:49.000Z</time>
      </trkpt>
      <trkpt lat="49.53069" lon="3.3089">
        <ele>120.3</ele>
        <time>2016-08-27T12:39:55.000Z</time>
      </trkpt>
      <trkpt lat="49.5307" lon="3.30889">
        <ele>120.3</ele>
        <time>2016-08-27T12:39:56.000Z</time>
      </trkpt>
      <trkpt lat="49.53079" lon="3.30886">
        <ele>120.3</ele>
        <time>2016-08-27T12:40:01.000Z</time>
      </trkpt>
      <trkpt lat="49.5308" lon="3.30885">
        <ele>120.5</ele>
        <time>2016-08-27T12:40:02.000Z</time>
      </trkpt>
      <trkpt lat="49.53082" lon="3.30885">
        <ele>120.6</ele>
        <time>2016-08-27T12:40:03.000Z</time>
      </trkpt>
      <trkpt lat="49.53083" lon="3.30884">
        <ele>120.5</ele>
        <time>2016-08-27T12:40:04.000Z</time>
      </trkpt>
      <trkpt lat="49.53084" lon="3.30883">
        <ele>120.5</ele>
        <time>2016-08-27T12:40:05.000Z</time>
      </trkpt>
      <trkpt lat="49.53091" lon="3.30879">
        <ele>120.9</ele>
        <time>2016-08-27T12:40:11.000Z</time>
      </trkpt>
      <trkpt lat="49.53093" lon="3.30878">
        <ele>120.9</ele>
        <time>2016-08-27T12:40:12.000Z</time>
      </trkpt>
      <trkpt lat="49.53101" lon="3.30873">
        <ele>122.2</ele>
        <time>2016-08-27T12:40:18.000Z</time>
      </trkpt>
      <trkpt lat="49.53102" lon="3.30872">
        <ele>122.3</ele>
        <time>2016-08-27T12:40:19.000Z</time>
      </trkpt>
      <trkpt lat="49.53103" lon="3.30871">
        <ele>122.4</ele>
        <time>2016-08-27T12:40:20.000Z</time>
      </trkpt>
      <trkpt lat="49.53104" lon="3.30871">
        <ele>122.5</ele>
        <time>2016-08-27T12:40:21.000Z</time>
      </trkpt>
      <trkpt lat="49.53105" lon="3.3087">
        <ele>122.6</ele>
        <time>2016-08-27T12:40:22.000Z</time>
      </trkpt>
      <trkpt lat="49.5311" lon="3.30867">
        <ele>122.6</ele>
        <time>2016-08-27T12:40:30.000Z</time>
      </trkpt>
      <trkpt lat="49.53113" lon="3.30865">
        <ele>122.5</ele>
        <time>2016-08-27T12:40:31.000Z</time>
      </trkpt>
      <trkpt lat="49.53116" lon="3.30863">
        <ele>122.8</ele>
        <time>2016-08-27T12:40:33.000Z</time>
      </trkpt>
      <trkpt lat="49.53117" lon="3.30862">
        <ele>122.8</ele>
        <time>2016-08-27T12:40:34.000Z</time>
      </trkpt>
      <trkpt lat="49.53119" lon="3.30862">
        <ele>122.9</ele>
        <time>2016-08-27T12:40:35.000Z</time>
      </trkpt>
      <trkpt lat="49.53127" lon="3.30857">
        <ele>123.3</ele>
        <time>2016-08-27T12:40:41.000Z</time>
      </trkpt>
      <trkpt lat="49.53129" lon="3.30856">
        <ele>123.4</ele>
        <time>2016-08-27T12:40:42.000Z</time>
      </trkpt>
      <trkpt lat="49.53136" lon="3.3085">
        <ele>124.6</ele>
        <time>2016-08-27T12:40:48.000Z</time>
      </trkpt>
      <trkpt lat="49.53136" lon="3.30849">
        <ele>124.5</ele>
        <time>2016-08-27T12:40:49.000Z</time>
      </trkpt>
      <trkpt lat="49.53137" lon="3.30849">
        <ele>124.8</ele>
        <time>2016-08-27T12:40:50.000Z</time>
      </trkpt>
      <trkpt lat="49.53137" lon="3.30849">
        <ele>124.8</ele>
        <time>2016-08-27T12:40:55.000Z</time>
      </trkpt>
      <trkpt lat="49.53142" lon="3.30845">
        <ele>124.7</ele>
        <time>2016-08-27T12:40:56.000Z</time>
      </trkpt>
      <trkpt lat="49.53149" lon="3.30839">
        <ele>124.8</ele>
        <time>2016-08-27T12:41:00.000Z</time>
      </trkpt>
      <trkpt lat="49.53151" lon="3.30838">
        <ele>124.9</ele>
        <time>2016-08-27T12:41:01.000Z</time>
      </trkpt>
      <trkpt lat="49.53158" lon="3.3083">
        <ele>124.6</ele>
        <time>2016-08-27T12:41:06.000Z</time>
      </trkpt>
      <trkpt lat="49.5316" lon="3.3083">
        <ele>124.6</ele>
        <time>2016-08-27T12:41:07.000Z</time>
      </trkpt>
      <trkpt lat="49.53168" lon="3.30828">
        <ele>124.6</ele>
        <time>2016-08-27T12:41:12.000Z</time>
      </trkpt>
      <trkpt lat="49.5317" lon="3.30827">
        <ele>124.7</ele>
        <time>2016-08-27T12:41:13.000Z</time>
      </trkpt>
      <trkpt lat="49.53177" lon="3.30823">
        <ele>124.6</ele>
        <time>2016-08-27T12:41:19.000Z</time>
      </trkpt>
      <trkpt lat="49.53178" lon="3.30821">
        <ele>124.3</ele>
        <time>2016-08-27T12:41:20.000Z</time>
      </trkpt>
      <trkpt lat="49.53183" lon="3.30812">
        <ele>123</ele>
        <time>2016-08-27T12:41:27.000Z</time>
      </trkpt>
      <trkpt lat="49.53184" lon="3.3081">
        <ele>122.8</ele>
        <time>2016-08-27T12:41:28.000Z</time>
      </trkpt>
      <trkpt lat="49.53192" lon="3.30806">
        <ele>122.5</ele>
        <time>2016-08-27T12:41:32.000Z</time>
      </trkpt>
      <trkpt lat="49.53194" lon="3.30805">
        <ele>122.2</ele>
        <time>2016-08-27T12:41:33.000Z</time>
      </trkpt>
      <trkpt lat="49.532" lon="3.30803">
        <ele>120.6</ele>
        <time>2016-08-27T12:41:36.000Z</time>
      </trkpt>
      <trkpt lat="49.53203" lon="3.30802">
        <ele>119.5</ele>
        <time>2016-08-27T12:41:37.000Z</time>
      </trkpt>
      <trkpt lat="49.5321" lon="3.30797">
        <ele>117.2</ele>
        <time>2016-08-27T12:41:40.000Z</time>
      </trkpt>
      <trkpt lat="49.53212" lon="3.30794">
        <ele>116.3</ele>
        <time>2016-08-27T12:41:41.000Z</time>
      </trkpt>
      <trkpt lat="49.53219" lon="3.30787">
        <ele>114.8</ele>
        <time>2016-08-27T12:41:45.000Z</time>
      </trkpt>
      <trkpt lat="49.53219" lon="3.30786">
        <ele>114.9</ele>
        <time>2016-08-27T12:41:46.000Z</time>
      </trkpt>
      <trkpt lat="49.53225" lon="3.30777">
        <ele>114.8</ele>
        <time>2016-08-27T12:41:53.000Z</time>
      </trkpt>
      <trkpt lat="49.53226" lon="3.30776">
        <ele>114.9</ele>
        <time>2016-08-27T12:41:54.000Z</time>
      </trkpt>
      <trkpt lat="49.53233" lon="3.30768">
        <ele>116.3</ele>
        <time>2016-08-27T12:42:00.000Z</time>
      </trkpt>
      <trkpt lat="49.53234" lon="3.30766">
        <ele>116.4</ele>
        <time>2016-08-27T12:42:01.000Z</time>
      </trkpt>
      <trkpt lat="49.53235" lon="3.30765">
        <ele>116.5</ele>
        <time>2016-08-27T12:42:24.000Z</time>
      </trkpt>
      <trkpt lat="49.53242" lon="3.30758">
        <ele>116.8</ele>
        <time>2016-08-27T12:42:25.000Z</time>
      </trkpt>
      <trkpt lat="49.5325" lon="3.30754">
        <ele>117.1</ele>
        <time>2016-08-27T12:42:31.000Z</time>
      </trkpt>
      <trkpt lat="49.53251" lon="3.30753">
        <ele>116.9</ele>
        <time>2016-08-27T12:42:32.000Z</time>
      </trkpt>
      <trkpt lat="49.53259" lon="3.30749">
        <ele>117.6</ele>
        <time>2016-08-27T12:42:39.000Z</time>
      </trkpt>
      <trkpt lat="49.5326" lon="3.30748">
        <ele>117.6</ele>
        <time>2016-08-27T12:42:40.000Z</time>
      </trkpt>
      <trkpt lat="49.53262" lon="3.30745">
        <ele>117.8</ele>
        <time>2016-08-27T12:42:44.000Z</time>
      </trkpt>
      <trkpt lat="49.53263" lon="3.30745">
        <ele>117.6</ele>
        <time>2016-08-27T12:42:45.000Z</time>
      </trkpt>
      <trkpt lat="49.53263" lon="3.30745">
        <ele>117.7</ele>
        <time>2016-08-27T12:42:46.000Z</time>
      </trkpt>
      <trkpt lat="49.5327" lon="3.30736">
        <ele>115.6</ele>
        <time>2016-08-27T12:42:56.000Z</time>
      </trkpt>
      <trkpt lat="49.5327" lon="3.30734">
        <ele>115.3</ele>
        <time>2016-08-27T12:42:57.000Z</time>
      </trkpt>
      <trkpt lat="49.53273" lon="3.30722">
        <ele>115.1</ele>
        <time>2016-08-27T12:43:02.000Z</time>
      </trkpt>
      <trkpt lat="49.53273" lon="3.3072">
        <ele>115</ele>
        <time>2016-08-27T12:43:03.000Z</time>
      </trkpt>
      <trkpt lat="49.53277" lon="3.30709">
        <ele>114.6</ele>
        <time>2016-08-27T12:43:08.000Z</time>
      </trkpt>
      <trkpt lat="49.53277" lon="3.30707">
        <ele>114.4</ele>
        <time>2016-08-27T12:43:09.000Z</time>
      </trkpt>
      <trkpt lat="49.53282" lon="3.30695">
        <ele>115.1</ele>
        <time>2016-08-27T12:43:15.000Z</time>
      </trkpt>
      <trkpt lat="49.53283" lon="3.30694">
        <ele>115.3</ele>
        <time>2016-08-27T12:43:16.000Z</time>
      </trkpt>
      <trkpt lat="49.53287" lon="3.30682">
        <ele>116.2</ele>
        <time>2016-08-27T12:43:23.000Z</time>
      </trkpt>
      <trkpt lat="49.53288" lon="3.30681">
        <ele>116.2</ele>
        <time>2016-08-27T12:43:24.000Z</time>
      </trkpt>
      <trkpt lat="49.5329" lon="3.30674">
        <ele>116.1</ele>
        <time>2016-08-27T12:43:28.000Z</time>
      </trkpt>
      <trkpt lat="49.53291" lon="3.30673">
        <ele>116.1</ele>
        <time>2016-08-27T12:43:29.000Z</time>
      </trkpt>
      <trkpt lat="49.53292" lon="3.30672">
        <ele>116.2</ele>
        <time>2016-08-27T12:43:30.000Z</time>
      </trkpt>
      <trkpt lat="49.53297" lon="3.30662">
        <ele>117.1</ele>
        <time>2016-08-27T12:43:37.000Z</time>
      </trkpt>
      <trkpt lat="49.53298" lon="3.3066">
        <ele>117.3</ele>
        <time>2016-08-27T12:43:38.000Z</time>
      </trkpt>
      <trkpt lat="49.53304" lon="3.30652">
        <ele>117.8</ele>
        <time>2016-08-27T12:43:43.000Z</time>
      </trkpt>
      <trkpt lat="49.53305" lon="3.3065">
        <ele>118</ele>
        <time>2016-08-27T12:43:44.000Z</time>
      </trkpt>
      <trkpt lat="49.53307" lon="3.30645">
        <ele>118.5</ele>
        <time>2016-08-27T12:43:47.000Z</time>
      </trkpt>
      <trkpt lat="49.53308" lon="3.30644">
        <ele>118.8</ele>
        <time>2016-08-27T12:43:48.000Z</time>
      </trkpt>
      <trkpt lat="49.53309" lon="3.30643">
        <ele>119.2</ele>
        <time>2016-08-27T12:43:49.000Z</time>
      </trkpt>
      <trkpt lat="49.5331" lon="3.30641">
        <ele>119</ele>
        <time>2016-08-27T12:43:50.000Z</time>
      </trkpt>
      <trkpt lat="49.53315" lon="3.3063">
        <ele>119.2</ele>
        <time>2016-08-27T12:43:55.000Z</time>
      </trkpt>
      <trkpt lat="49.53316" lon="3.30628">
        <ele>119.3</ele>
        <time>2016-08-27T12:43:56.000Z</time>
      </trkpt>
      <trkpt lat="49.5332" lon="3.30618">
        <ele>120.1</ele>
        <time>2016-08-27T12:44:01.000Z</time>
      </trkpt>
      <trkpt lat="49.53321" lon="3.30617">
        <ele>120.3</ele>
        <time>2016-08-27T12:44:02.000Z</time>
      </trkpt>
      <trkpt lat="49.53327" lon="3.30606">
        <ele>118.6</ele>
        <time>2016-08-27T12:44:08.000Z</time>
      </trkpt>
      <trkpt lat="49.53328" lon="3.30604">
        <ele>117.9</ele>
        <time>2016-08-27T12:44:09.000Z</time>
      </trkpt>
      <trkpt lat="49.53332" lon="3.30593">
        <ele>116.4</ele>
        <time>2016-08-27T12:44:13.000Z</time>
      </trkpt>
      <trkpt lat="49.53333" lon="3.3059">
        <ele>116</ele>
        <time>2016-08-27T12:44:14.000Z</time>
      </trkpt>
      <trkpt lat="49.53338" lon="3.30579">
        <ele>115.1</ele>
        <time>2016-08-27T12:44:20.000Z</time>
      </trkpt>
      <trkpt lat="49.53338" lon="3.30577">
        <ele>115.1</ele>
        <time>2016-08-27T12:44:21.000Z</time>
      </trkpt>
      <trkpt lat="49.53341" lon="3.30565">
        <ele>116.1</ele>
        <time>2016-08-27T12:44:30.000Z</time>
      </trkpt>
      <trkpt lat="49.53341" lon="3.30564">
        <ele>115.9</ele>
        <time>2016-08-27T12:44:31.000Z</time>
      </trkpt>
      <trkpt lat="49.53349" lon="3.30557">
        <ele>116.6</ele>
        <time>2016-08-27T12:44:38.000Z</time>
      </trkpt>
      <trkpt lat="49.53349" lon="3.30556">
        <ele>116.6</ele>
        <time>2016-08-27T12:44:39.000Z</time>
      </trkpt>
      <trkpt lat="49.53355" lon="3.30548">
        <ele>118</ele>
        <time>2016-08-27T12:44:46.000Z</time>
      </trkpt>
      <trkpt lat="49.53357" lon="3.30546">
        <ele>118</ele>
        <time>2016-08-27T12:44:47.000Z</time>
      </trkpt>
      <trkpt lat="49.53361" lon="3.3054">
        <ele>119.7</ele>
        <time>2016-08-27T12:44:51.000Z</time>
      </trkpt>
      <trkpt lat="49.53362" lon="3.30539">
        <ele>119.8</ele>
        <time>2016-08-27T12:44:52.000Z</time>
      </trkpt>
      <trkpt lat="49.53362" lon="3.30538">
        <ele>119.9</ele>
        <time>2016-08-27T12:44:53.000Z</time>
      </trkpt>
      <trkpt lat="49.53363" lon="3.30537">
        <ele>120.1</ele>
        <time>2016-08-27T12:44:54.000Z</time>
      </trkpt>
      <trkpt lat="49.53363" lon="3.30536">
        <ele>120</ele>
        <time>2016-08-27T12:44:55.000Z</time>
      </trkpt>
      <trkpt lat="49.53363" lon="3.30534">
        <ele>119.9</ele>
        <time>2016-08-27T12:44:56.000Z</time>
      </trkpt>
      <trkpt lat="49.53367" lon="3.30523">
        <ele>120.5</ele>
        <time>2016-08-27T12:45:03.000Z</time>
      </trkpt>
      <trkpt lat="49.53369" lon="3.30521">
        <ele>120.5</ele>
        <time>2016-08-27T12:45:04.000Z</time>
      </trkpt>
      <trkpt lat="49.53375" lon="3.30511">
        <ele>121.3</ele>
        <time>2016-08-27T12:45:11.000Z</time>
      </trkpt>
      <trkpt lat="49.53375" lon="3.3051">
        <ele>121.3</ele>
        <time>2016-08-27T12:45:12.000Z</time>
      </trkpt>
      <trkpt lat="49.53381" lon="3.30501">
        <ele>122</ele>
        <time>2016-08-27T12:45:21.000Z</time>
      </trkpt>
      <trkpt lat="49.53384" lon="3.30497">
        <ele>121.9</ele>
        <time>2016-08-27T12:45:22.000Z</time>
      </trkpt>
      <trkpt lat="49.53389" lon="3.30488">
        <ele>119.9</ele>
        <time>2016-08-27T12:45:25.000Z</time>
      </trkpt>
      <trkpt lat="49.53391" lon="3.30485">
        <ele>119.1</ele>
        <time>2016-08-27T12:45:26.000Z</time>
      </trkpt>
      <trkpt lat="49.53396" lon="3.30476">
        <ele>119.2</ele>
        <time>2016-08-27T12:45:31.000Z</time>
      </trkpt>
      <trkpt lat="49.53398" lon="3.30474">
        <ele>118.7</ele>
        <time>2016-08-27T12:45:32.000Z</time>
      </trkpt>
      <trkpt lat="49.53403" lon="3.30464">
        <ele>118.7</ele>
        <time>2016-08-27T12:45:37.000Z</time>
      </trkpt>
      <trkpt lat="49.53404" lon="3.30463">
        <ele>118.8</ele>
        <time>2016-08-27T12:45:38.000Z</time>
      </trkpt>
      <trkpt lat="49.53408" lon="3.30451">
        <ele>117.8</ele>
        <time>2016-08-27T12:45:44.000Z</time>
      </trkpt>
      <trkpt lat="49.53409" lon="3.30449">
        <ele>117.8</ele>
        <time>2016-08-27T12:45:45.000Z</time>
      </trkpt>
      <trkpt lat="49.53413" lon="3.30437">
        <ele>116.6</ele>
        <time>2016-08-27T12:45:50.000Z</time>
      </trkpt>
      <trkpt lat="49.53413" lon="3.30434">
        <ele>116.2</ele>
        <time>2016-08-27T12:45:51.000Z</time>
      </trkpt>
      <trkpt lat="49.53418" lon="3.30422">
        <ele>116.1</ele>
        <time>2016-08-27T12:45:58.000Z</time>
      </trkpt>
      <trkpt lat="49.53419" lon="3.30419">
        <ele>115.7</ele>
        <time>2016-08-27T12:45:59.000Z</time>
      </trkpt>
      <trkpt lat="49.53423" lon="3.30407">
        <ele>115.3</ele>
        <time>2016-08-27T12:46:04.000Z</time>
      </trkpt>
      <trkpt lat="49.53423" lon="3.30406">
        <ele>115.2</ele>
        <time>2016-08-27T12:46:05.000Z</time>
      </trkpt>
      <trkpt lat="49.53428" lon="3.30395">
        <ele>117</ele>
        <time>2016-08-27T12:46:10.000Z</time>
      </trkpt>
      <trkpt lat="49.53429" lon="3.30393">
        <ele>117.3</ele>
        <time>2016-08-27T12:46:11.000Z</time>
      </trkpt>
      <trkpt lat="49.53433" lon="3.30382">
        <ele>118.6</ele>
        <time>2016-08-27T12:46:16.000Z</time>
      </trkpt>
      <trkpt lat="49.53434" lon="3.3038">
        <ele>118.7</ele>
        <time>2016-08-27T12:46:17.000Z</time>
      </trkpt>
      <trkpt lat="49.53438" lon="3.3037">
        <ele>118.7</ele>
        <time>2016-08-27T12:46:22.000Z</time>
      </trkpt>
      <trkpt lat="49.53439" lon="3.30368">
        <ele>118.7</ele>
        <time>2016-08-27T12:46:23.000Z</time>
      </trkpt>
      <trkpt lat="49.53443" lon="3.30358">
        <ele>118.9</ele>
        <time>2016-08-27T12:46:28.000Z</time>
      </trkpt>
      <trkpt lat="49.53443" lon="3.30356">
        <ele>118.9</ele>
        <time>2016-08-27T12:46:29.000Z</time>
      </trkpt>
      <trkpt lat="49.53447" lon="3.30345">
        <ele>118.8</ele>
        <time>2016-08-27T12:46:35.000Z</time>
      </trkpt>
      <trkpt lat="49.53448" lon="3.30342">
        <ele>118.8</ele>
        <time>2016-08-27T12:46:36.000Z</time>
      </trkpt>
      <trkpt lat="49.53452" lon="3.3033">
        <ele>118.9</ele>
        <time>2016-08-27T12:46:42.000Z</time>
      </trkpt>
      <trkpt lat="49.53453" lon="3.30328">
        <ele>118.8</ele>
        <time>2016-08-27T12:46:43.000Z</time>
      </trkpt>
      <trkpt lat="49.53457" lon="3.30318">
        <ele>118.4</ele>
        <time>2016-08-27T12:46:48.000Z</time>
      </trkpt>
      <trkpt lat="49.53458" lon="3.30316">
        <ele>118.5</ele>
        <time>2016-08-27T12:46:49.000Z</time>
      </trkpt>
      <trkpt lat="49.53462" lon="3.30306">
        <ele>118.4</ele>
        <time>2016-08-27T12:46:55.000Z</time>
      </trkpt>
      <trkpt lat="49.53463" lon="3.30303">
        <ele>118.6</ele>
        <time>2016-08-27T12:46:56.000Z</time>
      </trkpt>
      <trkpt lat="49.53466" lon="3.30292">
        <ele>118.5</ele>
        <time>2016-08-27T12:47:01.000Z</time>
      </trkpt>
      <trkpt lat="49.53467" lon="3.3029">
        <ele>118.6</ele>
        <time>2016-08-27T12:47:02.000Z</time>
      </trkpt>
      <trkpt lat="49.5347" lon="3.30279">
        <ele>118.5</ele>
        <time>2016-08-27T12:47:07.000Z</time>
      </trkpt>
      <trkpt lat="49.53471" lon="3.30276">
        <ele>118.6</ele>
        <time>2016-08-27T12:47:08.000Z</time>
      </trkpt>
      <trkpt lat="49.53475" lon="3.30266">
        <ele>117.6</ele>
        <time>2016-08-27T12:47:14.000Z</time>
      </trkpt>
      <trkpt lat="49.53475" lon="3.30264">
        <ele>117.6</ele>
        <time>2016-08-27T12:47:15.000Z</time>
      </trkpt>
      <trkpt lat="49.53479" lon="3.30251">
        <ele>117.9</ele>
        <time>2016-08-27T12:47:21.000Z</time>
      </trkpt>
      <trkpt lat="49.5348" lon="3.30248">
        <ele>117.7</ele>
        <time>2016-08-27T12:47:22.000Z</time>
      </trkpt>
      <trkpt lat="49.53483" lon="3.30238">
        <ele>117.9</ele>
        <time>2016-08-27T12:47:28.000Z</time>
      </trkpt>
      <trkpt lat="49.53483" lon="3.30235">
        <ele>117.9</ele>
        <time>2016-08-27T12:47:29.000Z</time>
      </trkpt>
      <trkpt lat="49.53486" lon="3.30225">
        <ele>118.3</ele>
        <time>2016-08-27T12:47:34.000Z</time>
      </trkpt>
      <trkpt lat="49.53487" lon="3.30223">
        <ele>118.5</ele>
        <time>2016-08-27T12:47:35.000Z</time>
      </trkpt>
      <trkpt lat="49.53491" lon="3.30211">
        <ele>118.3</ele>
        <time>2016-08-27T12:47:41.000Z</time>
      </trkpt>
      <trkpt lat="49.53492" lon="3.30209">
        <ele>118.1</ele>
        <time>2016-08-27T12:47:42.000Z</time>
      </trkpt>
      <trkpt lat="49.53495" lon="3.30198">
        <ele>118.1</ele>
        <time>2016-08-27T12:47:47.000Z</time>
      </trkpt>
      <trkpt lat="49.53495" lon="3.30196">
        <ele>118.2</ele>
        <time>2016-08-27T12:47:48.000Z</time>
      </trkpt>
      <trkpt lat="49.53498" lon="3.30186">
        <ele>118.8</ele>
        <time>2016-08-27T12:47:52.000Z</time>
      </trkpt>
      <trkpt lat="49.53499" lon="3.30183">
        <ele>118.8</ele>
        <time>2016-08-27T12:47:53.000Z</time>
      </trkpt>
      <trkpt lat="49.53502" lon="3.30172">
        <ele>119.2</ele>
        <time>2016-08-27T12:47:57.000Z</time>
      </trkpt>
      <trkpt lat="49.53503" lon="3.3017">
        <ele>119</ele>
        <time>2016-08-27T12:47:58.000Z</time>
      </trkpt>
      <trkpt lat="49.53507" lon="3.30158">
        <ele>118.9</ele>
        <time>2016-08-27T12:48:03.000Z</time>
      </trkpt>
      <trkpt lat="49.53507" lon="3.30156">
        <ele>118.9</ele>
        <time>2016-08-27T12:48:04.000Z</time>
      </trkpt>
      <trkpt lat="49.53511" lon="3.30146">
        <ele>118.8</ele>
        <time>2016-08-27T12:48:09.000Z</time>
      </trkpt>
      <trkpt lat="49.53511" lon="3.30143">
        <ele>118.8</ele>
        <time>2016-08-27T12:48:10.000Z</time>
      </trkpt>
      <trkpt lat="49.53514" lon="3.3013">
        <ele>118.8</ele>
        <time>2016-08-27T12:48:15.000Z</time>
      </trkpt>
      <trkpt lat="49.53515" lon="3.30128">
        <ele>118.7</ele>
        <time>2016-08-27T12:48:16.000Z</time>
      </trkpt>
      <trkpt lat="49.53519" lon="3.30117">
        <ele>119</ele>
        <time>2016-08-27T12:48:22.000Z</time>
      </trkpt>
      <trkpt lat="49.5352" lon="3.30114">
        <ele>119.1</ele>
        <time>2016-08-27T12:48:23.000Z</time>
      </trkpt>
      <trkpt lat="49.53523" lon="3.30104">
        <ele>119.2</ele>
        <time>2016-08-27T12:48:28.000Z</time>
      </trkpt>
      <trkpt lat="49.53524" lon="3.30102">
        <ele>119.2</ele>
        <time>2016-08-27T12:48:29.000Z</time>
      </trkpt>
      <trkpt lat="49.53526" lon="3.3009">
        <ele>119.1</ele>
        <time>2016-08-27T12:48:34.000Z</time>
      </trkpt>
      <trkpt lat="49.53526" lon="3.30087">
        <ele>119.1</ele>
        <time>2016-08-27T12:48:35.000Z</time>
      </trkpt>
      <trkpt lat="49.53527" lon="3.30074">
        <ele>119.7</ele>
        <time>2016-08-27T12:48:40.000Z</time>
      </trkpt>
      <trkpt lat="49.53527" lon="3.30072">
        <ele>119.7</ele>
        <time>2016-08-27T12:48:41.000Z</time>
      </trkpt>
      <trkpt lat="49.5353" lon="3.3006">
        <ele>119.5</ele>
        <time>2016-08-27T12:48:47.000Z</time>
      </trkpt>
      <trkpt lat="49.53531" lon="3.30059">
        <ele>119.5</ele>
        <time>2016-08-27T12:48:48.000Z</time>
      </trkpt>
      <trkpt lat="49.53535" lon="3.30049">
        <ele>119.6</ele>
        <time>2016-08-27T12:48:54.000Z</time>
      </trkpt>
      <trkpt lat="49.53536" lon="3.30047">
        <ele>119.6</ele>
        <time>2016-08-27T12:48:55.000Z</time>
      </trkpt>
      <trkpt lat="49.5354" lon="3.30036">
        <ele>120.3</ele>
        <time>2016-08-27T12:49:01.000Z</time>
      </trkpt>
      <trkpt lat="49.53541" lon="3.30034">
        <ele>120.4</ele>
        <time>2016-08-27T12:49:02.000Z</time>
      </trkpt>
      <trkpt lat="49.53547" lon="3.30026">
        <ele>120.5</ele>
        <time>2016-08-27T12:49:07.000Z</time>
      </trkpt>
      <trkpt lat="49.53548" lon="3.30024">
        <ele>120.6</ele>
        <time>2016-08-27T12:49:08.000Z</time>
      </trkpt>
      <trkpt lat="49.53552" lon="3.30014">
        <ele>120.3</ele>
        <time>2016-08-27T12:49:13.000Z</time>
      </trkpt>
      <trkpt lat="49.53553" lon="3.30011">
        <ele>120.2</ele>
        <time>2016-08-27T12:49:14.000Z</time>
      </trkpt>
      <trkpt lat="49.53557" lon="3.30002">
        <ele>120.5</ele>
        <time>2016-08-27T12:49:18.000Z</time>
      </trkpt>
      <trkpt lat="49.53559" lon="3.29999">
        <ele>120.6</ele>
        <time>2016-08-27T12:49:19.000Z</time>
      </trkpt>
      <trkpt lat="49.53563" lon="3.29988">
        <ele>120.7</ele>
        <time>2016-08-27T12:49:24.000Z</time>
      </trkpt>
      <trkpt lat="49.53564" lon="3.29986">
        <ele>120.6</ele>
        <time>2016-08-27T12:49:25.000Z</time>
      </trkpt>
      <trkpt lat="49.53568" lon="3.29975">
        <ele>120.3</ele>
        <time>2016-08-27T12:49:30.000Z</time>
      </trkpt>
      <trkpt lat="49.53568" lon="3.29973">
        <ele>120.3</ele>
        <time>2016-08-27T12:49:31.000Z</time>
      </trkpt>
      <trkpt lat="49.53572" lon="3.29962">
        <ele>120.2</ele>
        <time>2016-08-27T12:49:36.000Z</time>
      </trkpt>
      <trkpt lat="49.53572" lon="3.2996">
        <ele>120.2</ele>
        <time>2016-08-27T12:49:37.000Z</time>
      </trkpt>
      <trkpt lat="49.53576" lon="3.29949">
        <ele>120.2</ele>
        <time>2016-08-27T12:49:42.000Z</time>
      </trkpt>
      <trkpt lat="49.53577" lon="3.29947">
        <ele>120.3</ele>
        <time>2016-08-27T12:49:43.000Z</time>
      </trkpt>
      <trkpt lat="49.5358" lon="3.29936">
        <ele>120.3</ele>
        <time>2016-08-27T12:49:48.000Z</time>
      </trkpt>
      <trkpt lat="49.5358" lon="3.29934">
        <ele>120.1</ele>
        <time>2016-08-27T12:49:49.000Z</time>
      </trkpt>
      <trkpt lat="49.53583" lon="3.29923">
        <ele>119.6</ele>
        <time>2016-08-27T12:49:54.000Z</time>
      </trkpt>
      <trkpt lat="49.53583" lon="3.2992">
        <ele>119.4</ele>
        <time>2016-08-27T12:49:55.000Z</time>
      </trkpt>
      <trkpt lat="49.53587" lon="3.2991">
        <ele>119.6</ele>
        <time>2016-08-27T12:50:00.000Z</time>
      </trkpt>
      <trkpt lat="49.53588" lon="3.29908">
        <ele>119.6</ele>
        <time>2016-08-27T12:50:01.000Z</time>
      </trkpt>
      <trkpt lat="49.53593" lon="3.29897">
        <ele>119.5</ele>
        <time>2016-08-27T12:50:07.000Z</time>
      </trkpt>
      <trkpt lat="49.53593" lon="3.29894">
        <ele>119.5</ele>
        <time>2016-08-27T12:50:08.000Z</time>
      </trkpt>
      <trkpt lat="49.53597" lon="3.29883">
        <ele>118.7</ele>
        <time>2016-08-27T12:50:14.000Z</time>
      </trkpt>
      <trkpt lat="49.53598" lon="3.29881">
        <ele>118.6</ele>
        <time>2016-08-27T12:50:15.000Z</time>
      </trkpt>
      <trkpt lat="49.53602" lon="3.29869">
        <ele>118</ele>
        <time>2016-08-27T12:50:21.000Z</time>
      </trkpt>
      <trkpt lat="49.53603" lon="3.29868">
        <ele>117.8</ele>
        <time>2016-08-27T12:50:22.000Z</time>
      </trkpt>
      <trkpt lat="49.53606" lon="3.29857">
        <ele>117</ele>
        <time>2016-08-27T12:50:28.000Z</time>
      </trkpt>
      <trkpt lat="49.53607" lon="3.29854">
        <ele>117.2</ele>
        <time>2016-08-27T12:50:29.000Z</time>
      </trkpt>
      <trkpt lat="49.5361" lon="3.29842">
        <ele>117.8</ele>
        <time>2016-08-27T12:50:34.000Z</time>
      </trkpt>
      <trkpt lat="49.53611" lon="3.2984">
        <ele>117.8</ele>
        <time>2016-08-27T12:50:35.000Z</time>
      </trkpt>
      <trkpt lat="49.53613" lon="3.29827">
        <ele>118.2</ele>
        <time>2016-08-27T12:50:40.000Z</time>
      </trkpt>
      <trkpt lat="49.53614" lon="3.29825">
        <ele>118</ele>
        <time>2016-08-27T12:50:41.000Z</time>
      </trkpt>
      <trkpt lat="49.53618" lon="3.29814">
        <ele>117.2</ele>
        <time>2016-08-27T12:50:47.000Z</time>
      </trkpt>
      <trkpt lat="49.53618" lon="3.29812">
        <ele>117.1</ele>
        <time>2016-08-27T12:50:48.000Z</time>
      </trkpt>
      <trkpt lat="49.53621" lon="3.29801">
        <ele>117.3</ele>
        <time>2016-08-27T12:50:53.000Z</time>
      </trkpt>
      <trkpt lat="49.53621" lon="3.29799">
        <ele>117.3</ele>
        <time>2016-08-27T12:50:54.000Z</time>
      </trkpt>
      <trkpt lat="49.53624" lon="3.29787">
        <ele>117.5</ele>
        <time>2016-08-27T12:50:59.000Z</time>
      </trkpt>
      <trkpt lat="49.53625" lon="3.29785">
        <ele>117.4</ele>
        <time>2016-08-27T12:51:00.000Z</time>
      </trkpt>
      <trkpt lat="49.53626" lon="3.29774">
        <ele>117.7</ele>
        <time>2016-08-27T12:51:04.000Z</time>
      </trkpt>
      <trkpt lat="49.53626" lon="3.29771">
        <ele>117.6</ele>
        <time>2016-08-27T12:51:05.000Z</time>
      </trkpt>
      <trkpt lat="49.53629" lon="3.2976">
        <ele>117.8</ele>
        <time>2016-08-27T12:51:10.000Z</time>
      </trkpt>
      <trkpt lat="49.5363" lon="3.29758">
        <ele>117.7</ele>
        <time>2016-08-27T12:51:11.000Z</time>
      </trkpt>
      <trkpt lat="49.53633" lon="3.29747">
        <ele>118.2</ele>
        <time>2016-08-27T12:51:16.000Z</time>
      </trkpt>
      <trkpt lat="49.53634" lon="3.29745">
        <ele>118.2</ele>
        <time>2016-08-27T12:51:17.000Z</time>
      </trkpt>
      <trkpt lat="49.53638" lon="3.29733">
        <ele>119.2</ele>
        <time>2016-08-27T12:51:23.000Z</time>
      </trkpt>
      <trkpt lat="49.53639" lon="3.29731">
        <ele>119.3</ele>
        <time>2016-08-27T12:51:24.000Z</time>
      </trkpt>
      <trkpt lat="49.53642" lon="3.2972">
        <ele>119.8</ele>
        <time>2016-08-27T12:51:29.000Z</time>
      </trkpt>
      <trkpt lat="49.53643" lon="3.29718">
        <ele>119.8</ele>
        <time>2016-08-27T12:51:30.000Z</time>
      </trkpt>
      <trkpt lat="49.53645" lon="3.29706">
        <ele>119.9</ele>
        <time>2016-08-27T12:51:35.000Z</time>
      </trkpt>
      <trkpt lat="49.53645" lon="3.29703">
        <ele>120</ele>
        <time>2016-08-27T12:51:36.000Z</time>
      </trkpt>
      <trkpt lat="49.53645" lon="3.2969">
        <ele>120.3</ele>
        <time>2016-08-27T12:51:41.000Z</time>
      </trkpt>
      <trkpt lat="49.53646" lon="3.29688">
        <ele>120.3</ele>
        <time>2016-08-27T12:51:42.000Z</time>
      </trkpt>
      <trkpt lat="49.53648" lon="3.29677">
        <ele>119.6</ele>
        <time>2016-08-27T12:51:47.000Z</time>
      </trkpt>
      <trkpt lat="49.53649" lon="3.29674">
        <ele>119.5</ele>
        <time>2016-08-27T12:51:48.000Z</time>
      </trkpt>
      <trkpt lat="49.53652" lon="3.29663">
        <ele>119.4</ele>
        <time>2016-08-27T12:51:53.000Z</time>
      </trkpt>
      <trkpt lat="49.53652" lon="3.29661">
        <ele>119.6</ele>
        <time>2016-08-27T12:51:54.000Z</time>
      </trkpt>
      <trkpt lat="49.53656" lon="3.29649">
        <ele>120.1</ele>
        <time>2016-08-27T12:52:00.000Z</time>
      </trkpt>
      <trkpt lat="49.53656" lon="3.29647">
        <ele>120</ele>
        <time>2016-08-27T12:52:01.000Z</time>
      </trkpt>
      <trkpt lat="49.53658" lon="3.29634">
        <ele>120.2</ele>
        <time>2016-08-27T12:52:07.000Z</time>
      </trkpt>
      <trkpt lat="49.53658" lon="3.29633">
        <ele>120.1</ele>
        <time>2016-08-27T12:52:08.000Z</time>
      </trkpt>
      <trkpt lat="49.53658" lon="3.29619">
        <ele>119.6</ele>
        <time>2016-08-27T12:52:15.000Z</time>
      </trkpt>
      <trkpt lat="49.53658" lon="3.29618">
        <ele>119.6</ele>
        <time>2016-08-27T12:52:16.000Z</time>
      </trkpt>
      <trkpt lat="49.5366" lon="3.29605">
        <ele>119.9</ele>
        <time>2016-08-27T12:52:22.000Z</time>
      </trkpt>
      <trkpt lat="49.5366" lon="3.29603">
        <ele>119.9</ele>
        <time>2016-08-27T12:52:23.000Z</time>
      </trkpt>
      <trkpt lat="49.53663" lon="3.29592">
        <ele>119.6</ele>
        <time>2016-08-27T12:52:29.000Z</time>
      </trkpt>
      <trkpt lat="49.53664" lon="3.2959">
        <ele>119.6</ele>
        <time>2016-08-27T12:52:30.000Z</time>
      </trkpt>
      <trkpt lat="49.53668" lon="3.29579">
        <ele>119.2</ele>
        <time>2016-08-27T12:52:37.000Z</time>
      </trkpt>
      <trkpt lat="49.53669" lon="3.29577">
        <ele>119.2</ele>
        <time>2016-08-27T12:52:38.000Z</time>
      </trkpt>
      <trkpt lat="49.53673" lon="3.29566">
        <ele>118.9</ele>
        <time>2016-08-27T12:52:44.000Z</time>
      </trkpt>
      <trkpt lat="49.53674" lon="3.29564">
        <ele>118.8</ele>
        <time>2016-08-27T12:52:45.000Z</time>
      </trkpt>
      <trkpt lat="49.53677" lon="3.29553">
        <ele>118.9</ele>
        <time>2016-08-27T12:52:51.000Z</time>
      </trkpt>
      <trkpt lat="49.53677" lon="3.29551">
        <ele>119</ele>
        <time>2016-08-27T12:52:52.000Z</time>
      </trkpt>
      <trkpt lat="49.53679" lon="3.29539">
        <ele>120.3</ele>
        <time>2016-08-27T12:52:57.000Z</time>
      </trkpt>
      <trkpt lat="49.53679" lon="3.29537">
        <ele>120.4</ele>
        <time>2016-08-27T12:52:58.000Z</time>
      </trkpt>
      <trkpt lat="49.53683" lon="3.29526">
        <ele>120.6</ele>
        <time>2016-08-27T12:53:04.000Z</time>
      </trkpt>
      <trkpt lat="49.53684" lon="3.29525">
        <ele>120.5</ele>
        <time>2016-08-27T12:53:05.000Z</time>
      </trkpt>
      <trkpt lat="49.53688" lon="3.29513">
        <ele>120.4</ele>
        <time>2016-08-27T12:53:12.000Z</time>
      </trkpt>
      <trkpt lat="49.53689" lon="3.29511">
        <ele>120.5</ele>
        <time>2016-08-27T12:53:13.000Z</time>
      </trkpt>
      <trkpt lat="49.53694" lon="3.29502">
        <ele>121.2</ele>
        <time>2016-08-27T12:53:18.000Z</time>
      </trkpt>
      <trkpt lat="49.53695" lon="3.295">
        <ele>121.4</ele>
        <time>2016-08-27T12:53:19.000Z</time>
      </trkpt>
      <trkpt lat="49.537" lon="3.29489">
        <ele>121.4</ele>
        <time>2016-08-27T12:53:25.000Z</time>
      </trkpt>
      <trkpt lat="49.53701" lon="3.29487">
        <ele>121.4</ele>
        <time>2016-08-27T12:53:26.000Z</time>
      </trkpt>
      <trkpt lat="49.53706" lon="3.29477">
        <ele>119.8</ele>
        <time>2016-08-27T12:53:33.000Z</time>
      </trkpt>
      <trkpt lat="49.53707" lon="3.29475">
        <ele>119.5</ele>
        <time>2016-08-27T12:53:34.000Z</time>
      </trkpt>
      <trkpt lat="49.53711" lon="3.29464">
        <ele>119.5</ele>
        <time>2016-08-27T12:53:40.000Z</time>
      </trkpt>
      <trkpt lat="49.53712" lon="3.29462">
        <ele>119.4</ele>
        <time>2016-08-27T12:53:41.000Z</time>
      </trkpt>
      <trkpt lat="49.53717" lon="3.29452">
        <ele>119.5</ele>
        <time>2016-08-27T12:53:46.000Z</time>
      </trkpt>
      <trkpt lat="49.53718" lon="3.2945">
        <ele>119.7</ele>
        <time>2016-08-27T12:53:47.000Z</time>
      </trkpt>
      <trkpt lat="49.53722" lon="3.29439">
        <ele>119.7</ele>
        <time>2016-08-27T12:53:54.000Z</time>
      </trkpt>
      <trkpt lat="49.53723" lon="3.29437">
        <ele>119.6</ele>
        <time>2016-08-27T12:53:55.000Z</time>
      </trkpt>
      <trkpt lat="49.53727" lon="3.29427">
        <ele>119</ele>
        <time>2016-08-27T12:54:00.000Z</time>
      </trkpt>
      <trkpt lat="49.53728" lon="3.29425">
        <ele>119.1</ele>
        <time>2016-08-27T12:54:01.000Z</time>
      </trkpt>
      <trkpt lat="49.53731" lon="3.29414">
        <ele>119.3</ele>
        <time>2016-08-27T12:54:06.000Z</time>
      </trkpt>
      <trkpt lat="49.53732" lon="3.29412">
        <ele>119.3</ele>
        <time>2016-08-27T12:54:07.000Z</time>
      </trkpt>
      <trkpt lat="49.5374" lon="3.29408">
        <ele>119.2</ele>
        <time>2016-08-27T12:54:14.000Z</time>
      </trkpt>
      <trkpt lat="49.53741" lon="3.29409">
        <ele>119.4</ele>
        <time>2016-08-27T12:54:15.000Z</time>
      </trkpt>
      <trkpt lat="49.53747" lon="3.29417">
        <ele>118.9</ele>
        <time>2016-08-27T12:54:22.000Z</time>
      </trkpt>
      <trkpt lat="49.53748" lon="3.29418">
        <ele>119</ele>
        <time>2016-08-27T12:54:23.000Z</time>
      </trkpt>
      <trkpt lat="49.53757" lon="3.29417">
        <ele>120.2</ele>
        <time>2016-08-27T12:54:31.000Z</time>
      </trkpt>
      <trkpt lat="49.53758" lon="3.29416">
        <ele>120.2</ele>
        <time>2016-08-27T12:54:32.000Z</time>
      </trkpt>
      <trkpt lat="49.53765" lon="3.29411">
        <ele>119.6</ele>
        <time>2016-08-27T12:54:44.000Z</time>
      </trkpt>
      <trkpt lat="49.53766" lon="3.2941">
        <ele>119.6</ele>
        <time>2016-08-27T12:54:45.000Z</time>
      </trkpt>
      <trkpt lat="49.53771" lon="3.29398">
        <ele>120.7</ele>
        <time>2016-08-27T12:54:53.000Z</time>
      </trkpt>
      <trkpt lat="49.53771" lon="3.29396">
        <ele>120.7</ele>
        <time>2016-08-27T12:54:54.000Z</time>
      </trkpt>
      <trkpt lat="49.53773" lon="3.29383">
        <ele>120.9</ele>
        <time>2016-08-27T12:55:02.000Z</time>
      </trkpt>
      <trkpt lat="49.53773" lon="3.29382">
        <ele>120.9</ele>
        <time>2016-08-27T12:55:03.000Z</time>
      </trkpt>
      <trkpt lat="49.53777" lon="3.2937">
        <ele>121.6</ele>
        <time>2016-08-27T12:55:10.000Z</time>
      </trkpt>
      <trkpt lat="49.53778" lon="3.29369">
        <ele>121.4</ele>
        <time>2016-08-27T12:55:11.000Z</time>
      </trkpt>
      <trkpt lat="49.53782" lon="3.29358">
        <ele>120.9</ele>
        <time>2016-08-27T12:55:18.000Z</time>
      </trkpt>
      <trkpt lat="49.53783" lon="3.29357">
        <ele>120.9</ele>
        <time>2016-08-27T12:55:19.000Z</time>
      </trkpt>
      <trkpt lat="49.53787" lon="3.29345">
        <ele>121.2</ele>
        <time>2016-08-27T12:55:27.000Z</time>
      </trkpt>
      <trkpt lat="49.53787" lon="3.29343">
        <ele>121.1</ele>
        <time>2016-08-27T12:55:28.000Z</time>
      </trkpt>
      <trkpt lat="49.53788" lon="3.2933">
        <ele>121.8</ele>
        <time>2016-08-27T12:55:31.000Z</time>
      </trkpt>
      <trkpt lat="49.53789" lon="3.29327">
        <ele>121.8</ele>
        <time>2016-08-27T12:55:32.000Z</time>
      </trkpt>
      <trkpt lat="49.53793" lon="3.29317">
        <ele>122</ele>
        <time>2016-08-27T12:55:37.000Z</time>
      </trkpt>
      <trkpt lat="49.53794" lon="3.29315">
        <ele>121.4</ele>
        <time>2016-08-27T12:55:38.000Z</time>
      </trkpt>
      <trkpt lat="49.53801" lon="3.29308">
        <ele>120.3</ele>
        <time>2016-08-27T12:55:43.000Z</time>
      </trkpt>
      <trkpt lat="49.53803" lon="3.29307">
        <ele>120</ele>
        <time>2016-08-27T12:55:44.000Z</time>
      </trkpt>
      <trkpt lat="49.53807" lon="3.29296">
        <ele>119.7</ele>
        <time>2016-08-27T12:55:49.000Z</time>
      </trkpt>
      <trkpt lat="49.53808" lon="3.29294">
        <ele>119.6</ele>
        <time>2016-08-27T12:55:50.000Z</time>
      </trkpt>
      <trkpt lat="49.53812" lon="3.29284">
        <ele>119.7</ele>
        <time>2016-08-27T12:55:55.000Z</time>
      </trkpt>
      <trkpt lat="49.53813" lon="3.29282">
        <ele>119.7</ele>
        <time>2016-08-27T12:55:56.000Z</time>
      </trkpt>
      <trkpt lat="49.53817" lon="3.29271">
        <ele>119.6</ele>
        <time>2016-08-27T12:56:02.000Z</time>
      </trkpt>
      <trkpt lat="49.53817" lon="3.29268">
        <ele>119.7</ele>
        <time>2016-08-27T12:56:03.000Z</time>
      </trkpt>
      <trkpt lat="49.53822" lon="3.29257">
        <ele>119.7</ele>
        <time>2016-08-27T12:56:09.000Z</time>
      </trkpt>
      <trkpt lat="49.53823" lon="3.29255">
        <ele>120</ele>
        <time>2016-08-27T12:56:10.000Z</time>
      </trkpt>
      <trkpt lat="49.53826" lon="3.29244">
        <ele>120.1</ele>
        <time>2016-08-27T12:56:17.000Z</time>
      </trkpt>
      <trkpt lat="49.53827" lon="3.29241">
        <ele>120</ele>
        <time>2016-08-27T12:56:18.000Z</time>
      </trkpt>
      <trkpt lat="49.53832" lon="3.29234">
        <ele>120</ele>
        <time>2016-08-27T12:56:22.000Z</time>
      </trkpt>
      <trkpt lat="49.53834" lon="3.29231">
        <ele>119.7</ele>
        <time>2016-08-27T12:56:23.000Z</time>
      </trkpt>
      <trkpt lat="49.5384" lon="3.29224">
        <ele>119.3</ele>
        <time>2016-08-27T12:56:26.000Z</time>
      </trkpt>
      <trkpt lat="49.53842" lon="3.29221">
        <ele>119.4</ele>
        <time>2016-08-27T12:56:27.000Z</time>
      </trkpt>
      <trkpt lat="49.53847" lon="3.29213">
        <ele>120</ele>
        <time>2016-08-27T12:56:31.000Z</time>
      </trkpt>
      <trkpt lat="49.53848" lon="3.29211">
        <ele>119.9</ele>
        <time>2016-08-27T12:56:32.000Z</time>
      </trkpt>
      <trkpt lat="49.53854" lon="3.29203">
        <ele>120.3</ele>
        <time>2016-08-27T12:56:37.000Z</time>
      </trkpt>
      <trkpt lat="49.53855" lon="3.29202">
        <ele>120.4</ele>
        <time>2016-08-27T12:56:38.000Z</time>
      </trkpt>
      <trkpt lat="49.53861" lon="3.29193">
        <ele>121.3</ele>
        <time>2016-08-27T12:56:44.000Z</time>
      </trkpt>
      <trkpt lat="49.53862" lon="3.29191">
        <ele>121.3</ele>
        <time>2016-08-27T12:56:45.000Z</time>
      </trkpt>
      <trkpt lat="49.53868" lon="3.29181">
        <ele>121.2</ele>
        <time>2016-08-27T12:56:52.000Z</time>
      </trkpt>
      <trkpt lat="49.53868" lon="3.29178">
        <ele>121.1</ele>
        <time>2016-08-27T12:56:53.000Z</time>
      </trkpt>
      <trkpt lat="49.53873" lon="3.29168">
        <ele>120.8</ele>
        <time>2016-08-27T12:56:59.000Z</time>
      </trkpt>
      <trkpt lat="49.53875" lon="3.29166">
        <ele>120.5</ele>
        <time>2016-08-27T12:57:00.000Z</time>
      </trkpt>
      <trkpt lat="49.53881" lon="3.29157">
        <ele>120.1</ele>
        <time>2016-08-27T12:57:05.000Z</time>
      </trkpt>
      <trkpt lat="49.53882" lon="3.29155">
        <ele>120.2</ele>
        <time>2016-08-27T12:57:06.000Z</time>
      </trkpt>
      <trkpt lat="49.53888" lon="3.29147">
        <ele>120.2</ele>
        <time>2016-08-27T12:57:11.000Z</time>
      </trkpt>
      <trkpt lat="49.5389" lon="3.29145">
        <ele>120.3</ele>
        <time>2016-08-27T12:57:12.000Z</time>
      </trkpt>
      <trkpt lat="49.53895" lon="3.29136">
        <ele>120.9</ele>
        <time>2016-08-27T12:57:18.000Z</time>
      </trkpt>
      <trkpt lat="49.53896" lon="3.29134">
        <ele>121</ele>
        <time>2016-08-27T12:57:19.000Z</time>
      </trkpt>
      <trkpt lat="49.53902" lon="3.29125">
        <ele>121.6</ele>
        <time>2016-08-27T12:57:27.000Z</time>
      </trkpt>
      <trkpt lat="49.53903" lon="3.29123">
        <ele>121.6</ele>
        <time>2016-08-27T12:57:28.000Z</time>
      </trkpt>
      <trkpt lat="49.53908" lon="3.29116">
        <ele>121.1</ele>
        <time>2016-08-27T12:57:32.000Z</time>
      </trkpt>
      <trkpt lat="49.5391" lon="3.29114">
        <ele>121.2</ele>
        <time>2016-08-27T12:57:33.000Z</time>
      </trkpt>
      <trkpt lat="49.53916" lon="3.29104">
        <ele>121.6</ele>
        <time>2016-08-27T12:57:39.000Z</time>
      </trkpt>
      <trkpt lat="49.53917" lon="3.29102">
        <ele>121.8</ele>
        <time>2016-08-27T12:57:40.000Z</time>
      </trkpt>
      <trkpt lat="49.53922" lon="3.29093">
        <ele>122.2</ele>
        <time>2016-08-27T12:57:46.000Z</time>
      </trkpt>
      <trkpt lat="49.53924" lon="3.29091">
        <ele>121.2</ele>
        <time>2016-08-27T12:57:47.000Z</time>
      </trkpt>
      <trkpt lat="49.53929" lon="3.29083">
        <ele>120.7</ele>
        <time>2016-08-27T12:57:51.000Z</time>
      </trkpt>
      <trkpt lat="49.53931" lon="3.29081">
        <ele>120.6</ele>
        <time>2016-08-27T12:57:52.000Z</time>
      </trkpt>
      <trkpt lat="49.53938" lon="3.29073">
        <ele>121.7</ele>
        <time>2016-08-27T12:57:58.000Z</time>
      </trkpt>
      <trkpt lat="49.53939" lon="3.29072">
        <ele>121.8</ele>
        <time>2016-08-27T12:57:59.000Z</time>
      </trkpt>
      <trkpt lat="49.53945" lon="3.29063">
        <ele>122.6</ele>
        <time>2016-08-27T12:58:06.000Z</time>
      </trkpt>
      <trkpt lat="49.53946" lon="3.29061">
        <ele>122.6</ele>
        <time>2016-08-27T12:58:07.000Z</time>
      </trkpt>
      <trkpt lat="49.53952" lon="3.29055">
        <ele>122.3</ele>
        <time>2016-08-27T12:58:12.000Z</time>
      </trkpt>
      <trkpt lat="49.53954" lon="3.29054">
        <ele>122.2</ele>
        <time>2016-08-27T12:58:13.000Z</time>
      </trkpt>
      <trkpt lat="49.53961" lon="3.2905">
        <ele>121.6</ele>
        <time>2016-08-27T12:58:17.000Z</time>
      </trkpt>
      <trkpt lat="49.53963" lon="3.29048">
        <ele>121.5</ele>
        <time>2016-08-27T12:58:18.000Z</time>
      </trkpt>
      <trkpt lat="49.53969" lon="3.29039">
        <ele>121.4</ele>
        <time>2016-08-27T12:58:22.000Z</time>
      </trkpt>
      <trkpt lat="49.53971" lon="3.29038">
        <ele>121.4</ele>
        <time>2016-08-27T12:58:23.000Z</time>
      </trkpt>
      <trkpt lat="49.53977" lon="3.2903">
        <ele>121.7</ele>
        <time>2016-08-27T12:58:28.000Z</time>
      </trkpt>
      <trkpt lat="49.53979" lon="3.29029">
        <ele>121.9</ele>
        <time>2016-08-27T12:58:29.000Z</time>
      </trkpt>
      <trkpt lat="49.53985" lon="3.29022">
        <ele>121.7</ele>
        <time>2016-08-27T12:58:34.000Z</time>
      </trkpt>
      <trkpt lat="49.53986" lon="3.2902">
        <ele>121.8</ele>
        <time>2016-08-27T12:58:35.000Z</time>
      </trkpt>
      <trkpt lat="49.53993" lon="3.29013">
        <ele>122</ele>
        <time>2016-08-27T12:58:42.000Z</time>
      </trkpt>
      <trkpt lat="49.53994" lon="3.29012">
        <ele>122.2</ele>
        <time>2016-08-27T12:58:43.000Z</time>
      </trkpt>
      <trkpt lat="49.54001" lon="3.29007">
        <ele>123.5</ele>
        <time>2016-08-27T12:58:49.000Z</time>
      </trkpt>
      <trkpt lat="49.54002" lon="3.29006">
        <ele>123.7</ele>
        <time>2016-08-27T12:58:50.000Z</time>
      </trkpt>
      <trkpt lat="49.54009" lon="3.28998">
        <ele>124.3</ele>
        <time>2016-08-27T12:58:56.000Z</time>
      </trkpt>
      <trkpt lat="49.5401" lon="3.28997">
        <ele>124.4</ele>
        <time>2016-08-27T12:58:57.000Z</time>
      </trkpt>
      <trkpt lat="49.54016" lon="3.28991">
        <ele>123.8</ele>
        <time>2016-08-27T12:59:02.000Z</time>
      </trkpt>
      <trkpt lat="49.54018" lon="3.2899">
        <ele>123.7</ele>
        <time>2016-08-27T12:59:03.000Z</time>
      </trkpt>
      <trkpt lat="49.54026" lon="3.28983">
        <ele>123.9</ele>
        <time>2016-08-27T12:59:10.000Z</time>
      </trkpt>
      <trkpt lat="49.54027" lon="3.28982">
        <ele>123.9</ele>
        <time>2016-08-27T12:59:11.000Z</time>
      </trkpt>
      <trkpt lat="49.54033" lon="3.28977">
        <ele>124.6</ele>
        <time>2016-08-27T12:59:16.000Z</time>
      </trkpt>
      <trkpt lat="49.54035" lon="3.28976">
        <ele>124.6</ele>
        <time>2016-08-27T12:59:17.000Z</time>
      </trkpt>
      <trkpt lat="49.54042" lon="3.2897">
        <ele>124.7</ele>
        <time>2016-08-27T12:59:22.000Z</time>
      </trkpt>
      <trkpt lat="49.54044" lon="3.28969">
        <ele>124.4</ele>
        <time>2016-08-27T12:59:23.000Z</time>
      </trkpt>
      <trkpt lat="49.54051" lon="3.28962">
        <ele>124.4</ele>
        <time>2016-08-27T12:59:28.000Z</time>
      </trkpt>
      <trkpt lat="49.54052" lon="3.28961">
        <ele>124.4</ele>
        <time>2016-08-27T12:59:29.000Z</time>
      </trkpt>
      <trkpt lat="49.5406" lon="3.28955">
        <ele>125</ele>
        <time>2016-08-27T12:59:36.000Z</time>
      </trkpt>
      <trkpt lat="49.54062" lon="3.28954">
        <ele>125.2</ele>
        <time>2016-08-27T12:59:37.000Z</time>
      </trkpt>
      <trkpt lat="49.54068" lon="3.28949">
        <ele>125.9</ele>
        <time>2016-08-27T12:59:41.000Z</time>
      </trkpt>
      <trkpt lat="49.5407" lon="3.28948">
        <ele>125.8</ele>
        <time>2016-08-27T12:59:42.000Z</time>
      </trkpt>
      <trkpt lat="49.54077" lon="3.28944">
        <ele>125.6</ele>
        <time>2016-08-27T12:59:46.000Z</time>
      </trkpt>
      <trkpt lat="49.54079" lon="3.28943">
        <ele>125.4</ele>
        <time>2016-08-27T12:59:47.000Z</time>
      </trkpt>
      <trkpt lat="49.54088" lon="3.28937">
        <ele>125.5</ele>
        <time>2016-08-27T12:59:52.000Z</time>
      </trkpt>
      <trkpt lat="49.54089" lon="3.28936">
        <ele>125.6</ele>
        <time>2016-08-27T12:59:53.000Z</time>
      </trkpt>
      <trkpt lat="49.54097" lon="3.28932">
        <ele>125.5</ele>
        <time>2016-08-27T12:59:58.000Z</time>
      </trkpt>
      <trkpt lat="49.54098" lon="3.28931">
        <ele>125.6</ele>
        <time>2016-08-27T12:59:59.000Z</time>
      </trkpt>
      <trkpt lat="49.54106" lon="3.28926">
        <ele>125.7</ele>
        <time>2016-08-27T13:00:04.000Z</time>
      </trkpt>
      <trkpt lat="49.54107" lon="3.28925">
        <ele>125.7</ele>
        <time>2016-08-27T13:00:05.000Z</time>
      </trkpt>
      <trkpt lat="49.54115" lon="3.28919">
        <ele>125.6</ele>
        <time>2016-08-27T13:00:11.000Z</time>
      </trkpt>
      <trkpt lat="49.54116" lon="3.28918">
        <ele>125.7</ele>
        <time>2016-08-27T13:00:12.000Z</time>
      </trkpt>
      <trkpt lat="49.54123" lon="3.28913">
        <ele>125</ele>
        <time>2016-08-27T13:00:17.000Z</time>
      </trkpt>
      <trkpt lat="49.54125" lon="3.28912">
        <ele>125</ele>
        <time>2016-08-27T13:00:18.000Z</time>
      </trkpt>
      <trkpt lat="49.54132" lon="3.28907">
        <ele>125</ele>
        <time>2016-08-27T13:00:23.000Z</time>
      </trkpt>
      <trkpt lat="49.54133" lon="3.28906">
        <ele>125</ele>
        <time>2016-08-27T13:00:24.000Z</time>
      </trkpt>
      <trkpt lat="49.54142" lon="3.28901">
        <ele>125.3</ele>
        <time>2016-08-27T13:00:30.000Z</time>
      </trkpt>
      <trkpt lat="49.54143" lon="3.289">
        <ele>125.3</ele>
        <time>2016-08-27T13:00:31.000Z</time>
      </trkpt>
      <trkpt lat="49.54151" lon="3.28894">
        <ele>125.8</ele>
        <time>2016-08-27T13:00:37.000Z</time>
      </trkpt>
      <trkpt lat="49.54152" lon="3.28893">
        <ele>125.9</ele>
        <time>2016-08-27T13:00:38.000Z</time>
      </trkpt>
      <trkpt lat="49.5416" lon="3.28889">
        <ele>126.3</ele>
        <time>2016-08-27T13:00:43.000Z</time>
      </trkpt>
      <trkpt lat="49.54162" lon="3.28888">
        <ele>126.5</ele>
        <time>2016-08-27T13:00:44.000Z</time>
      </trkpt>
      <trkpt lat="49.54169" lon="3.28884">
        <ele>126.9</ele>
        <time>2016-08-27T13:00:49.000Z</time>
      </trkpt>
      <trkpt lat="49.5417" lon="3.28883">
        <ele>127.2</ele>
        <time>2016-08-27T13:00:50.000Z</time>
      </trkpt>
      <trkpt lat="49.54177" lon="3.28879">
        <ele>127.4</ele>
        <time>2016-08-27T13:00:55.000Z</time>
      </trkpt>
      <trkpt lat="49.54179" lon="3.28878">
        <ele>127.6</ele>
        <time>2016-08-27T13:00:56.000Z</time>
      </trkpt>
      <trkpt lat="49.54186" lon="3.28874">
        <ele>127.5</ele>
        <time>2016-08-27T13:01:01.000Z</time>
      </trkpt>
      <trkpt lat="49.54188" lon="3.28874">
        <ele>127.5</ele>
        <time>2016-08-27T13:01:02.000Z</time>
      </trkpt>
      <trkpt lat="49.54195" lon="3.28869">
        <ele>127.6</ele>
        <time>2016-08-27T13:01:07.000Z</time>
      </trkpt>
      <trkpt lat="49.54197" lon="3.28868">
        <ele>127.6</ele>
        <time>2016-08-27T13:01:08.000Z</time>
      </trkpt>
      <trkpt lat="49.54205" lon="3.28862">
        <ele>128.4</ele>
        <time>2016-08-27T13:01:13.000Z</time>
      </trkpt>
      <trkpt lat="49.54206" lon="3.28861">
        <ele>128.4</ele>
        <time>2016-08-27T13:01:14.000Z</time>
      </trkpt>
      <trkpt lat="49.54213" lon="3.28857">
        <ele>127.7</ele>
        <time>2016-08-27T13:01:24.000Z</time>
      </trkpt>
      <trkpt lat="49.54214" lon="3.28856">
        <ele>127.7</ele>
        <time>2016-08-27T13:01:25.000Z</time>
      </trkpt>
      <trkpt lat="49.54221" lon="3.28851">
        <ele>127.8</ele>
        <time>2016-08-27T13:01:31.000Z</time>
      </trkpt>
      <trkpt lat="49.54222" lon="3.2885">
        <ele>128</ele>
        <time>2016-08-27T13:01:32.000Z</time>
      </trkpt>
      <trkpt lat="49.5423" lon="3.28844">
        <ele>128.5</ele>
        <time>2016-08-27T13:01:38.000Z</time>
      </trkpt>
      <trkpt lat="49.54231" lon="3.28842">
        <ele>128.6</ele>
        <time>2016-08-27T13:01:39.000Z</time>
      </trkpt>
      <trkpt lat="49.54239" lon="3.28835">
        <ele>129.3</ele>
        <time>2016-08-27T13:01:44.000Z</time>
      </trkpt>
      <trkpt lat="49.5424" lon="3.28834">
        <ele>129.4</ele>
        <time>2016-08-27T13:01:45.000Z</time>
      </trkpt>
      <trkpt lat="49.54248" lon="3.28829">
        <ele>130</ele>
        <time>2016-08-27T13:01:50.000Z</time>
      </trkpt>
      <trkpt lat="49.54249" lon="3.28828">
        <ele>130</ele>
        <time>2016-08-27T13:01:51.000Z</time>
      </trkpt>
      <trkpt lat="49.54257" lon="3.28823">
        <ele>129.8</ele>
        <time>2016-08-27T13:01:56.000Z</time>
      </trkpt>
      <trkpt lat="49.54258" lon="3.28822">
        <ele>130</ele>
        <time>2016-08-27T13:01:57.000Z</time>
      </trkpt>
      <trkpt lat="49.54266" lon="3.28815">
        <ele>130.7</ele>
        <time>2016-08-27T13:02:03.000Z</time>
      </trkpt>
      <trkpt lat="49.54267" lon="3.28814">
        <ele>130.9</ele>
        <time>2016-08-27T13:02:04.000Z</time>
      </trkpt>
      <trkpt lat="49.54273" lon="3.28807">
        <ele>131.5</ele>
        <time>2016-08-27T13:02:12.000Z</time>
      </trkpt>
      <trkpt lat="49.54274" lon="3.28807">
        <ele>131.6</ele>
        <time>2016-08-27T13:02:13.000Z</time>
      </trkpt>
      <trkpt lat="49.54282" lon="3.28802">
        <ele>132.4</ele>
        <time>2016-08-27T13:02:18.000Z</time>
      </trkpt>
      <trkpt lat="49.54284" lon="3.28801">
        <ele>132.5</ele>
        <time>2016-08-27T13:02:19.000Z</time>
      </trkpt>
      <trkpt lat="49.54292" lon="3.28796">
        <ele>132.6</ele>
        <time>2016-08-27T13:02:24.000Z</time>
      </trkpt>
      <trkpt lat="49.54293" lon="3.28796">
        <ele>132.7</ele>
        <time>2016-08-27T13:02:25.000Z</time>
      </trkpt>
      <trkpt lat="49.543" lon="3.28791">
        <ele>132.7</ele>
        <time>2016-08-27T13:02:30.000Z</time>
      </trkpt>
      <trkpt lat="49.54301" lon="3.2879">
        <ele>132.6</ele>
        <time>2016-08-27T13:02:31.000Z</time>
      </trkpt>
      <trkpt lat="49.54309" lon="3.28787">
        <ele>132.8</ele>
        <time>2016-08-27T13:02:37.000Z</time>
      </trkpt>
      <trkpt lat="49.54311" lon="3.28786">
        <ele>132.9</ele>
        <time>2016-08-27T13:02:38.000Z</time>
      </trkpt>
      <trkpt lat="49.54319" lon="3.28784">
        <ele>132.9</ele>
        <time>2016-08-27T13:02:43.000Z</time>
      </trkpt>
      <trkpt lat="49.54321" lon="3.28784">
        <ele>132.8</ele>
        <time>2016-08-27T13:02:44.000Z</time>
      </trkpt>
      <trkpt lat="49.54328" lon="3.2878">
        <ele>133.3</ele>
        <time>2016-08-27T13:02:50.000Z</time>
      </trkpt>
      <trkpt lat="49.54329" lon="3.2878">
        <ele>133.3</ele>
        <time>2016-08-27T13:02:51.000Z</time>
      </trkpt>
      <trkpt lat="49.54338" lon="3.28776">
        <ele>133.8</ele>
        <time>2016-08-27T13:02:57.000Z</time>
      </trkpt>
      <trkpt lat="49.54339" lon="3.28775">
        <ele>133.9</ele>
        <time>2016-08-27T13:02:58.000Z</time>
      </trkpt>
      <trkpt lat="49.54346" lon="3.28769">
        <ele>134.9</ele>
        <time>2016-08-27T13:03:06.000Z</time>
      </trkpt>
      <trkpt lat="49.54347" lon="3.28769">
        <ele>134.9</ele>
        <time>2016-08-27T13:03:07.000Z</time>
      </trkpt>
      <trkpt lat="49.54356" lon="3.28766">
        <ele>135.8</ele>
        <time>2016-08-27T13:03:13.000Z</time>
      </trkpt>
      <trkpt lat="49.54357" lon="3.28766">
        <ele>135.9</ele>
        <time>2016-08-27T13:03:14.000Z</time>
      </trkpt>
      <trkpt lat="49.54366" lon="3.28764">
        <ele>136.4</ele>
        <time>2016-08-27T13:03:19.000Z</time>
      </trkpt>
      <trkpt lat="49.54368" lon="3.28764">
        <ele>136.4</ele>
        <time>2016-08-27T13:03:20.000Z</time>
      </trkpt>
      <trkpt lat="49.54375" lon="3.28762">
        <ele>136.9</ele>
        <time>2016-08-27T13:03:24.000Z</time>
      </trkpt>
      <trkpt lat="49.54377" lon="3.28762">
        <ele>137</ele>
        <time>2016-08-27T13:03:25.000Z</time>
      </trkpt>
      <trkpt lat="49.54386" lon="3.28759">
        <ele>136.9</ele>
        <time>2016-08-27T13:03:32.000Z</time>
      </trkpt>
      <trkpt lat="49.54387" lon="3.28758">
        <ele>137.1</ele>
        <time>2016-08-27T13:03:33.000Z</time>
      </trkpt>
      <trkpt lat="49.54389" lon="3.28757">
        <ele>137.1</ele>
        <time>2016-08-27T13:03:34.000Z</time>
      </trkpt>
      <trkpt lat="49.5439" lon="3.28757">
        <ele>137.2</ele>
        <time>2016-08-27T13:03:35.000Z</time>
      </trkpt>
      <trkpt lat="49.54391" lon="3.28756">
        <ele>137.4</ele>
        <time>2016-08-27T13:03:36.000Z</time>
      </trkpt>
      <trkpt lat="49.54391" lon="3.28756">
        <ele>137.5</ele>
        <time>2016-08-27T13:03:37.000Z</time>
      </trkpt>
      <trkpt lat="49.54393" lon="3.28755">
        <ele>137.5</ele>
        <time>2016-08-27T13:03:39.000Z</time>
      </trkpt>
      <trkpt lat="49.54394" lon="3.28755">
        <ele>137.4</ele>
        <time>2016-08-27T13:03:40.000Z</time>
      </trkpt>
      <trkpt lat="49.54401" lon="3.28749">
        <ele>137</ele>
        <time>2016-08-27T13:03:48.000Z</time>
      </trkpt>
      <trkpt lat="49.54402" lon="3.28748">
        <ele>136.9</ele>
        <time>2016-08-27T13:03:49.000Z</time>
      </trkpt>
      <trkpt lat="49.5441" lon="3.28746">
        <ele>137</ele>
        <time>2016-08-27T13:03:58.000Z</time>
      </trkpt>
      <trkpt lat="49.5441" lon="3.28746">
        <ele>137.2</ele>
        <time>2016-08-27T13:03:59.000Z</time>
      </trkpt>
      <trkpt lat="49.54411" lon="3.28746">
        <ele>137.3</ele>
        <time>2016-08-27T13:04:02.000Z</time>
      </trkpt>
      <trkpt lat="49.54414" lon="3.28744">
        <ele>137.7</ele>
        <time>2016-08-27T13:04:03.000Z</time>
      </trkpt>
      <trkpt lat="49.5442" lon="3.28735">
        <ele>138</ele>
        <time>2016-08-27T13:04:12.000Z</time>
      </trkpt>
      <trkpt lat="49.54421" lon="3.28734">
        <ele>137.9</ele>
        <time>2016-08-27T13:04:13.000Z</time>
      </trkpt>
      <trkpt lat="49.54428" lon="3.28732">
        <ele>137.9</ele>
        <time>2016-08-27T13:04:19.000Z</time>
      </trkpt>
      <trkpt lat="49.5443" lon="3.28733">
        <ele>138.1</ele>
        <time>2016-08-27T13:04:20.000Z</time>
      </trkpt>
      <trkpt lat="49.54438" lon="3.28736">
        <ele>138.2</ele>
        <time>2016-08-27T13:04:23.000Z</time>
      </trkpt>
      <trkpt lat="49.54441" lon="3.28736">
        <ele>137.9</ele>
        <time>2016-08-27T13:04:24.000Z</time>
      </trkpt>
      <trkpt lat="49.54448" lon="3.28737">
        <ele>137.6</ele>
        <time>2016-08-27T13:04:27.000Z</time>
      </trkpt>
      <trkpt lat="49.5445" lon="3.28737">
        <ele>137.4</ele>
        <time>2016-08-27T13:04:28.000Z</time>
      </trkpt>
      <trkpt lat="49.54458" lon="3.28739">
        <ele>138.3</ele>
        <time>2016-08-27T13:04:36.000Z</time>
      </trkpt>
      <trkpt lat="49.54464" lon="3.28739">
        <ele>138.4</ele>
        <time>2016-08-27T13:04:37.000Z</time>
      </trkpt>
      <trkpt lat="49.54467" lon="3.28739">
        <ele>138.6</ele>
        <time>2016-08-27T13:04:39.000Z</time>
      </trkpt>
      <trkpt lat="49.54469" lon="3.2874">
        <ele>138.7</ele>
        <time>2016-08-27T13:04:40.000Z</time>
      </trkpt>
      <trkpt lat="49.54471" lon="3.2874">
        <ele>138.5</ele>
        <time>2016-08-27T13:04:41.000Z</time>
      </trkpt>
      <trkpt lat="49.54473" lon="3.28741">
        <ele>138.3</ele>
        <time>2016-08-27T13:04:42.000Z</time>
      </trkpt>
      <trkpt lat="49.54474" lon="3.28741">
        <ele>138.2</ele>
        <time>2016-08-27T13:04:43.000Z</time>
      </trkpt>
      <trkpt lat="49.54474" lon="3.28741">
        <ele>138.2</ele>
        <time>2016-08-27T13:04:44.000Z</time>
      </trkpt>
      <trkpt lat="49.54476" lon="3.28742">
        <ele>138.2</ele>
        <time>2016-08-27T13:04:45.000Z</time>
      </trkpt>
      <trkpt lat="49.54483" lon="3.28743">
        <ele>137.3</ele>
        <time>2016-08-27T13:04:48.000Z</time>
      </trkpt>
      <trkpt lat="49.54485" lon="3.28744">
        <ele>137.3</ele>
        <time>2016-08-27T13:04:49.000Z</time>
      </trkpt>
      <trkpt lat="49.54486" lon="3.28744">
        <ele>137.5</ele>
        <time>2016-08-27T13:04:50.000Z</time>
      </trkpt>
      <trkpt lat="49.54487" lon="3.28744">
        <ele>137.6</ele>
        <time>2016-08-27T13:04:51.000Z</time>
      </trkpt>
      <trkpt lat="49.54488" lon="3.28744">
        <ele>137.7</ele>
        <time>2016-08-27T13:04:52.000Z</time>
      </trkpt>
      <trkpt lat="49.54497" lon="3.28744">
        <ele>137.4</ele>
        <time>2016-08-27T13:04:56.000Z</time>
      </trkpt>
      <trkpt lat="49.54498" lon="3.28744">
        <ele>137.2</ele>
        <time>2016-08-27T13:04:57.000Z</time>
      </trkpt>
      <trkpt lat="49.54506" lon="3.28743">
        <ele>137.5</ele>
        <time>2016-08-27T13:05:02.000Z</time>
      </trkpt>
      <trkpt lat="49.54508" lon="3.28743">
        <ele>137.5</ele>
        <time>2016-08-27T13:05:03.000Z</time>
      </trkpt>
      <trkpt lat="49.54515" lon="3.28742">
        <ele>137.5</ele>
        <time>2016-08-27T13:05:06.000Z</time>
      </trkpt>
      <trkpt lat="49.54518" lon="3.28742">
        <ele>137.5</ele>
        <time>2016-08-27T13:05:07.000Z</time>
      </trkpt>
      <trkpt lat="49.54526" lon="3.28739">
        <ele>137.7</ele>
        <time>2016-08-27T13:05:11.000Z</time>
      </trkpt>
      <trkpt lat="49.54528" lon="3.28739">
        <ele>137.5</ele>
        <time>2016-08-27T13:05:12.000Z</time>
      </trkpt>
      <trkpt lat="49.54537" lon="3.28742">
        <ele>137.1</ele>
        <time>2016-08-27T13:05:17.000Z</time>
      </trkpt>
      <trkpt lat="49.54538" lon="3.28742">
        <ele>137.1</ele>
        <time>2016-08-27T13:05:18.000Z</time>
      </trkpt>
      <trkpt lat="49.54538" lon="3.28742">
        <ele>137.1</ele>
        <time>2016-08-27T13:05:20.000Z</time>
      </trkpt>
      <trkpt lat="49.54575" lon="3.2873">
        <ele>137.8</ele>
        <time>2016-08-27T13:05:50.000Z</time>
      </trkpt>
      <trkpt lat="49.5458" lon="3.28734">
        <ele>137.2</ele>
        <time>2016-08-27T13:05:51.000Z</time>
      </trkpt>
      <trkpt lat="49.54584" lon="3.28737">
        <ele>135</ele>
        <time>2016-08-27T13:05:52.000Z</time>
      </trkpt>
      <trkpt lat="49.5459" lon="3.28742">
        <ele>132.3</ele>
        <time>2016-08-27T13:05:53.000Z</time>
      </trkpt>
      <trkpt lat="49.54595" lon="3.28742">
        <ele>130.7</ele>
        <time>2016-08-27T13:05:54.000Z</time>
      </trkpt>
      <trkpt lat="49.54603" lon="3.28741">
        <ele>128.4</ele>
        <time>2016-08-27T13:05:58.000Z</time>
      </trkpt>
      <trkpt lat="49.54605" lon="3.28741">
        <ele>128</ele>
        <time>2016-08-27T13:05:59.000Z</time>
      </trkpt>
      <trkpt lat="49.54614" lon="3.28741">
        <ele>124.3</ele>
        <time>2016-08-27T13:06:03.000Z</time>
      </trkpt>
      <trkpt lat="49.54615" lon="3.28741">
        <ele>122.6</ele>
        <time>2016-08-27T13:06:04.000Z</time>
      </trkpt>
      <trkpt lat="49.54622" lon="3.28739">
        <ele>116</ele>
        <time>2016-08-27T13:06:12.000Z</time>
      </trkpt>
      <trkpt lat="49.54625" lon="3.28741">
        <ele>115.6</ele>
        <time>2016-08-27T13:06:13.000Z</time>
      </trkpt>
      <trkpt lat="49.54634" lon="3.28742">
        <ele>117.4</ele>
        <time>2016-08-27T13:06:18.000Z</time>
      </trkpt>
      <trkpt lat="49.54636" lon="3.28742">
        <ele>117.5</ele>
        <time>2016-08-27T13:06:19.000Z</time>
      </trkpt>
      <trkpt lat="49.54638" lon="3.28741">
        <ele>118.4</ele>
        <time>2016-08-27T13:06:21.000Z</time>
      </trkpt>
      <trkpt lat="49.54639" lon="3.28741">
        <ele>118.5</ele>
        <time>2016-08-27T13:06:22.000Z</time>
      </trkpt>
      <trkpt lat="49.54641" lon="3.28742">
        <ele>119.3</ele>
        <time>2016-08-27T13:06:27.000Z</time>
      </trkpt>
      <trkpt lat="49.54646" lon="3.28741">
        <ele>121.1</ele>
        <time>2016-08-27T13:06:28.000Z</time>
      </trkpt>
      <trkpt lat="49.54655" lon="3.2874">
        <ele>128.5</ele>
        <time>2016-08-27T13:06:33.000Z</time>
      </trkpt>
      <trkpt lat="49.54656" lon="3.2874">
        <ele>130</ele>
        <time>2016-08-27T13:06:34.000Z</time>
      </trkpt>
      <trkpt lat="49.54664" lon="3.28738">
        <ele>134.6</ele>
        <time>2016-08-27T13:06:44.000Z</time>
      </trkpt>
      <trkpt lat="49.54665" lon="3.28738">
        <ele>134.7</ele>
        <time>2016-08-27T13:06:45.000Z</time>
      </trkpt>
      <trkpt lat="49.54672" lon="3.28738">
        <ele>135.9</ele>
        <time>2016-08-27T13:06:50.000Z</time>
      </trkpt>
      <trkpt lat="49.54674" lon="3.28739">
        <ele>136.4</ele>
        <time>2016-08-27T13:06:51.000Z</time>
      </trkpt>
      <trkpt lat="49.54683" lon="3.2874">
        <ele>135.9</ele>
        <time>2016-08-27T13:06:56.000Z</time>
      </trkpt>
      <trkpt lat="49.54686" lon="3.28741">
        <ele>136.2</ele>
        <time>2016-08-27T13:06:57.000Z</time>
      </trkpt>
      <trkpt lat="49.54694" lon="3.28744">
        <ele>136.4</ele>
        <time>2016-08-27T13:07:00.000Z</time>
      </trkpt>
      <trkpt lat="49.54697" lon="3.28745">
        <ele>136</ele>
        <time>2016-08-27T13:07:01.000Z</time>
      </trkpt>
      <trkpt lat="49.54706" lon="3.28746">
        <ele>138</ele>
        <time>2016-08-27T13:07:05.000Z</time>
      </trkpt>
      <trkpt lat="49.54708" lon="3.28745">
        <ele>139.1</ele>
        <time>2016-08-27T13:07:06.000Z</time>
      </trkpt>
      <trkpt lat="49.54715" lon="3.28746">
        <ele>142.1</ele>
        <time>2016-08-27T13:07:11.000Z</time>
      </trkpt>
      <trkpt lat="49.54717" lon="3.28745">
        <ele>142.1</ele>
        <time>2016-08-27T13:07:12.000Z</time>
      </trkpt>
      <trkpt lat="49.54725" lon="3.28746">
        <ele>142.2</ele>
        <time>2016-08-27T13:07:18.000Z</time>
      </trkpt>
      <trkpt lat="49.54727" lon="3.28746">
        <ele>142.3</ele>
        <time>2016-08-27T13:07:19.000Z</time>
      </trkpt>
      <trkpt lat="49.54729" lon="3.28746">
        <ele>143</ele>
        <time>2016-08-27T13:07:22.000Z</time>
      </trkpt>
      <trkpt lat="49.54729" lon="3.28747">
        <ele>142.9</ele>
        <time>2016-08-27T13:07:23.000Z</time>
      </trkpt>
      <trkpt lat="49.54731" lon="3.28748">
        <ele>142.8</ele>
        <time>2016-08-27T13:07:24.000Z</time>
      </trkpt>
      <trkpt lat="49.54732" lon="3.28748">
        <ele>142.8</ele>
        <time>2016-08-27T13:07:25.000Z</time>
      </trkpt>
      <trkpt lat="49.54739" lon="3.28751">
        <ele>143.9</ele>
        <time>2016-08-27T13:07:33.000Z</time>
      </trkpt>
      <trkpt lat="49.54741" lon="3.28751">
        <ele>143.8</ele>
        <time>2016-08-27T13:07:34.000Z</time>
      </trkpt>
      <trkpt lat="49.54742" lon="3.28751">
        <ele>143.5</ele>
        <time>2016-08-27T13:07:35.000Z</time>
      </trkpt>
      <trkpt lat="49.54743" lon="3.28751">
        <ele>143.5</ele>
        <time>2016-08-27T13:07:36.000Z</time>
      </trkpt>
      <trkpt lat="49.54743" lon="3.28752">
        <ele>143.5</ele>
        <time>2016-08-27T13:07:37.000Z</time>
      </trkpt>
      <trkpt lat="49.54751" lon="3.28753">
        <ele>143.4</ele>
        <time>2016-08-27T13:07:43.000Z</time>
      </trkpt>
      <trkpt lat="49.54753" lon="3.28752">
        <ele>143.4</ele>
        <time>2016-08-27T13:07:44.000Z</time>
      </trkpt>
      <trkpt lat="49.54762" lon="3.28753">
        <ele>143.2</ele>
        <time>2016-08-27T13:07:48.000Z</time>
      </trkpt>
      <trkpt lat="49.54763" lon="3.28753">
        <ele>143.4</ele>
        <time>2016-08-27T13:07:49.000Z</time>
      </trkpt>
      <trkpt lat="49.5477" lon="3.28755">
        <ele>143.2</ele>
        <time>2016-08-27T13:07:52.000Z</time>
      </trkpt>
      <trkpt lat="49.54773" lon="3.28756">
        <ele>143.4</ele>
        <time>2016-08-27T13:07:53.000Z</time>
      </trkpt>
      <trkpt lat="49.5478" lon="3.28758">
        <ele>143.8</ele>
        <time>2016-08-27T13:07:56.000Z</time>
      </trkpt>
      <trkpt lat="49.54782" lon="3.28758">
        <ele>144.4</ele>
        <time>2016-08-27T13:07:57.000Z</time>
      </trkpt>
      <trkpt lat="49.54789" lon="3.28758">
        <ele>145.5</ele>
        <time>2016-08-27T13:08:02.000Z</time>
      </trkpt>
      <trkpt lat="49.5479" lon="3.28759">
        <ele>145.8</ele>
        <time>2016-08-27T13:08:03.000Z</time>
      </trkpt>
      <trkpt lat="49.54791" lon="3.2876">
        <ele>145.9</ele>
        <time>2016-08-27T13:08:04.000Z</time>
      </trkpt>
      <trkpt lat="49.54799" lon="3.28762">
        <ele>146.6</ele>
        <time>2016-08-27T13:08:12.000Z</time>
      </trkpt>
      <trkpt lat="49.548" lon="3.28763">
        <ele>146.6</ele>
        <time>2016-08-27T13:08:13.000Z</time>
      </trkpt>
      <trkpt lat="49.54808" lon="3.28766">
        <ele>146.5</ele>
        <time>2016-08-27T13:08:19.000Z</time>
      </trkpt>
      <trkpt lat="49.54811" lon="3.28767">
        <ele>146.3</ele>
        <time>2016-08-27T13:08:20.000Z</time>
      </trkpt>
      <trkpt lat="49.54819" lon="3.28769">
        <ele>146.5</ele>
        <time>2016-08-27T13:08:24.000Z</time>
      </trkpt>
      <trkpt lat="49.54821" lon="3.2877">
        <ele>146.5</ele>
        <time>2016-08-27T13:08:25.000Z</time>
      </trkpt>
      <trkpt lat="49.54829" lon="3.2877">
        <ele>146.4</ele>
        <time>2016-08-27T13:08:32.000Z</time>
      </trkpt>
      <trkpt lat="49.5483" lon="3.28769">
        <ele>146.4</ele>
        <time>2016-08-27T13:08:33.000Z</time>
      </trkpt>
      <trkpt lat="49.54838" lon="3.28773">
        <ele>145.4</ele>
        <time>2016-08-27T13:08:39.000Z</time>
      </trkpt>
      <trkpt lat="49.54841" lon="3.28774">
        <ele>144.9</ele>
        <time>2016-08-27T13:08:40.000Z</time>
      </trkpt>
      <trkpt lat="49.54848" lon="3.28779">
        <ele>143.4</ele>
        <time>2016-08-27T13:08:48.000Z</time>
      </trkpt>
      <trkpt lat="49.54849" lon="3.2878">
        <ele>143.1</ele>
        <time>2016-08-27T13:08:49.000Z</time>
      </trkpt>
      <trkpt lat="49.54856" lon="3.28783">
        <ele>142.6</ele>
        <time>2016-08-27T13:08:53.000Z</time>
      </trkpt>
      <trkpt lat="49.54858" lon="3.28784">
        <ele>142.4</ele>
        <time>2016-08-27T13:08:54.000Z</time>
      </trkpt>
      <trkpt lat="49.54867" lon="3.28785">
        <ele>142.1</ele>
        <time>2016-08-27T13:08:59.000Z</time>
      </trkpt>
      <trkpt lat="49.54868" lon="3.28786">
        <ele>142.1</ele>
        <time>2016-08-27T13:09:00.000Z</time>
      </trkpt>
      <trkpt lat="49.54875" lon="3.28792">
        <ele>141.6</ele>
        <time>2016-08-27T13:09:04.000Z</time>
      </trkpt>
      <trkpt lat="49.54876" lon="3.28794">
        <ele>141.5</ele>
        <time>2016-08-27T13:09:05.000Z</time>
      </trkpt>
      <trkpt lat="49.54879" lon="3.28795">
        <ele>141.7</ele>
        <time>2016-08-27T13:09:07.000Z</time>
      </trkpt>
      <trkpt lat="49.54881" lon="3.28795">
        <ele>142.1</ele>
        <time>2016-08-27T13:09:08.000Z</time>
      </trkpt>
      <trkpt lat="49.54881" lon="3.28796">
        <ele>142.3</ele>
        <time>2016-08-27T13:09:09.000Z</time>
      </trkpt>
      <trkpt lat="49.54882" lon="3.28797">
        <ele>142.7</ele>
        <time>2016-08-27T13:09:10.000Z</time>
      </trkpt>
      <trkpt lat="49.54884" lon="3.28798">
        <ele>142.7</ele>
        <time>2016-08-27T13:09:12.000Z</time>
      </trkpt>
      <trkpt lat="49.54884" lon="3.28798">
        <ele>142.7</ele>
        <time>2016-08-27T13:09:13.000Z</time>
      </trkpt>
      <trkpt lat="49.54885" lon="3.28799">
        <ele>142.8</ele>
        <time>2016-08-27T13:09:15.000Z</time>
      </trkpt>
      <trkpt lat="49.54886" lon="3.288">
        <ele>143.1</ele>
        <time>2016-08-27T13:09:16.000Z</time>
      </trkpt>
      <trkpt lat="49.54892" lon="3.28804">
        <ele>141.5</ele>
        <time>2016-08-27T13:09:19.000Z</time>
      </trkpt>
      <trkpt lat="49.54895" lon="3.28806">
        <ele>140.9</ele>
        <time>2016-08-27T13:09:20.000Z</time>
      </trkpt>
      <trkpt lat="49.54902" lon="3.28813">
        <ele>140.7</ele>
        <time>2016-08-27T13:09:27.000Z</time>
      </trkpt>
      <trkpt lat="49.54903" lon="3.28814">
        <ele>140.7</ele>
        <time>2016-08-27T13:09:28.000Z</time>
      </trkpt>
      <trkpt lat="49.54911" lon="3.28819">
        <ele>140.1</ele>
        <time>2016-08-27T13:09:33.000Z</time>
      </trkpt>
      <trkpt lat="49.54912" lon="3.2882">
        <ele>139.9</ele>
        <time>2016-08-27T13:09:34.000Z</time>
      </trkpt>
      <trkpt lat="49.54913" lon="3.28821">
        <ele>139.8</ele>
        <time>2016-08-27T13:09:35.000Z</time>
      </trkpt>
      <trkpt lat="49.54914" lon="3.28822">
        <ele>139.7</ele>
        <time>2016-08-27T13:09:36.000Z</time>
      </trkpt>
      <trkpt lat="49.54914" lon="3.28823">
        <ele>139.6</ele>
        <time>2016-08-27T13:09:38.000Z</time>
      </trkpt>
      <trkpt lat="49.54916" lon="3.28825">
        <ele>139.6</ele>
        <time>2016-08-27T13:09:39.000Z</time>
      </trkpt>
      <trkpt lat="49.54924" lon="3.28831">
        <ele>139</ele>
        <time>2016-08-27T13:09:43.000Z</time>
      </trkpt>
      <trkpt lat="49.54925" lon="3.28832">
        <ele>139</ele>
        <time>2016-08-27T13:09:44.000Z</time>
      </trkpt>
      <trkpt lat="49.54933" lon="3.28835">
        <ele>139.2</ele>
        <time>2016-08-27T13:09:48.000Z</time>
      </trkpt>
      <trkpt lat="49.54935" lon="3.28836">
        <ele>139.1</ele>
        <time>2016-08-27T13:09:49.000Z</time>
      </trkpt>
      <trkpt lat="49.54941" lon="3.28845">
        <ele>138.4</ele>
        <time>2016-08-27T13:09:54.000Z</time>
      </trkpt>
      <trkpt lat="49.54943" lon="3.28846">
        <ele>138.3</ele>
        <time>2016-08-27T13:09:55.000Z</time>
      </trkpt>
      <trkpt lat="49.54951" lon="3.28851">
        <ele>137.8</ele>
        <time>2016-08-27T13:10:00.000Z</time>
      </trkpt>
      <trkpt lat="49.54952" lon="3.28852">
        <ele>137.6</ele>
        <time>2016-08-27T13:10:01.000Z</time>
      </trkpt>
      <trkpt lat="49.54958" lon="3.28856">
        <ele>136.9</ele>
        <time>2016-08-27T13:10:04.000Z</time>
      </trkpt>
      <trkpt lat="49.54961" lon="3.28857">
        <ele>136.7</ele>
        <time>2016-08-27T13:10:05.000Z</time>
      </trkpt>
      <trkpt lat="49.54968" lon="3.28864">
        <ele>136.8</ele>
        <time>2016-08-27T13:10:09.000Z</time>
      </trkpt>
      <trkpt lat="49.5497" lon="3.28865">
        <ele>137.1</ele>
        <time>2016-08-27T13:10:10.000Z</time>
      </trkpt>
      <trkpt lat="49.54976" lon="3.28873">
        <ele>137.2</ele>
        <time>2016-08-27T13:10:14.000Z</time>
      </trkpt>
      <trkpt lat="49.54977" lon="3.28875">
        <ele>137.2</ele>
        <time>2016-08-27T13:10:15.000Z</time>
      </trkpt>
      <trkpt lat="49.54983" lon="3.28883">
        <ele>136.2</ele>
        <time>2016-08-27T13:10:19.000Z</time>
      </trkpt>
      <trkpt lat="49.54984" lon="3.28886">
        <ele>135.9</ele>
        <time>2016-08-27T13:10:20.000Z</time>
      </trkpt>
      <trkpt lat="49.54991" lon="3.28894">
        <ele>135.2</ele>
        <time>2016-08-27T13:10:24.000Z</time>
      </trkpt>
      <trkpt lat="49.54992" lon="3.28895">
        <ele>135.4</ele>
        <time>2016-08-27T13:10:25.000Z</time>
      </trkpt>
      <trkpt lat="49.54998" lon="3.28903">
        <ele>134.9</ele>
        <time>2016-08-27T13:10:29.000Z</time>
      </trkpt>
      <trkpt lat="49.54999" lon="3.28905">
        <ele>134.9</ele>
        <time>2016-08-27T13:10:30.000Z</time>
      </trkpt>
      <trkpt lat="49.55005" lon="3.28912">
        <ele>135.5</ele>
        <time>2016-08-27T13:10:35.000Z</time>
      </trkpt>
      <trkpt lat="49.55007" lon="3.28915">
        <ele>135.8</ele>
        <time>2016-08-27T13:10:36.000Z</time>
      </trkpt>
      <trkpt lat="49.55013" lon="3.28923">
        <ele>137.2</ele>
        <time>2016-08-27T13:10:42.000Z</time>
      </trkpt>
      <trkpt lat="49.55014" lon="3.28924">
        <ele>137.4</ele>
        <time>2016-08-27T13:10:43.000Z</time>
      </trkpt>
      <trkpt lat="49.55022" lon="3.2893">
        <ele>137.5</ele>
        <time>2016-08-27T13:10:48.000Z</time>
      </trkpt>
      <trkpt lat="49.55024" lon="3.28931">
        <ele>137.5</ele>
        <time>2016-08-27T13:10:49.000Z</time>
      </trkpt>
      <trkpt lat="49.5503" lon="3.28937">
        <ele>137.6</ele>
        <time>2016-08-27T13:10:53.000Z</time>
      </trkpt>
      <trkpt lat="49.55032" lon="3.28938">
        <ele>137.5</ele>
        <time>2016-08-27T13:10:54.000Z</time>
      </trkpt>
      <trkpt lat="49.55038" lon="3.28946">
        <ele>137.4</ele>
        <time>2016-08-27T13:10:59.000Z</time>
      </trkpt>
      <trkpt lat="49.55039" lon="3.28948">
        <ele>137.4</ele>
        <time>2016-08-27T13:11:00.000Z</time>
      </trkpt>
      <trkpt lat="49.55047" lon="3.28955">
        <ele>138.6</ele>
        <time>2016-08-27T13:11:05.000Z</time>
      </trkpt>
      <trkpt lat="49.55048" lon="3.28956">
        <ele>138.6</ele>
        <time>2016-08-27T13:11:06.000Z</time>
      </trkpt>
      <trkpt lat="49.55055" lon="3.28961">
        <ele>139.5</ele>
        <time>2016-08-27T13:11:10.000Z</time>
      </trkpt>
      <trkpt lat="49.55056" lon="3.28962">
        <ele>139.2</ele>
        <time>2016-08-27T13:11:11.000Z</time>
      </trkpt>
      <trkpt lat="49.55063" lon="3.28969">
        <ele>139</ele>
        <time>2016-08-27T13:11:17.000Z</time>
      </trkpt>
      <trkpt lat="49.55064" lon="3.28971">
        <ele>138.9</ele>
        <time>2016-08-27T13:11:18.000Z</time>
      </trkpt>
      <trkpt lat="49.55071" lon="3.28977">
        <ele>139.6</ele>
        <time>2016-08-27T13:11:24.000Z</time>
      </trkpt>
      <trkpt lat="49.55072" lon="3.28978">
        <ele>139.8</ele>
        <time>2016-08-27T13:11:25.000Z</time>
      </trkpt>
      <trkpt lat="49.55079" lon="3.28987">
        <ele>139.7</ele>
        <time>2016-08-27T13:11:31.000Z</time>
      </trkpt>
      <trkpt lat="49.5508" lon="3.28988">
        <ele>139.2</ele>
        <time>2016-08-27T13:11:32.000Z</time>
      </trkpt>
      <trkpt lat="49.55087" lon="3.28996">
        <ele>138.7</ele>
        <time>2016-08-27T13:11:39.000Z</time>
      </trkpt>
      <trkpt lat="49.55089" lon="3.28997">
        <ele>138.6</ele>
        <time>2016-08-27T13:11:40.000Z</time>
      </trkpt>
      <trkpt lat="49.55096" lon="3.29002">
        <ele>137.5</ele>
        <time>2016-08-27T13:11:45.000Z</time>
      </trkpt>
      <trkpt lat="49.55097" lon="3.29003">
        <ele>137.2</ele>
        <time>2016-08-27T13:11:46.000Z</time>
      </trkpt>
      <trkpt lat="49.55104" lon="3.2901">
        <ele>137</ele>
        <time>2016-08-27T13:11:51.000Z</time>
      </trkpt>
      <trkpt lat="49.55105" lon="3.29012">
        <ele>137</ele>
        <time>2016-08-27T13:11:52.000Z</time>
      </trkpt>
      <trkpt lat="49.5511" lon="3.29021">
        <ele>136.9</ele>
        <time>2016-08-27T13:11:56.000Z</time>
      </trkpt>
      <trkpt lat="49.55112" lon="3.29023">
        <ele>137.1</ele>
        <time>2016-08-27T13:11:57.000Z</time>
      </trkpt>
      <trkpt lat="49.55118" lon="3.29031">
        <ele>137.2</ele>
        <time>2016-08-27T13:12:04.000Z</time>
      </trkpt>
      <trkpt lat="49.5512" lon="3.29032">
        <ele>137.3</ele>
        <time>2016-08-27T13:12:05.000Z</time>
      </trkpt>
      <trkpt lat="49.55126" lon="3.29038">
        <ele>137.2</ele>
        <time>2016-08-27T13:12:09.000Z</time>
      </trkpt>
      <trkpt lat="49.55127" lon="3.2904">
        <ele>137.3</ele>
        <time>2016-08-27T13:12:10.000Z</time>
      </trkpt>
      <trkpt lat="49.55134" lon="3.29047">
        <ele>137.4</ele>
        <time>2016-08-27T13:12:15.000Z</time>
      </trkpt>
      <trkpt lat="49.55136" lon="3.29049">
        <ele>137.7</ele>
        <time>2016-08-27T13:12:16.000Z</time>
      </trkpt>
      <trkpt lat="49.55142" lon="3.29055">
        <ele>136</ele>
        <time>2016-08-27T13:12:19.000Z</time>
      </trkpt>
      <trkpt lat="49.55144" lon="3.29057">
        <ele>135.5</ele>
        <time>2016-08-27T13:12:20.000Z</time>
      </trkpt>
      <trkpt lat="49.55152" lon="3.29063">
        <ele>136.6</ele>
        <time>2016-08-27T13:12:25.000Z</time>
      </trkpt>
      <trkpt lat="49.55153" lon="3.29064">
        <ele>136.5</ele>
        <time>2016-08-27T13:12:26.000Z</time>
      </trkpt>
      <trkpt lat="49.5516" lon="3.29068">
        <ele>136</ele>
        <time>2016-08-27T13:12:31.000Z</time>
      </trkpt>
      <trkpt lat="49.55162" lon="3.29069">
        <ele>136.2</ele>
        <time>2016-08-27T13:12:32.000Z</time>
      </trkpt>
      <trkpt lat="49.5517" lon="3.29075">
        <ele>137</ele>
        <time>2016-08-27T13:12:38.000Z</time>
      </trkpt>
      <trkpt lat="49.55171" lon="3.29076">
        <ele>136.9</ele>
        <time>2016-08-27T13:12:39.000Z</time>
      </trkpt>
      <trkpt lat="49.55178" lon="3.29081">
        <ele>137.4</ele>
        <time>2016-08-27T13:12:47.000Z</time>
      </trkpt>
      <trkpt lat="49.5518" lon="3.29082">
        <ele>137.4</ele>
        <time>2016-08-27T13:12:48.000Z</time>
      </trkpt>
      <trkpt lat="49.55188" lon="3.29085">
        <ele>137.4</ele>
        <time>2016-08-27T13:12:53.000Z</time>
      </trkpt>
      <trkpt lat="49.5519" lon="3.29086">
        <ele>137.3</ele>
        <time>2016-08-27T13:12:54.000Z</time>
      </trkpt>
      <trkpt lat="49.55197" lon="3.29091">
        <ele>137.4</ele>
        <time>2016-08-27T13:13:00.000Z</time>
      </trkpt>
      <trkpt lat="49.55199" lon="3.29092">
        <ele>137.4</ele>
        <time>2016-08-27T13:13:01.000Z</time>
      </trkpt>
      <trkpt lat="49.55206" lon="3.29095">
        <ele>137.1</ele>
        <time>2016-08-27T13:13:08.000Z</time>
      </trkpt>
      <trkpt lat="49.55208" lon="3.29096">
        <ele>137</ele>
        <time>2016-08-27T13:13:09.000Z</time>
      </trkpt>
      <trkpt lat="49.55216" lon="3.29096">
        <ele>137</ele>
        <time>2016-08-27T13:13:14.000Z</time>
      </trkpt>
      <trkpt lat="49.55217" lon="3.29096">
        <ele>137.1</ele>
        <time>2016-08-27T13:13:15.000Z</time>
      </trkpt>
      <trkpt lat="49.55225" lon="3.29097">
        <ele>137.1</ele>
        <time>2016-08-27T13:13:20.000Z</time>
      </trkpt>
      <trkpt lat="49.55226" lon="3.29098">
        <ele>137.1</ele>
        <time>2016-08-27T13:13:21.000Z</time>
      </trkpt>
      <trkpt lat="49.55233" lon="3.29099">
        <ele>137.1</ele>
        <time>2016-08-27T13:13:24.000Z</time>
      </trkpt>
      <trkpt lat="49.55236" lon="3.29098">
        <ele>137.1</ele>
        <time>2016-08-27T13:13:25.000Z</time>
      </trkpt>
      <trkpt lat="49.55244" lon="3.291">
        <ele>137.2</ele>
        <time>2016-08-27T13:13:29.000Z</time>
      </trkpt>
      <trkpt lat="49.55246" lon="3.29101">
        <ele>137.3</ele>
        <time>2016-08-27T13:13:30.000Z</time>
      </trkpt>
      <trkpt lat="49.55253" lon="3.29102">
        <ele>137.7</ele>
        <time>2016-08-27T13:13:33.000Z</time>
      </trkpt>
      <trkpt lat="49.55255" lon="3.29103">
        <ele>137.6</ele>
        <time>2016-08-27T13:13:34.000Z</time>
      </trkpt>
      <trkpt lat="49.55264" lon="3.29104">
        <ele>137</ele>
        <time>2016-08-27T13:13:38.000Z</time>
      </trkpt>
      <trkpt lat="49.55265" lon="3.29104">
        <ele>137.1</ele>
        <time>2016-08-27T13:13:39.000Z</time>
      </trkpt>
      <trkpt lat="49.55272" lon="3.29103">
        <ele>137.3</ele>
        <time>2016-08-27T13:13:44.000Z</time>
      </trkpt>
      <trkpt lat="49.55274" lon="3.29103">
        <ele>137.4</ele>
        <time>2016-08-27T13:13:45.000Z</time>
      </trkpt>
      <trkpt lat="49.55282" lon="3.29104">
        <ele>136.9</ele>
        <time>2016-08-27T13:13:48.000Z</time>
      </trkpt>
      <trkpt lat="49.55284" lon="3.29105">
        <ele>136.4</ele>
        <time>2016-08-27T13:13:49.000Z</time>
      </trkpt>
      <trkpt lat="49.55293" lon="3.29105">
        <ele>136.4</ele>
        <time>2016-08-27T13:13:53.000Z</time>
      </trkpt>
      <trkpt lat="49.55295" lon="3.29104">
        <ele>136.5</ele>
        <time>2016-08-27T13:13:54.000Z</time>
      </trkpt>
      <trkpt lat="49.55303" lon="3.29103">
        <ele>136.9</ele>
        <time>2016-08-27T13:13:58.000Z</time>
      </trkpt>
      <trkpt lat="49.55306" lon="3.29102">
        <ele>136.9</ele>
        <time>2016-08-27T13:13:59.000Z</time>
      </trkpt>
      <trkpt lat="49.55314" lon="3.291">
        <ele>137.4</ele>
        <time>2016-08-27T13:14:04.000Z</time>
      </trkpt>
      <trkpt lat="49.55316" lon="3.29099">
        <ele>137.5</ele>
        <time>2016-08-27T13:14:05.000Z</time>
      </trkpt>
      <trkpt lat="49.55324" lon="3.29097">
        <ele>137.8</ele>
        <time>2016-08-27T13:14:09.000Z</time>
      </trkpt>
      <trkpt lat="49.55326" lon="3.29096">
        <ele>138</ele>
        <time>2016-08-27T13:14:10.000Z</time>
      </trkpt>
      <trkpt lat="49.55334" lon="3.29094">
        <ele>138.3</ele>
        <time>2016-08-27T13:14:15.000Z</time>
      </trkpt>
      <trkpt lat="49.55335" lon="3.29094">
        <ele>138.4</ele>
        <time>2016-08-27T13:14:16.000Z</time>
      </trkpt>
      <trkpt lat="49.55334" lon="3.29098">
        <ele>136.7</ele>
        <time>2016-08-27T13:14:23.000Z</time>
      </trkpt>
      <trkpt lat="49.55333" lon="3.29099">
        <ele>136.4</ele>
        <time>2016-08-27T13:14:24.000Z</time>
      </trkpt>
      <trkpt lat="49.55333" lon="3.29099">
        <ele>136.3</ele>
        <time>2016-08-27T13:14:27.000Z</time>
      </trkpt>
      <trkpt lat="49.55333" lon="3.29099">
        <ele>136.6</ele>
        <time>2016-08-27T13:14:28.000Z</time>
      </trkpt>
      <trkpt lat="49.55336" lon="3.29091">
        <ele>136.5</ele>
        <time>2016-08-27T13:14:35.000Z</time>
      </trkpt>
      <trkpt lat="49.55336" lon="3.2909">
        <ele>136.4</ele>
        <time>2016-08-27T13:14:36.000Z</time>
      </trkpt>
      <trkpt lat="49.55336" lon="3.2909">
        <ele>136.5</ele>
        <time>2016-08-27T13:14:42.000Z</time>
      </trkpt>
      <trkpt lat="49.55336" lon="3.29089">
        <ele>136.5</ele>
        <time>2016-08-27T13:14:43.000Z</time>
      </trkpt>
      <trkpt lat="49.55342" lon="3.29099">
        <ele>135.5</ele>
        <time>2016-08-27T13:14:53.000Z</time>
      </trkpt>
      <trkpt lat="49.55343" lon="3.291">
        <ele>135.6</ele>
        <time>2016-08-27T13:14:54.000Z</time>
      </trkpt>
      <trkpt lat="49.5535" lon="3.29106">
        <ele>135.2</ele>
        <time>2016-08-27T13:14:58.000Z</time>
      </trkpt>
      <trkpt lat="49.55352" lon="3.29108">
        <ele>135.4</ele>
        <time>2016-08-27T13:14:59.000Z</time>
      </trkpt>
      <trkpt lat="49.55357" lon="3.29117">
        <ele>136.3</ele>
        <time>2016-08-27T13:15:04.000Z</time>
      </trkpt>
      <trkpt lat="49.55358" lon="3.29118">
        <ele>136.2</ele>
        <time>2016-08-27T13:15:05.000Z</time>
      </trkpt>
      <trkpt lat="49.55363" lon="3.29129">
        <ele>137.2</ele>
        <time>2016-08-27T13:15:12.000Z</time>
      </trkpt>
      <trkpt lat="49.55363" lon="3.29131">
        <ele>137.5</ele>
        <time>2016-08-27T13:15:13.000Z</time>
      </trkpt>
      <trkpt lat="49.55363" lon="3.29144">
        <ele>138.1</ele>
        <time>2016-08-27T13:15:20.000Z</time>
      </trkpt>
      <trkpt lat="49.55363" lon="3.29145">
        <ele>138.3</ele>
        <time>2016-08-27T13:15:21.000Z</time>
      </trkpt>
      <trkpt lat="49.55364" lon="3.29158">
        <ele>139.8</ele>
        <time>2016-08-27T13:15:29.000Z</time>
      </trkpt>
      <trkpt lat="49.55364" lon="3.29161">
        <ele>140</ele>
        <time>2016-08-27T13:15:30.000Z</time>
      </trkpt>
      <trkpt lat="49.55367" lon="3.29173">
        <ele>139.7</ele>
        <time>2016-08-27T13:15:37.000Z</time>
      </trkpt>
      <trkpt lat="49.55367" lon="3.29175">
        <ele>139.9</ele>
        <time>2016-08-27T13:15:38.000Z</time>
      </trkpt>
      <trkpt lat="49.55369" lon="3.29187">
        <ele>140.2</ele>
        <time>2016-08-27T13:15:45.000Z</time>
      </trkpt>
      <trkpt lat="49.55369" lon="3.29189">
        <ele>140.2</ele>
        <time>2016-08-27T13:15:46.000Z</time>
      </trkpt>
      <trkpt lat="49.55371" lon="3.29201">
        <ele>140.9</ele>
        <time>2016-08-27T13:15:52.000Z</time>
      </trkpt>
      <trkpt lat="49.55371" lon="3.29204">
        <ele>140.9</ele>
        <time>2016-08-27T13:15:53.000Z</time>
      </trkpt>
      <trkpt lat="49.55373" lon="3.29215">
        <ele>140.9</ele>
        <time>2016-08-27T13:15:58.000Z</time>
      </trkpt>
      <trkpt lat="49.55373" lon="3.29218">
        <ele>140.9</ele>
        <time>2016-08-27T13:15:59.000Z</time>
      </trkpt>
      <trkpt lat="49.55375" lon="3.2923">
        <ele>140.9</ele>
        <time>2016-08-27T13:16:04.000Z</time>
      </trkpt>
      <trkpt lat="49.55376" lon="3.29233">
        <ele>140.8</ele>
        <time>2016-08-27T13:16:05.000Z</time>
      </trkpt>
      <trkpt lat="49.55378" lon="3.29246">
        <ele>140.7</ele>
        <time>2016-08-27T13:16:10.000Z</time>
      </trkpt>
      <trkpt lat="49.55379" lon="3.29249">
        <ele>140.8</ele>
        <time>2016-08-27T13:16:11.000Z</time>
      </trkpt>
      <trkpt lat="49.55381" lon="3.29261">
        <ele>141.4</ele>
        <time>2016-08-27T13:16:17.000Z</time>
      </trkpt>
      <trkpt lat="49.55382" lon="3.29265">
        <ele>140.7</ele>
        <time>2016-08-27T13:16:18.000Z</time>
      </trkpt>
      <trkpt lat="49.55385" lon="3.29277">
        <ele>140</ele>
        <time>2016-08-27T13:16:23.000Z</time>
      </trkpt>
      <trkpt lat="49.55385" lon="3.29278">
        <ele>140.2</ele>
        <time>2016-08-27T13:16:24.000Z</time>
      </trkpt>
      <trkpt lat="49.55384" lon="3.29291">
        <ele>140.3</ele>
        <time>2016-08-27T13:16:31.000Z</time>
      </trkpt>
      <trkpt lat="49.55384" lon="3.29292">
        <ele>140.3</ele>
        <time>2016-08-27T13:16:32.000Z</time>
      </trkpt>
      <trkpt lat="49.55385" lon="3.29305">
        <ele>140.9</ele>
        <time>2016-08-27T13:16:39.000Z</time>
      </trkpt>
      <trkpt lat="49.55385" lon="3.29308">
        <ele>141.1</ele>
        <time>2016-08-27T13:16:40.000Z</time>
      </trkpt>
      <trkpt lat="49.55384" lon="3.29321">
        <ele>142.3</ele>
        <time>2016-08-27T13:16:46.000Z</time>
      </trkpt>
      <trkpt lat="49.55383" lon="3.29323">
        <ele>142.6</ele>
        <time>2016-08-27T13:16:47.000Z</time>
      </trkpt>
      <trkpt lat="49.55382" lon="3.29336">
        <ele>142.1</ele>
        <time>2016-08-27T13:16:51.000Z</time>
      </trkpt>
      <trkpt lat="49.55382" lon="3.29339">
        <ele>142</ele>
        <time>2016-08-27T13:16:52.000Z</time>
      </trkpt>
      <trkpt lat="49.55382" lon="3.2935">
        <ele>142.5</ele>
        <time>2016-08-27T13:16:57.000Z</time>
      </trkpt>
      <trkpt lat="49.55382" lon="3.29353">
        <ele>142.5</ele>
        <time>2016-08-27T13:16:58.000Z</time>
      </trkpt>
      <trkpt lat="49.55385" lon="3.29364">
        <ele>142.1</ele>
        <time>2016-08-27T13:17:05.000Z</time>
      </trkpt>
      <trkpt lat="49.55385" lon="3.29366">
        <ele>141.9</ele>
        <time>2016-08-27T13:17:06.000Z</time>
      </trkpt>
      <trkpt lat="49.55384" lon="3.29378">
        <ele>141</ele>
        <time>2016-08-27T13:17:10.000Z</time>
      </trkpt>
      <trkpt lat="49.55384" lon="3.29381">
        <ele>140.8</ele>
        <time>2016-08-27T13:17:11.000Z</time>
      </trkpt>
      <trkpt lat="49.55384" lon="3.29393">
        <ele>141</ele>
        <time>2016-08-27T13:17:15.000Z</time>
      </trkpt>
      <trkpt lat="49.55384" lon="3.29395">
        <ele>141.3</ele>
        <time>2016-08-27T13:17:16.000Z</time>
      </trkpt>
      <trkpt lat="49.55383" lon="3.29407">
        <ele>141.3</ele>
        <time>2016-08-27T13:17:21.000Z</time>
      </trkpt>
      <trkpt lat="49.55383" lon="3.2941">
        <ele>141.8</ele>
        <time>2016-08-27T13:17:22.000Z</time>
      </trkpt>
      <trkpt lat="49.55382" lon="3.29423">
        <ele>141.8</ele>
        <time>2016-08-27T13:17:26.000Z</time>
      </trkpt>
      <trkpt lat="49.55382" lon="3.29426">
        <ele>141.9</ele>
        <time>2016-08-27T13:17:27.000Z</time>
      </trkpt>
      <trkpt lat="49.5538" lon="3.29438">
        <ele>142.3</ele>
        <time>2016-08-27T13:17:31.000Z</time>
      </trkpt>
      <trkpt lat="49.5538" lon="3.29441">
        <ele>142.3</ele>
        <time>2016-08-27T13:17:32.000Z</time>
      </trkpt>
      <trkpt lat="49.55379" lon="3.29454">
        <ele>141.7</ele>
        <time>2016-08-27T13:17:37.000Z</time>
      </trkpt>
      <trkpt lat="49.5538" lon="3.29456">
        <ele>141.6</ele>
        <time>2016-08-27T13:17:38.000Z</time>
      </trkpt>
      <trkpt lat="49.55381" lon="3.29467">
        <ele>142</ele>
        <time>2016-08-27T13:17:44.000Z</time>
      </trkpt>
      <trkpt lat="49.55381" lon="3.2947">
        <ele>142.1</ele>
        <time>2016-08-27T13:17:45.000Z</time>
      </trkpt>
      <trkpt lat="49.55382" lon="3.29482">
        <ele>142.1</ele>
        <time>2016-08-27T13:17:52.000Z</time>
      </trkpt>
      <trkpt lat="49.55382" lon="3.29484">
        <ele>142</ele>
        <time>2016-08-27T13:17:53.000Z</time>
      </trkpt>
      <trkpt lat="49.55384" lon="3.29496">
        <ele>141.8</ele>
        <time>2016-08-27T13:17:58.000Z</time>
      </trkpt>
      <trkpt lat="49.55384" lon="3.29498">
        <ele>141.8</ele>
        <time>2016-08-27T13:17:59.000Z</time>
      </trkpt>
      <trkpt lat="49.55385" lon="3.29511">
        <ele>141.9</ele>
        <time>2016-08-27T13:18:03.000Z</time>
      </trkpt>
      <trkpt lat="49.55386" lon="3.29513">
        <ele>141.9</ele>
        <time>2016-08-27T13:18:04.000Z</time>
      </trkpt>
      <trkpt lat="49.55386" lon="3.29526">
        <ele>142.2</ele>
        <time>2016-08-27T13:18:10.000Z</time>
      </trkpt>
      <trkpt lat="49.55386" lon="3.29528">
        <ele>142.5</ele>
        <time>2016-08-27T13:18:11.000Z</time>
      </trkpt>
      <trkpt lat="49.55386" lon="3.2954">
        <ele>142.2</ele>
        <time>2016-08-27T13:18:17.000Z</time>
      </trkpt>
      <trkpt lat="49.55386" lon="3.29542">
        <ele>142.2</ele>
        <time>2016-08-27T13:18:18.000Z</time>
      </trkpt>
      <trkpt lat="49.55387" lon="3.29552">
        <ele>142</ele>
        <time>2016-08-27T13:18:23.000Z</time>
      </trkpt>
      <trkpt lat="49.55387" lon="3.29556">
        <ele>141.9</ele>
        <time>2016-08-27T13:18:24.000Z</time>
      </trkpt>
      <trkpt lat="49.55388" lon="3.29568">
        <ele>141.9</ele>
        <time>2016-08-27T13:18:28.000Z</time>
      </trkpt>
      <trkpt lat="49.55388" lon="3.29571">
        <ele>141.8</ele>
        <time>2016-08-27T13:18:29.000Z</time>
      </trkpt>
      <trkpt lat="49.55389" lon="3.29584">
        <ele>142.1</ele>
        <time>2016-08-27T13:18:35.000Z</time>
      </trkpt>
      <trkpt lat="49.55389" lon="3.29586">
        <ele>142</ele>
        <time>2016-08-27T13:18:36.000Z</time>
      </trkpt>
      <trkpt lat="49.5539" lon="3.29598">
        <ele>142.2</ele>
        <time>2016-08-27T13:18:42.000Z</time>
      </trkpt>
      <trkpt lat="49.5539" lon="3.296">
        <ele>142</ele>
        <time>2016-08-27T13:18:43.000Z</time>
      </trkpt>
      <trkpt lat="49.55391" lon="3.29613">
        <ele>141.2</ele>
        <time>2016-08-27T13:18:49.000Z</time>
      </trkpt>
      <trkpt lat="49.55392" lon="3.29615">
        <ele>141.2</ele>
        <time>2016-08-27T13:18:50.000Z</time>
      </trkpt>
      <trkpt lat="49.55395" lon="3.29628">
        <ele>141.6</ele>
        <time>2016-08-27T13:18:56.000Z</time>
      </trkpt>
      <trkpt lat="49.55395" lon="3.2963">
        <ele>141.8</ele>
        <time>2016-08-27T13:18:57.000Z</time>
      </trkpt>
      <trkpt lat="49.55399" lon="3.29641">
        <ele>141.9</ele>
        <time>2016-08-27T13:19:02.000Z</time>
      </trkpt>
      <trkpt lat="49.55399" lon="3.29644">
        <ele>141.9</ele>
        <time>2016-08-27T13:19:03.000Z</time>
      </trkpt>
      <trkpt lat="49.55403" lon="3.29656">
        <ele>141.7</ele>
        <time>2016-08-27T13:19:10.000Z</time>
      </trkpt>
      <trkpt lat="49.55404" lon="3.29658">
        <ele>141.7</ele>
        <time>2016-08-27T13:19:11.000Z</time>
      </trkpt>
      <trkpt lat="49.55408" lon="3.2967">
        <ele>141.7</ele>
        <time>2016-08-27T13:19:17.000Z</time>
      </trkpt>
      <trkpt lat="49.55409" lon="3.29671">
        <ele>141.8</ele>
        <time>2016-08-27T13:19:18.000Z</time>
      </trkpt>
      <trkpt lat="49.55411" lon="3.29682">
        <ele>141.4</ele>
        <time>2016-08-27T13:19:23.000Z</time>
      </trkpt>
      <trkpt lat="49.55411" lon="3.29685">
        <ele>141.6</ele>
        <time>2016-08-27T13:19:24.000Z</time>
      </trkpt>
      <trkpt lat="49.55415" lon="3.29696">
        <ele>142.1</ele>
        <time>2016-08-27T13:19:29.000Z</time>
      </trkpt>
      <trkpt lat="49.55416" lon="3.29698">
        <ele>142</ele>
        <time>2016-08-27T13:19:30.000Z</time>
      </trkpt>
      <trkpt lat="49.55419" lon="3.29711">
        <ele>141.9</ele>
        <time>2016-08-27T13:19:35.000Z</time>
      </trkpt>
      <trkpt lat="49.55419" lon="3.29714">
        <ele>142.1</ele>
        <time>2016-08-27T13:19:36.000Z</time>
      </trkpt>
      <trkpt lat="49.55423" lon="3.29725">
        <ele>143.3</ele>
        <time>2016-08-27T13:19:42.000Z</time>
      </trkpt>
      <trkpt lat="49.55424" lon="3.29727">
        <ele>143.5</ele>
        <time>2016-08-27T13:19:43.000Z</time>
      </trkpt>
      <trkpt lat="49.55426" lon="3.2974">
        <ele>144.6</ele>
        <time>2016-08-27T13:19:48.000Z</time>
      </trkpt>
      <trkpt lat="49.55426" lon="3.29744">
        <ele>144.9</ele>
        <time>2016-08-27T13:19:49.000Z</time>
      </trkpt>
      <trkpt lat="49.55428" lon="3.29754">
        <ele>145.7</ele>
        <time>2016-08-27T13:19:53.000Z</time>
      </trkpt>
      <trkpt lat="49.55428" lon="3.29758">
        <ele>145.9</ele>
        <time>2016-08-27T13:19:54.000Z</time>
      </trkpt>
      <trkpt lat="49.55428" lon="3.29769">
        <ele>146.3</ele>
        <time>2016-08-27T13:19:57.000Z</time>
      </trkpt>
      <trkpt lat="49.55428" lon="3.29773">
        <ele>146.4</ele>
        <time>2016-08-27T13:19:58.000Z</time>
      </trkpt>
      <trkpt lat="49.55427" lon="3.29785">
        <ele>147.2</ele>
        <time>2016-08-27T13:20:01.000Z</time>
      </trkpt>
      <trkpt lat="49.55427" lon="3.29787">
        <ele>147.3</ele>
        <time>2016-08-27T13:20:02.000Z</time>
      </trkpt>
      <trkpt lat="49.55427" lon="3.29796">
        <ele>147.8</ele>
        <time>2016-08-27T13:20:05.000Z</time>
      </trkpt>
      <trkpt lat="49.55426" lon="3.29801">
        <ele>148.1</ele>
        <time>2016-08-27T13:20:06.000Z</time>
      </trkpt>
      <trkpt lat="49.55425" lon="3.29814">
        <ele>149.1</ele>
        <time>2016-08-27T13:20:12.000Z</time>
      </trkpt>
      <trkpt lat="49.55425" lon="3.29816">
        <ele>149.4</ele>
        <time>2016-08-27T13:20:13.000Z</time>
      </trkpt>
      <trkpt lat="49.55423" lon="3.29826">
        <ele>150.2</ele>
        <time>2016-08-27T13:20:19.000Z</time>
      </trkpt>
      <trkpt lat="49.55422" lon="3.29827">
        <ele>150.6</ele>
        <time>2016-08-27T13:20:20.000Z</time>
      </trkpt>
      <trkpt lat="49.55421" lon="3.29828">
        <ele>150.9</ele>
        <time>2016-08-27T13:20:21.000Z</time>
      </trkpt>
      <trkpt lat="49.55414" lon="3.29836">
        <ele>149.4</ele>
        <time>2016-08-27T13:20:28.000Z</time>
      </trkpt>
      <trkpt lat="49.55413" lon="3.29838">
        <ele>149.5</ele>
        <time>2016-08-27T13:20:29.000Z</time>
      </trkpt>
      <trkpt lat="49.55405" lon="3.29841">
        <ele>148.5</ele>
        <time>2016-08-27T13:20:36.000Z</time>
      </trkpt>
      <trkpt lat="49.55404" lon="3.29841">
        <ele>148.4</ele>
        <time>2016-08-27T13:20:37.000Z</time>
      </trkpt>
      <trkpt lat="49.55395" lon="3.29838">
        <ele>147.3</ele>
        <time>2016-08-27T13:20:45.000Z</time>
      </trkpt>
      <trkpt lat="49.55394" lon="3.29838">
        <ele>147</ele>
        <time>2016-08-27T13:20:46.000Z</time>
      </trkpt>
      <trkpt lat="49.55387" lon="3.29835">
        <ele>146.9</ele>
        <time>2016-08-27T13:20:54.000Z</time>
      </trkpt>
      <trkpt lat="49.55387" lon="3.29835">
        <ele>146.9</ele>
        <time>2016-08-27T13:20:55.000Z</time>
      </trkpt>
      <trkpt lat="49.55387" lon="3.29834">
        <ele>146.9</ele>
        <time>2016-08-27T13:20:56.000Z</time>
      </trkpt>
      <trkpt lat="49.55386" lon="3.29832">
        <ele>147</ele>
        <time>2016-08-27T13:20:58.000Z</time>
      </trkpt>
      <trkpt lat="49.55385" lon="3.29831">
        <ele>147.1</ele>
        <time>2016-08-27T13:20:59.000Z</time>
      </trkpt>
      <trkpt lat="49.55385" lon="3.29831">
        <ele>146.9</ele>
        <time>2016-08-27T13:21:00.000Z</time>
      </trkpt>
      <trkpt lat="49.55379" lon="3.29825">
        <ele>147.2</ele>
        <time>2016-08-27T13:21:05.000Z</time>
      </trkpt>
      <trkpt lat="49.55376" lon="3.29823">
        <ele>146.5</ele>
        <time>2016-08-27T13:21:06.000Z</time>
      </trkpt>
      <trkpt lat="49.55369" lon="3.29818">
        <ele>146.5</ele>
        <time>2016-08-27T13:21:12.000Z</time>
      </trkpt>
      <trkpt lat="49.55368" lon="3.29816">
        <ele>146.6</ele>
        <time>2016-08-27T13:21:13.000Z</time>
      </trkpt>
      <trkpt lat="49.55361" lon="3.2981">
        <ele>146.2</ele>
        <time>2016-08-27T13:21:18.000Z</time>
      </trkpt>
      <trkpt lat="49.55359" lon="3.29808">
        <ele>145.7</ele>
        <time>2016-08-27T13:21:19.000Z</time>
      </trkpt>
      <trkpt lat="49.55352" lon="3.29802">
        <ele>145.5</ele>
        <time>2016-08-27T13:21:24.000Z</time>
      </trkpt>
      <trkpt lat="49.55351" lon="3.298">
        <ele>145.7</ele>
        <time>2016-08-27T13:21:25.000Z</time>
      </trkpt>
      <trkpt lat="49.55345" lon="3.29792">
        <ele>145</ele>
        <time>2016-08-27T13:21:31.000Z</time>
      </trkpt>
      <trkpt lat="49.55344" lon="3.29791">
        <ele>144.8</ele>
        <time>2016-08-27T13:21:32.000Z</time>
      </trkpt>
      <trkpt lat="49.55337" lon="3.29785">
        <ele>144.5</ele>
        <time>2016-08-27T13:21:37.000Z</time>
      </trkpt>
      <trkpt lat="49.55336" lon="3.29784">
        <ele>144.3</ele>
        <time>2016-08-27T13:21:38.000Z</time>
      </trkpt>
      <trkpt lat="49.5533" lon="3.29776">
        <ele>144.1</ele>
        <time>2016-08-27T13:21:43.000Z</time>
      </trkpt>
      <trkpt lat="49.55328" lon="3.29775">
        <ele>144.4</ele>
        <time>2016-08-27T13:21:44.000Z</time>
      </trkpt>
      <trkpt lat="49.55322" lon="3.29769">
        <ele>144.7</ele>
        <time>2016-08-27T13:21:48.000Z</time>
      </trkpt>
      <trkpt lat="49.5532" lon="3.29768">
        <ele>144.6</ele>
        <time>2016-08-27T13:21:49.000Z</time>
      </trkpt>
      <trkpt lat="49.55313" lon="3.29762">
        <ele>144.4</ele>
        <time>2016-08-27T13:21:54.000Z</time>
      </trkpt>
      <trkpt lat="49.55311" lon="3.29761">
        <ele>144.1</ele>
        <time>2016-08-27T13:21:55.000Z</time>
      </trkpt>
      <trkpt lat="49.55304" lon="3.29753">
        <ele>143.7</ele>
        <time>2016-08-27T13:22:01.000Z</time>
      </trkpt>
      <trkpt lat="49.55303" lon="3.29751">
        <ele>143.7</ele>
        <time>2016-08-27T13:22:02.000Z</time>
      </trkpt>
      <trkpt lat="49.55298" lon="3.29744">
        <ele>143.9</ele>
        <time>2016-08-27T13:22:07.000Z</time>
      </trkpt>
      <trkpt lat="49.55296" lon="3.29743">
        <ele>143.5</ele>
        <time>2016-08-27T13:22:08.000Z</time>
      </trkpt>
      <trkpt lat="49.55289" lon="3.29735">
        <ele>143.2</ele>
        <time>2016-08-27T13:22:14.000Z</time>
      </trkpt>
      <trkpt lat="49.55289" lon="3.29735">
        <ele>143.3</ele>
        <time>2016-08-27T13:22:15.000Z</time>
      </trkpt>
      <trkpt lat="49.55281" lon="3.29729">
        <ele>144.1</ele>
        <time>2016-08-27T13:22:22.000Z</time>
      </trkpt>
      <trkpt lat="49.55279" lon="3.29728">
        <ele>144</ele>
        <time>2016-08-27T13:22:23.000Z</time>
      </trkpt>
      <trkpt lat="49.55273" lon="3.29721">
        <ele>144.5</ele>
        <time>2016-08-27T13:22:27.000Z</time>
      </trkpt>
      <trkpt lat="49.55272" lon="3.2972">
        <ele>144.6</ele>
        <time>2016-08-27T13:22:28.000Z</time>
      </trkpt>
      <trkpt lat="49.55264" lon="3.29712">
        <ele>143.8</ele>
        <time>2016-08-27T13:22:33.000Z</time>
      </trkpt>
      <trkpt lat="49.55263" lon="3.29711">
        <ele>143.7</ele>
        <time>2016-08-27T13:22:34.000Z</time>
      </trkpt>
      <trkpt lat="49.55257" lon="3.29708">
        <ele>143.3</ele>
        <time>2016-08-27T13:22:38.000Z</time>
      </trkpt>
      <trkpt lat="49.55254" lon="3.29707">
        <ele>143.3</ele>
        <time>2016-08-27T13:22:39.000Z</time>
      </trkpt>
      <trkpt lat="49.55246" lon="3.29702">
        <ele>143.6</ele>
        <time>2016-08-27T13:22:44.000Z</time>
      </trkpt>
      <trkpt lat="49.55244" lon="3.29701">
        <ele>143.5</ele>
        <time>2016-08-27T13:22:45.000Z</time>
      </trkpt>
      <trkpt lat="49.55236" lon="3.29696">
        <ele>143</ele>
        <time>2016-08-27T13:22:51.000Z</time>
      </trkpt>
      <trkpt lat="49.55234" lon="3.29696">
        <ele>142.6</ele>
        <time>2016-08-27T13:22:52.000Z</time>
      </trkpt>
      <trkpt lat="49.55226" lon="3.29692">
        <ele>140.9</ele>
        <time>2016-08-27T13:22:57.000Z</time>
      </trkpt>
      <trkpt lat="49.55225" lon="3.29691">
        <ele>140.7</ele>
        <time>2016-08-27T13:22:58.000Z</time>
      </trkpt>
      <trkpt lat="49.55216" lon="3.29687">
        <ele>139.9</ele>
        <time>2016-08-27T13:23:03.000Z</time>
      </trkpt>
      <trkpt lat="49.55215" lon="3.29687">
        <ele>139.6</ele>
        <time>2016-08-27T13:23:04.000Z</time>
      </trkpt>
      <trkpt lat="49.55206" lon="3.29684">
        <ele>139.4</ele>
        <time>2016-08-27T13:23:10.000Z</time>
      </trkpt>
      <trkpt lat="49.55205" lon="3.29684">
        <ele>139.3</ele>
        <time>2016-08-27T13:23:11.000Z</time>
      </trkpt>
      <trkpt lat="49.55196" lon="3.29682">
        <ele>139.1</ele>
        <time>2016-08-27T13:23:16.000Z</time>
      </trkpt>
      <trkpt lat="49.55195" lon="3.29682">
        <ele>139</ele>
        <time>2016-08-27T13:23:17.000Z</time>
      </trkpt>
      <trkpt lat="49.55187" lon="3.29679">
        <ele>139.1</ele>
        <time>2016-08-27T13:23:22.000Z</time>
      </trkpt>
      <trkpt lat="49.55185" lon="3.29679">
        <ele>139.2</ele>
        <time>2016-08-27T13:23:23.000Z</time>
      </trkpt>
      <trkpt lat="49.55178" lon="3.29677">
        <ele>139.2</ele>
        <time>2016-08-27T13:23:27.000Z</time>
      </trkpt>
      <trkpt lat="49.55176" lon="3.29677">
        <ele>139.3</ele>
        <time>2016-08-27T13:23:28.000Z</time>
      </trkpt>
      <trkpt lat="49.55167" lon="3.29681">
        <ele>139.5</ele>
        <time>2016-08-27T13:23:34.000Z</time>
      </trkpt>
      <trkpt lat="49.55166" lon="3.29681">
        <ele>140</ele>
        <time>2016-08-27T13:23:35.000Z</time>
      </trkpt>
      <trkpt lat="49.55158" lon="3.29683">
        <ele>140.5</ele>
        <time>2016-08-27T13:23:39.000Z</time>
      </trkpt>
      <trkpt lat="49.55156" lon="3.29684">
        <ele>140.8</ele>
        <time>2016-08-27T13:23:40.000Z</time>
      </trkpt>
      <trkpt lat="49.55151" lon="3.29695">
        <ele>140.6</ele>
        <time>2016-08-27T13:23:50.000Z</time>
      </trkpt>
      <trkpt lat="49.55151" lon="3.29696">
        <ele>140.8</ele>
        <time>2016-08-27T13:23:51.000Z</time>
      </trkpt>
      <trkpt lat="49.55147" lon="3.29699">
        <ele>142.5</ele>
        <time>2016-08-27T13:23:56.000Z</time>
      </trkpt>
      <trkpt lat="49.55146" lon="3.29699">
        <ele>142.7</ele>
        <time>2016-08-27T13:23:57.000Z</time>
      </trkpt>
      <trkpt lat="49.55146" lon="3.297">
        <ele>142.8</ele>
        <time>2016-08-27T13:23:58.000Z</time>
      </trkpt>
      <trkpt lat="49.55145" lon="3.29702">
        <ele>142.9</ele>
        <time>2016-08-27T13:24:00.000Z</time>
      </trkpt>
      <trkpt lat="49.55144" lon="3.29704">
        <ele>142.9</ele>
        <time>2016-08-27T13:24:01.000Z</time>
      </trkpt>
      <trkpt lat="49.55143" lon="3.29706">
        <ele>142.8</ele>
        <time>2016-08-27T13:24:02.000Z</time>
      </trkpt>
      <trkpt lat="49.55142" lon="3.29708">
        <ele>142.8</ele>
        <time>2016-08-27T13:24:03.000Z</time>
      </trkpt>
      <trkpt lat="49.55141" lon="3.29712">
        <ele>142</ele>
        <time>2016-08-27T13:24:05.000Z</time>
      </trkpt>
      <trkpt lat="49.5514" lon="3.29714">
        <ele>141.8</ele>
        <time>2016-08-27T13:24:06.000Z</time>
      </trkpt>
      <trkpt lat="49.5514" lon="3.29716">
        <ele>141.3</ele>
        <time>2016-08-27T13:24:07.000Z</time>
      </trkpt>
      <trkpt lat="49.55137" lon="3.2972">
        <ele>140.8</ele>
        <time>2016-08-27T13:24:15.000Z</time>
      </trkpt>
      <trkpt lat="49.55131" lon="3.29728">
        <ele>138.9</ele>
        <time>2016-08-27T13:24:16.000Z</time>
      </trkpt>
      <trkpt lat="49.5513" lon="3.2973">
        <ele>138.5</ele>
        <time>2016-08-27T13:24:17.000Z</time>
      </trkpt>
      <trkpt lat="49.55129" lon="3.29731">
        <ele>138.3</ele>
        <time>2016-08-27T13:24:18.000Z</time>
      </trkpt>
      <trkpt lat="49.55128" lon="3.29733">
        <ele>138.1</ele>
        <time>2016-08-27T13:24:19.000Z</time>
      </trkpt>
      <trkpt lat="49.55128" lon="3.29735">
        <ele>137.9</ele>
        <time>2016-08-27T13:24:20.000Z</time>
      </trkpt>
      <trkpt lat="49.55127" lon="3.29737">
        <ele>137.7</ele>
        <time>2016-08-27T13:24:21.000Z</time>
      </trkpt>
      <trkpt lat="49.55124" lon="3.2975">
        <ele>136.4</ele>
        <time>2016-08-27T13:24:28.000Z</time>
      </trkpt>
      <trkpt lat="49.55123" lon="3.29752">
        <ele>136</ele>
        <time>2016-08-27T13:24:29.000Z</time>
      </trkpt>
      <trkpt lat="49.55122" lon="3.29763">
        <ele>135.2</ele>
        <time>2016-08-27T13:24:34.000Z</time>
      </trkpt>
      <trkpt lat="49.55121" lon="3.29766">
        <ele>135.1</ele>
        <time>2016-08-27T13:24:35.000Z</time>
      </trkpt>
      <trkpt lat="49.55119" lon="3.29779">
        <ele>135.2</ele>
        <time>2016-08-27T13:24:40.000Z</time>
      </trkpt>
      <trkpt lat="49.55118" lon="3.29782">
        <ele>135</ele>
        <time>2016-08-27T13:24:41.000Z</time>
      </trkpt>
      <trkpt lat="49.55115" lon="3.2979">
        <ele>134.6</ele>
        <time>2016-08-27T13:24:44.000Z</time>
      </trkpt>
      <trkpt lat="49.55113" lon="3.29794">
        <ele>134.6</ele>
        <time>2016-08-27T13:24:45.000Z</time>
      </trkpt>
      <trkpt lat="49.55108" lon="3.29801">
        <ele>134.2</ele>
        <time>2016-08-27T13:24:47.000Z</time>
      </trkpt>
      <trkpt lat="49.55106" lon="3.29805">
        <ele>134.3</ele>
        <time>2016-08-27T13:24:48.000Z</time>
      </trkpt>
      <trkpt lat="49.55103" lon="3.29813">
        <ele>134.2</ele>
        <time>2016-08-27T13:24:50.000Z</time>
      </trkpt>
      <trkpt lat="49.55102" lon="3.29817">
        <ele>134.3</ele>
        <time>2016-08-27T13:24:51.000Z</time>
      </trkpt>
      <trkpt lat="49.55098" lon="3.29828">
        <ele>134.5</ele>
        <time>2016-08-27T13:24:54.000Z</time>
      </trkpt>
      <trkpt lat="49.55097" lon="3.29831">
        <ele>134.5</ele>
        <time>2016-08-27T13:24:55.000Z</time>
      </trkpt>
      <trkpt lat="49.55093" lon="3.29841">
        <ele>134.8</ele>
        <time>2016-08-27T13:24:58.000Z</time>
      </trkpt>
      <trkpt lat="49.55092" lon="3.29846">
        <ele>134.9</ele>
        <time>2016-08-27T13:24:59.000Z</time>
      </trkpt>
      <trkpt lat="49.55089" lon="3.29858">
        <ele>134.8</ele>
        <time>2016-08-27T13:25:01.000Z</time>
      </trkpt>
      <trkpt lat="49.55087" lon="3.29863">
        <ele>134.6</ele>
        <time>2016-08-27T13:25:02.000Z</time>
      </trkpt>
      <trkpt lat="49.55084" lon="3.29875">
        <ele>134.5</ele>
        <time>2016-08-27T13:25:04.000Z</time>
      </trkpt>
      <trkpt lat="49.55082" lon="3.29881">
        <ele>134.4</ele>
        <time>2016-08-27T13:25:05.000Z</time>
      </trkpt>
      <trkpt lat="49.55081" lon="3.29887">
        <ele>134.5</ele>
        <time>2016-08-27T13:25:06.000Z</time>
      </trkpt>
      <trkpt lat="49.55079" lon="3.29894">
        <ele>134.6</ele>
        <time>2016-08-27T13:25:07.000Z</time>
      </trkpt>
      <trkpt lat="49.55077" lon="3.29902">
        <ele>134.6</ele>
        <time>2016-08-27T13:25:08.000Z</time>
      </trkpt>
      <trkpt lat="49.55075" lon="3.29908">
        <ele>134.7</ele>
        <time>2016-08-27T13:25:09.000Z</time>
      </trkpt>
      <trkpt lat="49.55071" lon="3.29921">
        <ele>135.2</ele>
        <time>2016-08-27T13:25:11.000Z</time>
      </trkpt>
      <trkpt lat="49.55069" lon="3.29928">
        <ele>135.2</ele>
        <time>2016-08-27T13:25:12.000Z</time>
      </trkpt>
      <trkpt lat="49.55067" lon="3.29936">
        <ele>135.3</ele>
        <time>2016-08-27T13:25:13.000Z</time>
      </trkpt>
      <trkpt lat="49.55065" lon="3.29943">
        <ele>135.3</ele>
        <time>2016-08-27T13:25:14.000Z</time>
      </trkpt>
      <trkpt lat="49.55063" lon="3.2995">
        <ele>135.7</ele>
        <time>2016-08-27T13:25:15.000Z</time>
      </trkpt>
      <trkpt lat="49.5506" lon="3.29956">
        <ele>136</ele>
        <time>2016-08-27T13:25:16.000Z</time>
      </trkpt>
      <trkpt lat="49.55059" lon="3.29962">
        <ele>136.3</ele>
        <time>2016-08-27T13:25:17.000Z</time>
      </trkpt>
      <trkpt lat="49.55056" lon="3.29969">
        <ele>136.6</ele>
        <time>2016-08-27T13:25:18.000Z</time>
      </trkpt>
      <trkpt lat="49.55053" lon="3.29981">
        <ele>136.9</ele>
        <time>2016-08-27T13:25:20.000Z</time>
      </trkpt>
      <trkpt lat="49.55052" lon="3.29987">
        <ele>137.2</ele>
        <time>2016-08-27T13:25:21.000Z</time>
      </trkpt>
      <trkpt lat="49.5505" lon="3.29993">
        <ele>137.5</ele>
        <time>2016-08-27T13:25:22.000Z</time>
      </trkpt>
      <trkpt lat="49.5505" lon="3.3">
        <ele>137.6</ele>
        <time>2016-08-27T13:25:23.000Z</time>
      </trkpt>
      <trkpt lat="49.55049" lon="3.30011">
        <ele>137.9</ele>
        <time>2016-08-27T13:25:25.000Z</time>
      </trkpt>
      <trkpt lat="49.55048" lon="3.30017">
        <ele>138.2</ele>
        <time>2016-08-27T13:25:26.000Z</time>
      </trkpt>
      <trkpt lat="49.55047" lon="3.30024">
        <ele>138.5</ele>
        <time>2016-08-27T13:25:27.000Z</time>
      </trkpt>
      <trkpt lat="49.55045" lon="3.30031">
        <ele>138.6</ele>
        <time>2016-08-27T13:25:28.000Z</time>
      </trkpt>
      <trkpt lat="49.55044" lon="3.30038">
        <ele>138.8</ele>
        <time>2016-08-27T13:25:29.000Z</time>
      </trkpt>
      <trkpt lat="49.55043" lon="3.30046">
        <ele>138.8</ele>
        <time>2016-08-27T13:25:30.000Z</time>
      </trkpt>
      <trkpt lat="49.55043" lon="3.30054">
        <ele>138.8</ele>
        <time>2016-08-27T13:25:31.000Z</time>
      </trkpt>
      <trkpt lat="49.55043" lon="3.30062">
        <ele>138.4</ele>
        <time>2016-08-27T13:25:32.000Z</time>
      </trkpt>
      <trkpt lat="49.55043" lon="3.3007">
        <ele>138.3</ele>
        <time>2016-08-27T13:25:33.000Z</time>
      </trkpt>
      <trkpt lat="49.55043" lon="3.30076">
        <ele>138.2</ele>
        <time>2016-08-27T13:25:34.000Z</time>
      </trkpt>
      <trkpt lat="49.55043" lon="3.30089">
        <ele>138.4</ele>
        <time>2016-08-27T13:25:36.000Z</time>
      </trkpt>
      <trkpt lat="49.55044" lon="3.30096">
        <ele>138.5</ele>
        <time>2016-08-27T13:25:37.000Z</time>
      </trkpt>
      <trkpt lat="49.55045" lon="3.30106">
        <ele>138.7</ele>
        <time>2016-08-27T13:25:39.000Z</time>
      </trkpt>
      <trkpt lat="49.55044" lon="3.30113">
        <ele>138.8</ele>
        <time>2016-08-27T13:25:40.000Z</time>
      </trkpt>
      <trkpt lat="49.55045" lon="3.30125">
        <ele>139.2</ele>
        <time>2016-08-27T13:25:43.000Z</time>
      </trkpt>
      <trkpt lat="49.55046" lon="3.30129">
        <ele>139.2</ele>
        <time>2016-08-27T13:25:44.000Z</time>
      </trkpt>
      <trkpt lat="49.55048" lon="3.30142">
        <ele>139.6</ele>
        <time>2016-08-27T13:25:47.000Z</time>
      </trkpt>
      <trkpt lat="49.55049" lon="3.30147">
        <ele>139.8</ele>
        <time>2016-08-27T13:25:48.000Z</time>
      </trkpt>
      <trkpt lat="49.55051" lon="3.30158">
        <ele>140.1</ele>
        <time>2016-08-27T13:25:51.000Z</time>
      </trkpt>
      <trkpt lat="49.55052" lon="3.30163">
        <ele>140.2</ele>
        <time>2016-08-27T13:25:52.000Z</time>
      </trkpt>
      <trkpt lat="49.55055" lon="3.30174">
        <ele>140</ele>
        <time>2016-08-27T13:25:54.000Z</time>
      </trkpt>
      <trkpt lat="49.55057" lon="3.3018">
        <ele>139.8</ele>
        <time>2016-08-27T13:25:55.000Z</time>
      </trkpt>
      <trkpt lat="49.5506" lon="3.30186">
        <ele>139.2</ele>
        <time>2016-08-27T13:25:56.000Z</time>
      </trkpt>
      <trkpt lat="49.55063" lon="3.30191">
        <ele>138.9</ele>
        <time>2016-08-27T13:25:57.000Z</time>
      </trkpt>
      <trkpt lat="49.55066" lon="3.30197">
        <ele>138.9</ele>
        <time>2016-08-27T13:25:58.000Z</time>
      </trkpt>
      <trkpt lat="49.55069" lon="3.30203">
        <ele>138.7</ele>
        <time>2016-08-27T13:25:59.000Z</time>
      </trkpt>
      <trkpt lat="49.55072" lon="3.30214">
        <ele>139</ele>
        <time>2016-08-27T13:26:01.000Z</time>
      </trkpt>
      <trkpt lat="49.55074" lon="3.30219">
        <ele>139.4</ele>
        <time>2016-08-27T13:26:02.000Z</time>
      </trkpt>
      <trkpt lat="49.55076" lon="3.30226">
        <ele>139.6</ele>
        <time>2016-08-27T13:26:03.000Z</time>
      </trkpt>
      <trkpt lat="49.5508" lon="3.30232">
        <ele>140</ele>
        <time>2016-08-27T13:26:04.000Z</time>
      </trkpt>
      <trkpt lat="49.55083" lon="3.30237">
        <ele>140.4</ele>
        <time>2016-08-27T13:26:05.000Z</time>
      </trkpt>
      <trkpt lat="49.55086" lon="3.30243">
        <ele>140.9</ele>
        <time>2016-08-27T13:26:06.000Z</time>
      </trkpt>
      <trkpt lat="49.5509" lon="3.30252">
        <ele>140.8</ele>
        <time>2016-08-27T13:26:07.000Z</time>
      </trkpt>
      <trkpt lat="49.55093" lon="3.30259">
        <ele>141.3</ele>
        <time>2016-08-27T13:26:08.000Z</time>
      </trkpt>
      <trkpt lat="49.55097" lon="3.30268">
        <ele>141.5</ele>
        <time>2016-08-27T13:26:09.000Z</time>
      </trkpt>
      <trkpt lat="49.55099" lon="3.30275">
        <ele>141.9</ele>
        <time>2016-08-27T13:26:10.000Z</time>
      </trkpt>
      <trkpt lat="49.55104" lon="3.30286">
        <ele>142.7</ele>
        <time>2016-08-27T13:26:12.000Z</time>
      </trkpt>
      <trkpt lat="49.55106" lon="3.30292">
        <ele>143</ele>
        <time>2016-08-27T13:26:13.000Z</time>
      </trkpt>
      <trkpt lat="49.55109" lon="3.30297">
        <ele>143.4</ele>
        <time>2016-08-27T13:26:14.000Z</time>
      </trkpt>
      <trkpt lat="49.55114" lon="3.30303">
        <ele>143.4</ele>
        <time>2016-08-27T13:26:15.000Z</time>
      </trkpt>
      <trkpt lat="49.55118" lon="3.30307">
        <ele>143.6</ele>
        <time>2016-08-27T13:26:16.000Z</time>
      </trkpt>
      <trkpt lat="49.55121" lon="3.30313">
        <ele>143.7</ele>
        <time>2016-08-27T13:26:17.000Z</time>
      </trkpt>
      <trkpt lat="49.55126" lon="3.30323">
        <ele>144.2</ele>
        <time>2016-08-27T13:26:19.000Z</time>
      </trkpt>
      <trkpt lat="49.55129" lon="3.30326">
        <ele>144.4</ele>
        <time>2016-08-27T13:26:20.000Z</time>
      </trkpt>
      <trkpt lat="49.55133" lon="3.30332">
        <ele>144.8</ele>
        <time>2016-08-27T13:26:22.000Z</time>
      </trkpt>
      <trkpt lat="49.55136" lon="3.30336">
        <ele>145.1</ele>
        <time>2016-08-27T13:26:23.000Z</time>
      </trkpt>
      <trkpt lat="49.55141" lon="3.30346">
        <ele>145.7</ele>
        <time>2016-08-27T13:26:25.000Z</time>
      </trkpt>
      <trkpt lat="49.55144" lon="3.30351">
        <ele>146.1</ele>
        <time>2016-08-27T13:26:26.000Z</time>
      </trkpt>
      <trkpt lat="49.55148" lon="3.30355">
        <ele>146.6</ele>
        <time>2016-08-27T13:26:27.000Z</time>
      </trkpt>
      <trkpt lat="49.55152" lon="3.30359">
        <ele>146.8</ele>
        <time>2016-08-27T13:26:28.000Z</time>
      </trkpt>
      <trkpt lat="49.55156" lon="3.30364">
        <ele>147.2</ele>
        <time>2016-08-27T13:26:29.000Z</time>
      </trkpt>
      <trkpt lat="49.55159" lon="3.30369">
        <ele>147.8</ele>
        <time>2016-08-27T13:26:30.000Z</time>
      </trkpt>
      <trkpt lat="49.55162" lon="3.30375">
        <ele>148.2</ele>
        <time>2016-08-27T13:26:31.000Z</time>
      </trkpt>
      <trkpt lat="49.55167" lon="3.30381">
        <ele>148.5</ele>
        <time>2016-08-27T13:26:32.000Z</time>
      </trkpt>
      <trkpt lat="49.55172" lon="3.30391">
        <ele>149.1</ele>
        <time>2016-08-27T13:26:34.000Z</time>
      </trkpt>
      <trkpt lat="49.55174" lon="3.30396">
        <ele>149.4</ele>
        <time>2016-08-27T13:26:35.000Z</time>
      </trkpt>
      <trkpt lat="49.55175" lon="3.30406">
        <ele>150.3</ele>
        <time>2016-08-27T13:26:37.000Z</time>
      </trkpt>
      <trkpt lat="49.55176" lon="3.30411">
        <ele>150.8</ele>
        <time>2016-08-27T13:26:38.000Z</time>
      </trkpt>
      <trkpt lat="49.5518" lon="3.30423">
        <ele>151.7</ele>
        <time>2016-08-27T13:26:40.000Z</time>
      </trkpt>
      <trkpt lat="49.55184" lon="3.30429">
        <ele>151.7</ele>
        <time>2016-08-27T13:26:41.000Z</time>
      </trkpt>
      <trkpt lat="49.55187" lon="3.30435">
        <ele>152</ele>
        <time>2016-08-27T13:26:42.000Z</time>
      </trkpt>
      <trkpt lat="49.55191" lon="3.30441">
        <ele>152.3</ele>
        <time>2016-08-27T13:26:43.000Z</time>
      </trkpt>
      <trkpt lat="49.55193" lon="3.30446">
        <ele>152.8</ele>
        <time>2016-08-27T13:26:44.000Z</time>
      </trkpt>
      <trkpt lat="49.55196" lon="3.30452">
        <ele>153.2</ele>
        <time>2016-08-27T13:26:45.000Z</time>
      </trkpt>
      <trkpt lat="49.55199" lon="3.30458">
        <ele>153.5</ele>
        <time>2016-08-27T13:26:46.000Z</time>
      </trkpt>
      <trkpt lat="49.55202" lon="3.30463">
        <ele>153.8</ele>
        <time>2016-08-27T13:26:47.000Z</time>
      </trkpt>
      <trkpt lat="49.55207" lon="3.30474">
        <ele>154.8</ele>
        <time>2016-08-27T13:26:49.000Z</time>
      </trkpt>
      <trkpt lat="49.55211" lon="3.30478">
        <ele>155.1</ele>
        <time>2016-08-27T13:26:50.000Z</time>
      </trkpt>
      <trkpt lat="49.55215" lon="3.30483">
        <ele>155.4</ele>
        <time>2016-08-27T13:26:51.000Z</time>
      </trkpt>
      <trkpt lat="49.55219" lon="3.30488">
        <ele>155.8</ele>
        <time>2016-08-27T13:26:52.000Z</time>
      </trkpt>
      <trkpt lat="49.55222" lon="3.30494">
        <ele>156.1</ele>
        <time>2016-08-27T13:26:53.000Z</time>
      </trkpt>
      <trkpt lat="49.55225" lon="3.305">
        <ele>156.4</ele>
        <time>2016-08-27T13:26:54.000Z</time>
      </trkpt>
      <trkpt lat="49.55227" lon="3.30505">
        <ele>156.8</ele>
        <time>2016-08-27T13:26:55.000Z</time>
      </trkpt>
      <trkpt lat="49.5523" lon="3.30511">
        <ele>156.9</ele>
        <time>2016-08-27T13:26:56.000Z</time>
      </trkpt>
      <trkpt lat="49.55234" lon="3.30518">
        <ele>156.9</ele>
        <time>2016-08-27T13:26:57.000Z</time>
      </trkpt>
      <trkpt lat="49.55238" lon="3.30525">
        <ele>157.2</ele>
        <time>2016-08-27T13:26:58.000Z</time>
      </trkpt>
      <trkpt lat="49.55242" lon="3.30532">
        <ele>157.7</ele>
        <time>2016-08-27T13:26:59.000Z</time>
      </trkpt>
      <trkpt lat="49.55245" lon="3.30539">
        <ele>157.9</ele>
        <time>2016-08-27T13:27:00.000Z</time>
      </trkpt>
      <trkpt lat="49.55249" lon="3.30546">
        <ele>158.1</ele>
        <time>2016-08-27T13:27:01.000Z</time>
      </trkpt>
      <trkpt lat="49.55254" lon="3.30551">
        <ele>158.5</ele>
        <time>2016-08-27T13:27:02.000Z</time>
      </trkpt>
      <trkpt lat="49.55258" lon="3.30558">
        <ele>158.8</ele>
        <time>2016-08-27T13:27:03.000Z</time>
      </trkpt>
      <trkpt lat="49.55262" lon="3.30564">
        <ele>159.1</ele>
        <time>2016-08-27T13:27:04.000Z</time>
      </trkpt>
      <trkpt lat="49.55266" lon="3.3057">
        <ele>159.3</ele>
        <time>2016-08-27T13:27:05.000Z</time>
      </trkpt>
      <trkpt lat="49.5527" lon="3.30577">
        <ele>159.7</ele>
        <time>2016-08-27T13:27:06.000Z</time>
      </trkpt>
      <trkpt lat="49.55273" lon="3.30584">
        <ele>160.1</ele>
        <time>2016-08-27T13:27:07.000Z</time>
      </trkpt>
      <trkpt lat="49.55276" lon="3.3059">
        <ele>160.6</ele>
        <time>2016-08-27T13:27:08.000Z</time>
      </trkpt>
      <trkpt lat="49.55279" lon="3.30596">
        <ele>161</ele>
        <time>2016-08-27T13:27:09.000Z</time>
      </trkpt>
      <trkpt lat="49.55282" lon="3.30602">
        <ele>161.3</ele>
        <time>2016-08-27T13:27:10.000Z</time>
      </trkpt>
      <trkpt lat="49.55286" lon="3.30608">
        <ele>161.5</ele>
        <time>2016-08-27T13:27:11.000Z</time>
      </trkpt>
      <trkpt lat="49.5529" lon="3.30614">
        <ele>161.7</ele>
        <time>2016-08-27T13:27:12.000Z</time>
      </trkpt>
      <trkpt lat="49.55292" lon="3.30621">
        <ele>161.9</ele>
        <time>2016-08-27T13:27:13.000Z</time>
      </trkpt>
      <trkpt lat="49.55295" lon="3.30628">
        <ele>162.1</ele>
        <time>2016-08-27T13:27:14.000Z</time>
      </trkpt>
      <trkpt lat="49.55299" lon="3.30634">
        <ele>162.2</ele>
        <time>2016-08-27T13:27:15.000Z</time>
      </trkpt>
      <trkpt lat="49.55302" lon="3.30641">
        <ele>162.3</ele>
        <time>2016-08-27T13:27:16.000Z</time>
      </trkpt>
      <trkpt lat="49.55305" lon="3.30648">
        <ele>162.6</ele>
        <time>2016-08-27T13:27:17.000Z</time>
      </trkpt>
      <trkpt lat="49.55308" lon="3.30655">
        <ele>162.9</ele>
        <time>2016-08-27T13:27:18.000Z</time>
      </trkpt>
      <trkpt lat="49.55312" lon="3.3066">
        <ele>163.2</ele>
        <time>2016-08-27T13:27:19.000Z</time>
      </trkpt>
      <trkpt lat="49.55316" lon="3.30665">
        <ele>163.4</ele>
        <time>2016-08-27T13:27:20.000Z</time>
      </trkpt>
      <trkpt lat="49.5532" lon="3.3067">
        <ele>163.5</ele>
        <time>2016-08-27T13:27:21.000Z</time>
      </trkpt>
      <trkpt lat="49.55324" lon="3.30676">
        <ele>163.9</ele>
        <time>2016-08-27T13:27:22.000Z</time>
      </trkpt>
      <trkpt lat="49.55327" lon="3.30681">
        <ele>164.2</ele>
        <time>2016-08-27T13:27:23.000Z</time>
      </trkpt>
      <trkpt lat="49.55331" lon="3.30687">
        <ele>164.7</ele>
        <time>2016-08-27T13:27:24.000Z</time>
      </trkpt>
      <trkpt lat="49.55334" lon="3.30693">
        <ele>165.1</ele>
        <time>2016-08-27T13:27:25.000Z</time>
      </trkpt>
      <trkpt lat="49.55338" lon="3.30696">
        <ele>165.7</ele>
        <time>2016-08-27T13:27:26.000Z</time>
      </trkpt>
      <trkpt lat="49.55342" lon="3.307">
        <ele>166.2</ele>
        <time>2016-08-27T13:27:27.000Z</time>
      </trkpt>
      <trkpt lat="49.55347" lon="3.30704">
        <ele>166.3</ele>
        <time>2016-08-27T13:27:28.000Z</time>
      </trkpt>
      <trkpt lat="49.55352" lon="3.30708">
        <ele>166.3</ele>
        <time>2016-08-27T13:27:29.000Z</time>
      </trkpt>
      <trkpt lat="49.55355" lon="3.30712">
        <ele>166.4</ele>
        <time>2016-08-27T13:27:30.000Z</time>
      </trkpt>
      <trkpt lat="49.55362" lon="3.30717">
        <ele>167.1</ele>
        <time>2016-08-27T13:27:32.000Z</time>
      </trkpt>
      <trkpt lat="49.55366" lon="3.30719">
        <ele>167.2</ele>
        <time>2016-08-27T13:27:33.000Z</time>
      </trkpt>
      <trkpt lat="49.55371" lon="3.30731">
        <ele>169.5</ele>
        <time>2016-08-27T13:27:38.000Z</time>
      </trkpt>
      <trkpt lat="49.55372" lon="3.30731">
        <ele>169.9</ele>
        <time>2016-08-27T13:27:39.000Z</time>
      </trkpt>
      <trkpt lat="49.55369" lon="3.30744">
        <ele>175.1</ele>
        <time>2016-08-27T13:27:52.000Z</time>
      </trkpt>
      <trkpt lat="49.55369" lon="3.30746">
        <ele>175.5</ele>
        <time>2016-08-27T13:27:53.000Z</time>
      </trkpt>
      <trkpt lat="49.55368" lon="3.30759">
        <ele>177.8</ele>
        <time>2016-08-27T13:28:01.000Z</time>
      </trkpt>
      <trkpt lat="49.55367" lon="3.3076">
        <ele>178.1</ele>
        <time>2016-08-27T13:28:02.000Z</time>
      </trkpt>
      <trkpt lat="49.5536" lon="3.30766">
        <ele>179.4</ele>
        <time>2016-08-27T13:28:14.000Z</time>
      </trkpt>
      <trkpt lat="49.55359" lon="3.30767">
        <ele>179.5</ele>
        <time>2016-08-27T13:28:15.000Z</time>
      </trkpt>
      <trkpt lat="49.5535" lon="3.3077">
        <ele>180.2</ele>
        <time>2016-08-27T13:28:21.000Z</time>
      </trkpt>
      <trkpt lat="49.55349" lon="3.3077">
        <ele>180.3</ele>
        <time>2016-08-27T13:28:22.000Z</time>
      </trkpt>
      <trkpt lat="49.55341" lon="3.30773">
        <ele>181.2</ele>
        <time>2016-08-27T13:28:32.000Z</time>
      </trkpt>
      <trkpt lat="49.5534" lon="3.30774">
        <ele>181.3</ele>
        <time>2016-08-27T13:28:33.000Z</time>
      </trkpt>
      <trkpt lat="49.55331" lon="3.30772">
        <ele>181.1</ele>
        <time>2016-08-27T13:28:43.000Z</time>
      </trkpt>
      <trkpt lat="49.5533" lon="3.30772">
        <ele>181.4</ele>
        <time>2016-08-27T13:28:44.000Z</time>
      </trkpt>
      <trkpt lat="49.55323" lon="3.30769">
        <ele>181.6</ele>
        <time>2016-08-27T13:28:49.000Z</time>
      </trkpt>
      <trkpt lat="49.55321" lon="3.30768">
        <ele>181.7</ele>
        <time>2016-08-27T13:28:50.000Z</time>
      </trkpt>
      <trkpt lat="49.55313" lon="3.30767">
        <ele>182.3</ele>
        <time>2016-08-27T13:28:56.000Z</time>
      </trkpt>
      <trkpt lat="49.55312" lon="3.30767">
        <ele>182.3</ele>
        <time>2016-08-27T13:28:57.000Z</time>
      </trkpt>
      <trkpt lat="49.55303" lon="3.30764">
        <ele>182</ele>
        <time>2016-08-27T13:29:02.000Z</time>
      </trkpt>
      <trkpt lat="49.55303" lon="3.30764">
        <ele>181.9</ele>
        <time>2016-08-27T13:29:03.000Z</time>
      </trkpt>
      <trkpt lat="49.55295" lon="3.3076">
        <ele>181.6</ele>
        <time>2016-08-27T13:29:09.000Z</time>
      </trkpt>
      <trkpt lat="49.55293" lon="3.30759">
        <ele>181.3</ele>
        <time>2016-08-27T13:29:10.000Z</time>
      </trkpt>
      <trkpt lat="49.55284" lon="3.30759">
        <ele>182.7</ele>
        <time>2016-08-27T13:29:16.000Z</time>
      </trkpt>
      <trkpt lat="49.55283" lon="3.30759">
        <ele>182.9</ele>
        <time>2016-08-27T13:29:17.000Z</time>
      </trkpt>
      <trkpt lat="49.55275" lon="3.30759">
        <ele>183.2</ele>
        <time>2016-08-27T13:29:23.000Z</time>
      </trkpt>
      <trkpt lat="49.55273" lon="3.3076">
        <ele>183.4</ele>
        <time>2016-08-27T13:29:24.000Z</time>
      </trkpt>
      <trkpt lat="49.5527" lon="3.30761">
        <ele>183.4</ele>
        <time>2016-08-27T13:29:25.000Z</time>
      </trkpt>
      <trkpt lat="49.55264" lon="3.30761">
        <ele>183.2</ele>
        <time>2016-08-27T13:29:26.000Z</time>
      </trkpt>
      <trkpt lat="49.55256" lon="3.30761">
        <ele>183.9</ele>
        <time>2016-08-27T13:29:31.000Z</time>
      </trkpt>
      <trkpt lat="49.55254" lon="3.30762">
        <ele>183.9</ele>
        <time>2016-08-27T13:29:32.000Z</time>
      </trkpt>
      <trkpt lat="49.55245" lon="3.30761">
        <ele>184.2</ele>
        <time>2016-08-27T13:29:36.000Z</time>
      </trkpt>
      <trkpt lat="49.55244" lon="3.30761">
        <ele>184.3</ele>
        <time>2016-08-27T13:29:37.000Z</time>
      </trkpt>
      <trkpt lat="49.55236" lon="3.30759">
        <ele>185.8</ele>
        <time>2016-08-27T13:29:42.000Z</time>
      </trkpt>
      <trkpt lat="49.55234" lon="3.30759">
        <ele>186</ele>
        <time>2016-08-27T13:29:43.000Z</time>
      </trkpt>
      <trkpt lat="49.55227" lon="3.3075">
        <ele>187</ele>
        <time>2016-08-27T13:29:51.000Z</time>
      </trkpt>
      <trkpt lat="49.55226" lon="3.30749">
        <ele>187.1</ele>
        <time>2016-08-27T13:29:52.000Z</time>
      </trkpt>
      <trkpt lat="49.5522" lon="3.30739">
        <ele>187.7</ele>
        <time>2016-08-27T13:30:00.000Z</time>
      </trkpt>
      <trkpt lat="49.5522" lon="3.30737">
        <ele>187.6</ele>
        <time>2016-08-27T13:30:01.000Z</time>
      </trkpt>
      <trkpt lat="49.55213" lon="3.30731">
        <ele>187.4</ele>
        <time>2016-08-27T13:30:06.000Z</time>
      </trkpt>
      <trkpt lat="49.5521" lon="3.3073">
        <ele>187.4</ele>
        <time>2016-08-27T13:30:07.000Z</time>
      </trkpt>
      <trkpt lat="49.55203" lon="3.30726">
        <ele>187.9</ele>
        <time>2016-08-27T13:30:14.000Z</time>
      </trkpt>
      <trkpt lat="49.55202" lon="3.30725">
        <ele>188.4</ele>
        <time>2016-08-27T13:30:15.000Z</time>
      </trkpt>
      <trkpt lat="49.55197" lon="3.30716">
        <ele>189.2</ele>
        <time>2016-08-27T13:30:21.000Z</time>
      </trkpt>
      <trkpt lat="49.55196" lon="3.30713">
        <ele>189.2</ele>
        <time>2016-08-27T13:30:22.000Z</time>
      </trkpt>
      <trkpt lat="49.5519" lon="3.30705">
        <ele>189.6</ele>
        <time>2016-08-27T13:30:28.000Z</time>
      </trkpt>
      <trkpt lat="49.55189" lon="3.30704">
        <ele>189.5</ele>
        <time>2016-08-27T13:30:29.000Z</time>
      </trkpt>
      <trkpt lat="49.55183" lon="3.30699">
        <ele>189.6</ele>
        <time>2016-08-27T13:30:33.000Z</time>
      </trkpt>
      <trkpt lat="49.55182" lon="3.30698">
        <ele>189.7</ele>
        <time>2016-08-27T13:30:34.000Z</time>
      </trkpt>
      <trkpt lat="49.55181" lon="3.30697">
        <ele>189.9</ele>
        <time>2016-08-27T13:30:35.000Z</time>
      </trkpt>
      <trkpt lat="49.55176" lon="3.30687">
        <ele>190.7</ele>
        <time>2016-08-27T13:30:41.000Z</time>
      </trkpt>
      <trkpt lat="49.55175" lon="3.30685">
        <ele>190.9</ele>
        <time>2016-08-27T13:30:42.000Z</time>
      </trkpt>
      <trkpt lat="49.55173" lon="3.30681">
        <ele>191.3</ele>
        <time>2016-08-27T13:30:45.000Z</time>
      </trkpt>
      <trkpt lat="49.55172" lon="3.3068">
        <ele>191.1</ele>
        <time>2016-08-27T13:30:46.000Z</time>
      </trkpt>
      <trkpt lat="49.55171" lon="3.30679">
        <ele>190.8</ele>
        <time>2016-08-27T13:30:47.000Z</time>
      </trkpt>
      <trkpt lat="49.55164" lon="3.30672">
        <ele>191</ele>
        <time>2016-08-27T13:30:53.000Z</time>
      </trkpt>
      <trkpt lat="49.55163" lon="3.30671">
        <ele>191.3</ele>
        <time>2016-08-27T13:30:54.000Z</time>
      </trkpt>
      <trkpt lat="49.55157" lon="3.30666">
        <ele>191.1</ele>
        <time>2016-08-27T13:31:00.000Z</time>
      </trkpt>
      <trkpt lat="49.55155" lon="3.30663">
        <ele>190.5</ele>
        <time>2016-08-27T13:31:01.000Z</time>
      </trkpt>
      <trkpt lat="49.55149" lon="3.30655">
        <ele>190</ele>
        <time>2016-08-27T13:31:06.000Z</time>
      </trkpt>
      <trkpt lat="49.55148" lon="3.30654">
        <ele>190</ele>
        <time>2016-08-27T13:31:07.000Z</time>
      </trkpt>
      <trkpt lat="49.55141" lon="3.30649">
        <ele>189.4</ele>
        <time>2016-08-27T13:31:12.000Z</time>
      </trkpt>
      <trkpt lat="49.55139" lon="3.30648">
        <ele>189.3</ele>
        <time>2016-08-27T13:31:13.000Z</time>
      </trkpt>
      <trkpt lat="49.55131" lon="3.30646">
        <ele>189</ele>
        <time>2016-08-27T13:31:17.000Z</time>
      </trkpt>
      <trkpt lat="49.55129" lon="3.30645">
        <ele>188.8</ele>
        <time>2016-08-27T13:31:18.000Z</time>
      </trkpt>
      <trkpt lat="49.55128" lon="3.30644">
        <ele>188.8</ele>
        <time>2016-08-27T13:31:19.000Z</time>
      </trkpt>
      <trkpt lat="49.55126" lon="3.30643">
        <ele>188.9</ele>
        <time>2016-08-27T13:31:20.000Z</time>
      </trkpt>
      <trkpt lat="49.55125" lon="3.30642">
        <ele>188.8</ele>
        <time>2016-08-27T13:31:21.000Z</time>
      </trkpt>
      <trkpt lat="49.55122" lon="3.30639">
        <ele>188.8</ele>
        <time>2016-08-27T13:31:29.000Z</time>
      </trkpt>
      <trkpt lat="49.55114" lon="3.30631">
        <ele>188.8</ele>
        <time>2016-08-27T13:31:30.000Z</time>
      </trkpt>
      <trkpt lat="49.55107" lon="3.30623">
        <ele>189.2</ele>
        <time>2016-08-27T13:31:37.000Z</time>
      </trkpt>
      <trkpt lat="49.55107" lon="3.30622">
        <ele>189.3</ele>
        <time>2016-08-27T13:31:38.000Z</time>
      </trkpt>
      <trkpt lat="49.55107" lon="3.30622">
        <ele>189.5</ele>
        <time>2016-08-27T13:31:39.000Z</time>
      </trkpt>
      <trkpt lat="49.55106" lon="3.30621">
        <ele>189.7</ele>
        <time>2016-08-27T13:31:40.000Z</time>
      </trkpt>
      <trkpt lat="49.55104" lon="3.30617">
        <ele>189.3</ele>
        <time>2016-08-27T13:31:44.000Z</time>
      </trkpt>
      <trkpt lat="49.551" lon="3.30612">
        <ele>188.1</ele>
        <time>2016-08-27T13:31:45.000Z</time>
      </trkpt>
      <trkpt lat="49.55093" lon="3.30608">
        <ele>188.2</ele>
        <time>2016-08-27T13:31:50.000Z</time>
      </trkpt>
      <trkpt lat="49.55092" lon="3.30607">
        <ele>188.2</ele>
        <time>2016-08-27T13:31:51.000Z</time>
      </trkpt>
      <trkpt lat="49.55084" lon="3.30601">
        <ele>187.8</ele>
        <time>2016-08-27T13:31:55.000Z</time>
      </trkpt>
      <trkpt lat="49.55082" lon="3.30599">
        <ele>187.6</ele>
        <time>2016-08-27T13:31:56.000Z</time>
      </trkpt>
      <trkpt lat="49.55074" lon="3.30591">
        <ele>187.1</ele>
        <time>2016-08-27T13:32:00.000Z</time>
      </trkpt>
      <trkpt lat="49.55073" lon="3.3059">
        <ele>187</ele>
        <time>2016-08-27T13:32:01.000Z</time>
      </trkpt>
      <trkpt lat="49.55072" lon="3.30589">
        <ele>186.9</ele>
        <time>2016-08-27T13:32:02.000Z</time>
      </trkpt>
      <trkpt lat="49.55071" lon="3.30588">
        <ele>186.8</ele>
        <time>2016-08-27T13:32:08.000Z</time>
      </trkpt>
      <trkpt lat="49.55066" lon="3.30578">
        <ele>187.3</ele>
        <time>2016-08-27T13:32:09.000Z</time>
      </trkpt>
      <trkpt lat="49.5506" lon="3.30574">
        <ele>187.6</ele>
        <time>2016-08-27T13:32:14.000Z</time>
      </trkpt>
      <trkpt lat="49.55057" lon="3.30573">
        <ele>187.6</ele>
        <time>2016-08-27T13:32:15.000Z</time>
      </trkpt>
      <trkpt lat="49.55049" lon="3.30566">
        <ele>188.3</ele>
        <time>2016-08-27T13:32:20.000Z</time>
      </trkpt>
      <trkpt lat="49.55049" lon="3.30563">
        <ele>188.5</ele>
        <time>2016-08-27T13:32:21.000Z</time>
      </trkpt>
      <trkpt lat="49.55045" lon="3.30553">
        <ele>190.2</ele>
        <time>2016-08-27T13:32:28.000Z</time>
      </trkpt>
      <trkpt lat="49.55044" lon="3.30551">
        <ele>190.2</ele>
        <time>2016-08-27T13:32:29.000Z</time>
      </trkpt>
      <trkpt lat="49.55039" lon="3.30541">
        <ele>191.1</ele>
        <time>2016-08-27T13:32:34.000Z</time>
      </trkpt>
      <trkpt lat="49.55038" lon="3.30539">
        <ele>191</ele>
        <time>2016-08-27T13:32:35.000Z</time>
      </trkpt>
      <trkpt lat="49.55032" lon="3.3053">
        <ele>191.2</ele>
        <time>2016-08-27T13:32:40.000Z</time>
      </trkpt>
      <trkpt lat="49.5503" lon="3.30528">
        <ele>191.2</ele>
        <time>2016-08-27T13:32:41.000Z</time>
      </trkpt>
      <trkpt lat="49.55026" lon="3.30519">
        <ele>192</ele>
        <time>2016-08-27T13:32:46.000Z</time>
      </trkpt>
      <trkpt lat="49.55025" lon="3.30516">
        <ele>191.9</ele>
        <time>2016-08-27T13:32:47.000Z</time>
      </trkpt>
      <trkpt lat="49.5502" lon="3.30504">
        <ele>192.3</ele>
        <time>2016-08-27T13:32:53.000Z</time>
      </trkpt>
      <trkpt lat="49.55019" lon="3.30502">
        <ele>192.5</ele>
        <time>2016-08-27T13:32:54.000Z</time>
      </trkpt>
      <trkpt lat="49.55013" lon="3.30493">
        <ele>192.9</ele>
        <time>2016-08-27T13:33:00.000Z</time>
      </trkpt>
      <trkpt lat="49.55012" lon="3.30491">
        <ele>192.8</ele>
        <time>2016-08-27T13:33:01.000Z</time>
      </trkpt>
      <trkpt lat="49.55008" lon="3.30482">
        <ele>192.3</ele>
        <time>2016-08-27T13:33:06.000Z</time>
      </trkpt>
      <trkpt lat="49.55007" lon="3.30479">
        <ele>192.1</ele>
        <time>2016-08-27T13:33:07.000Z</time>
      </trkpt>
      <trkpt lat="49.55003" lon="3.30467">
        <ele>192.1</ele>
        <time>2016-08-27T13:33:12.000Z</time>
      </trkpt>
      <trkpt lat="49.55001" lon="3.30464">
        <ele>192.3</ele>
        <time>2016-08-27T13:33:13.000Z</time>
      </trkpt>
      <trkpt lat="49.54996" lon="3.30455">
        <ele>192.8</ele>
        <time>2016-08-27T13:33:17.000Z</time>
      </trkpt>
      <trkpt lat="49.54995" lon="3.30452">
        <ele>192.6</ele>
        <time>2016-08-27T13:33:18.000Z</time>
      </trkpt>
      <trkpt lat="49.5499" lon="3.30442">
        <ele>193.2</ele>
        <time>2016-08-27T13:33:23.000Z</time>
      </trkpt>
      <trkpt lat="49.54989" lon="3.3044">
        <ele>193.4</ele>
        <time>2016-08-27T13:33:24.000Z</time>
      </trkpt>
      <trkpt lat="49.54985" lon="3.30429">
        <ele>193.6</ele>
        <time>2016-08-27T13:33:29.000Z</time>
      </trkpt>
      <trkpt lat="49.54984" lon="3.30426">
        <ele>193.4</ele>
        <time>2016-08-27T13:33:30.000Z</time>
      </trkpt>
      <trkpt lat="49.54979" lon="3.30416">
        <ele>192.9</ele>
        <time>2016-08-27T13:33:34.000Z</time>
      </trkpt>
      <trkpt lat="49.54979" lon="3.30414">
        <ele>192.8</ele>
        <time>2016-08-27T13:33:35.000Z</time>
      </trkpt>
      <trkpt lat="49.54973" lon="3.30404">
        <ele>192</ele>
        <time>2016-08-27T13:33:42.000Z</time>
      </trkpt>
      <trkpt lat="49.54973" lon="3.30402">
        <ele>191.8</ele>
        <time>2016-08-27T13:33:43.000Z</time>
      </trkpt>
      <trkpt lat="49.54972" lon="3.30401">
        <ele>191.7</ele>
        <time>2016-08-27T13:33:44.000Z</time>
      </trkpt>
      <trkpt lat="49.54972" lon="3.30399">
        <ele>191.6</ele>
        <time>2016-08-27T13:33:46.000Z</time>
      </trkpt>
      <trkpt lat="49.54971" lon="3.30397">
        <ele>191.8</ele>
        <time>2016-08-27T13:33:47.000Z</time>
      </trkpt>
      <trkpt lat="49.54964" lon="3.30389">
        <ele>192</ele>
        <time>2016-08-27T13:33:52.000Z</time>
      </trkpt>
      <trkpt lat="49.54964" lon="3.30388">
        <ele>192.5</ele>
        <time>2016-08-27T13:33:53.000Z</time>
      </trkpt>
      <trkpt lat="49.54959" lon="3.30378">
        <ele>192.5</ele>
        <time>2016-08-27T13:33:59.000Z</time>
      </trkpt>
      <trkpt lat="49.54958" lon="3.30376">
        <ele>192.7</ele>
        <time>2016-08-27T13:34:00.000Z</time>
      </trkpt>
      <trkpt lat="49.54955" lon="3.30366">
        <ele>192.3</ele>
        <time>2016-08-27T13:34:04.000Z</time>
      </trkpt>
      <trkpt lat="49.54954" lon="3.30363">
        <ele>192.1</ele>
        <time>2016-08-27T13:34:05.000Z</time>
      </trkpt>
      <trkpt lat="49.54949" lon="3.30353">
        <ele>192.4</ele>
        <time>2016-08-27T13:34:09.000Z</time>
      </trkpt>
      <trkpt lat="49.54948" lon="3.30351">
        <ele>192.6</ele>
        <time>2016-08-27T13:34:10.000Z</time>
      </trkpt>
      <trkpt lat="49.54943" lon="3.30339">
        <ele>193.1</ele>
        <time>2016-08-27T13:34:16.000Z</time>
      </trkpt>
      <trkpt lat="49.54943" lon="3.30337">
        <ele>193.4</ele>
        <time>2016-08-27T13:34:17.000Z</time>
      </trkpt>
      <trkpt lat="49.54941" lon="3.30325">
        <ele>193.6</ele>
        <time>2016-08-27T13:34:23.000Z</time>
      </trkpt>
      <trkpt lat="49.54941" lon="3.30322">
        <ele>193.4</ele>
        <time>2016-08-27T13:34:24.000Z</time>
      </trkpt>
      <trkpt lat="49.54941" lon="3.3032">
        <ele>193.3</ele>
        <time>2016-08-27T13:34:25.000Z</time>
      </trkpt>
      <trkpt lat="49.54941" lon="3.30318">
        <ele>193.3</ele>
        <time>2016-08-27T13:34:26.000Z</time>
      </trkpt>
      <trkpt lat="49.54941" lon="3.30316">
        <ele>193</ele>
        <time>2016-08-27T13:34:27.000Z</time>
      </trkpt>
      <trkpt lat="49.54943" lon="3.30315">
        <ele>191.3</ele>
        <time>2016-08-27T13:34:28.000Z</time>
      </trkpt>
      <trkpt lat="49.54942" lon="3.30302">
        <ele>190.8</ele>
        <time>2016-08-27T13:34:34.000Z</time>
      </trkpt>
      <trkpt lat="49.54942" lon="3.303">
        <ele>191</ele>
        <time>2016-08-27T13:34:35.000Z</time>
      </trkpt>
      <trkpt lat="49.54941" lon="3.30288">
        <ele>192</ele>
        <time>2016-08-27T13:34:41.000Z</time>
      </trkpt>
      <trkpt lat="49.5494" lon="3.30285">
        <ele>191.9</ele>
        <time>2016-08-27T13:34:42.000Z</time>
      </trkpt>
      <trkpt lat="49.54938" lon="3.30274">
        <ele>191</ele>
        <time>2016-08-27T13:34:47.000Z</time>
      </trkpt>
      <trkpt lat="49.54938" lon="3.3027">
        <ele>189.6</ele>
        <time>2016-08-27T13:34:48.000Z</time>
      </trkpt>
      <trkpt lat="49.54935" lon="3.30258">
        <ele>188.5</ele>
        <time>2016-08-27T13:34:52.000Z</time>
      </trkpt>
      <trkpt lat="49.54934" lon="3.30256">
        <ele>188.3</ele>
        <time>2016-08-27T13:34:53.000Z</time>
      </trkpt>
      <trkpt lat="49.54929" lon="3.30244">
        <ele>188.4</ele>
        <time>2016-08-27T13:34:58.000Z</time>
      </trkpt>
      <trkpt lat="49.54929" lon="3.30242">
        <ele>188.7</ele>
        <time>2016-08-27T13:34:59.000Z</time>
      </trkpt>
      <trkpt lat="49.54928" lon="3.30237">
        <ele>189.2</ele>
        <time>2016-08-27T13:35:02.000Z</time>
      </trkpt>
      <trkpt lat="49.54928" lon="3.30235">
        <ele>189.3</ele>
        <time>2016-08-27T13:35:03.000Z</time>
      </trkpt>
      <trkpt lat="49.54928" lon="3.30233">
        <ele>189.2</ele>
        <time>2016-08-27T13:35:06.000Z</time>
      </trkpt>
      <trkpt lat="49.54928" lon="3.30226">
        <ele>189.7</ele>
        <time>2016-08-27T13:35:07.000Z</time>
      </trkpt>
      <trkpt lat="49.54925" lon="3.30214">
        <ele>190.7</ele>
        <time>2016-08-27T13:35:12.000Z</time>
      </trkpt>
      <trkpt lat="49.54924" lon="3.30211">
        <ele>190.8</ele>
        <time>2016-08-27T13:35:13.000Z</time>
      </trkpt>
      <trkpt lat="49.54925" lon="3.30198">
        <ele>188.5</ele>
        <time>2016-08-27T13:35:19.000Z</time>
      </trkpt>
      <trkpt lat="49.54925" lon="3.30196">
        <ele>188.7</ele>
        <time>2016-08-27T13:35:20.000Z</time>
      </trkpt>
      <trkpt lat="49.54919" lon="3.30188">
        <ele>188.1</ele>
        <time>2016-08-27T13:35:24.000Z</time>
      </trkpt>
      <trkpt lat="49.54919" lon="3.30186">
        <ele>188.2</ele>
        <time>2016-08-27T13:35:25.000Z</time>
      </trkpt>
      <trkpt lat="49.54916" lon="3.30175">
        <ele>189.6</ele>
        <time>2016-08-27T13:35:31.000Z</time>
      </trkpt>
      <trkpt lat="49.54914" lon="3.30173">
        <ele>189.3</ele>
        <time>2016-08-27T13:35:32.000Z</time>
      </trkpt>
      <trkpt lat="49.54909" lon="3.30165">
        <ele>189.3</ele>
        <time>2016-08-27T13:35:36.000Z</time>
      </trkpt>
      <trkpt lat="49.54908" lon="3.30164">
        <ele>189.7</ele>
        <time>2016-08-27T13:35:37.000Z</time>
      </trkpt>
      <trkpt lat="49.54903" lon="3.30154">
        <ele>191</ele>
        <time>2016-08-27T13:35:41.000Z</time>
      </trkpt>
      <trkpt lat="49.54903" lon="3.30152">
        <ele>191</ele>
        <time>2016-08-27T13:35:42.000Z</time>
      </trkpt>
      <trkpt lat="49.54898" lon="3.30141">
        <ele>191.9</ele>
        <time>2016-08-27T13:35:48.000Z</time>
      </trkpt>
      <trkpt lat="49.54898" lon="3.30138">
        <ele>191.7</ele>
        <time>2016-08-27T13:35:49.000Z</time>
      </trkpt>
      <trkpt lat="49.54897" lon="3.30125">
        <ele>192.3</ele>
        <time>2016-08-27T13:35:55.000Z</time>
      </trkpt>
      <trkpt lat="49.54896" lon="3.30123">
        <ele>192.4</ele>
        <time>2016-08-27T13:35:56.000Z</time>
      </trkpt>
      <trkpt lat="49.54892" lon="3.30114">
        <ele>191.8</ele>
        <time>2016-08-27T13:36:00.000Z</time>
      </trkpt>
      <trkpt lat="49.5489" lon="3.30112">
        <ele>191.7</ele>
        <time>2016-08-27T13:36:01.000Z</time>
      </trkpt>
      <trkpt lat="49.54885" lon="3.30104">
        <ele>191.3</ele>
        <time>2016-08-27T13:36:05.000Z</time>
      </trkpt>
      <trkpt lat="49.54884" lon="3.30102">
        <ele>190.9</ele>
        <time>2016-08-27T13:36:06.000Z</time>
      </trkpt>
      <trkpt lat="49.54883" lon="3.30101">
        <ele>190.7</ele>
        <time>2016-08-27T13:36:07.000Z</time>
      </trkpt>
      <trkpt lat="49.54882" lon="3.30098">
        <ele>190.5</ele>
        <time>2016-08-27T13:36:08.000Z</time>
      </trkpt>
      <trkpt lat="49.5488" lon="3.30087">
        <ele>190.4</ele>
        <time>2016-08-27T13:36:14.000Z</time>
      </trkpt>
      <trkpt lat="49.54879" lon="3.30085">
        <ele>190.7</ele>
        <time>2016-08-27T13:36:15.000Z</time>
      </trkpt>
      <trkpt lat="49.54875" lon="3.30073">
        <ele>191</ele>
        <time>2016-08-27T13:36:23.000Z</time>
      </trkpt>
      <trkpt lat="49.54873" lon="3.30071">
        <ele>190.6</ele>
        <time>2016-08-27T13:36:24.000Z</time>
      </trkpt>
      <trkpt lat="49.54871" lon="3.30061">
        <ele>191</ele>
        <time>2016-08-27T13:36:28.000Z</time>
      </trkpt>
      <trkpt lat="49.54871" lon="3.30059">
        <ele>191</ele>
        <time>2016-08-27T13:36:29.000Z</time>
      </trkpt>
      <trkpt lat="49.54871" lon="3.30057">
        <ele>191.3</ele>
        <time>2016-08-27T13:36:39.000Z</time>
      </trkpt>
      <trkpt lat="49.54867" lon="3.30038">
        <ele>190.7</ele>
        <time>2016-08-27T13:36:40.000Z</time>
      </trkpt>
      <trkpt lat="49.54866" lon="3.30036">
        <ele>190.7</ele>
        <time>2016-08-27T13:36:41.000Z</time>
      </trkpt>
      <trkpt lat="49.54866" lon="3.30034">
        <ele>190.8</ele>
        <time>2016-08-27T13:36:42.000Z</time>
      </trkpt>
      <trkpt lat="49.54864" lon="3.30029">
        <ele>190.8</ele>
        <time>2016-08-27T13:36:44.000Z</time>
      </trkpt>
      <trkpt lat="49.54863" lon="3.30027">
        <ele>190.8</ele>
        <time>2016-08-27T13:36:45.000Z</time>
      </trkpt>
      <trkpt lat="49.54859" lon="3.30017">
        <ele>190.4</ele>
        <time>2016-08-27T13:36:48.000Z</time>
      </trkpt>
      <trkpt lat="49.54857" lon="3.30014">
        <ele>190.3</ele>
        <time>2016-08-27T13:36:49.000Z</time>
      </trkpt>
      <trkpt lat="49.54851" lon="3.30006">
        <ele>190.4</ele>
        <time>2016-08-27T13:36:53.000Z</time>
      </trkpt>
      <trkpt lat="49.5485" lon="3.30005">
        <ele>190.6</ele>
        <time>2016-08-27T13:36:54.000Z</time>
      </trkpt>
      <trkpt lat="49.54844" lon="3.29995">
        <ele>191.4</ele>
        <time>2016-08-27T13:36:59.000Z</time>
      </trkpt>
      <trkpt lat="49.54842" lon="3.29991">
        <ele>191</ele>
        <time>2016-08-27T13:37:00.000Z</time>
      </trkpt>
      <trkpt lat="49.5484" lon="3.29981">
        <ele>190.7</ele>
        <time>2016-08-27T13:37:04.000Z</time>
      </trkpt>
      <trkpt lat="49.54839" lon="3.29978">
        <ele>190.6</ele>
        <time>2016-08-27T13:37:05.000Z</time>
      </trkpt>
      <trkpt lat="49.54836" lon="3.29969">
        <ele>190.4</ele>
        <time>2016-08-27T13:37:10.000Z</time>
      </trkpt>
      <trkpt lat="49.54834" lon="3.29966">
        <ele>190.5</ele>
        <time>2016-08-27T13:37:11.000Z</time>
      </trkpt>
      <trkpt lat="49.5483" lon="3.29956">
        <ele>191.2</ele>
        <time>2016-08-27T13:37:16.000Z</time>
      </trkpt>
      <trkpt lat="49.54829" lon="3.29955">
        <ele>191.4</ele>
        <time>2016-08-27T13:37:17.000Z</time>
      </trkpt>
      <trkpt lat="49.54827" lon="3.29949">
        <ele>191.4</ele>
        <time>2016-08-27T13:37:20.000Z</time>
      </trkpt>
      <trkpt lat="49.54827" lon="3.29949">
        <ele>191.5</ele>
        <time>2016-08-27T13:37:21.000Z</time>
      </trkpt>
      <trkpt lat="49.54827" lon="3.29948">
        <ele>191.6</ele>
        <time>2016-08-27T13:37:22.000Z</time>
      </trkpt>
      <trkpt lat="49.54824" lon="3.29936">
        <ele>192.2</ele>
        <time>2016-08-27T13:37:30.000Z</time>
      </trkpt>
      <trkpt lat="49.54824" lon="3.29934">
        <ele>192.3</ele>
        <time>2016-08-27T13:37:31.000Z</time>
      </trkpt>
      <trkpt lat="49.54819" lon="3.29923">
        <ele>190.9</ele>
        <time>2016-08-27T13:37:39.000Z</time>
      </trkpt>
      <trkpt lat="49.54817" lon="3.29918">
        <ele>191</ele>
        <time>2016-08-27T13:37:40.000Z</time>
      </trkpt>
      <trkpt lat="49.54814" lon="3.29906">
        <ele>191.5</ele>
        <time>2016-08-27T13:37:46.000Z</time>
      </trkpt>
      <trkpt lat="49.54812" lon="3.29905">
        <ele>191.6</ele>
        <time>2016-08-27T13:37:47.000Z</time>
      </trkpt>
      <trkpt lat="49.54807" lon="3.29894">
        <ele>190.5</ele>
        <time>2016-08-27T13:37:51.000Z</time>
      </trkpt>
      <trkpt lat="49.54805" lon="3.29891">
        <ele>189.9</ele>
        <time>2016-08-27T13:37:52.000Z</time>
      </trkpt>
      <trkpt lat="49.54799" lon="3.29882">
        <ele>189.3</ele>
        <time>2016-08-27T13:37:55.000Z</time>
      </trkpt>
      <trkpt lat="49.54797" lon="3.29879">
        <ele>189.3</ele>
        <time>2016-08-27T13:37:56.000Z</time>
      </trkpt>
      <trkpt lat="49.54793" lon="3.29869">
        <ele>190.9</ele>
        <time>2016-08-27T13:38:01.000Z</time>
      </trkpt>
      <trkpt lat="49.54792" lon="3.29867">
        <ele>191</ele>
        <time>2016-08-27T13:38:02.000Z</time>
      </trkpt>
      <trkpt lat="49.54786" lon="3.29858">
        <ele>191.7</ele>
        <time>2016-08-27T13:38:07.000Z</time>
      </trkpt>
      <trkpt lat="49.54785" lon="3.29856">
        <ele>191.8</ele>
        <time>2016-08-27T13:38:08.000Z</time>
      </trkpt>
      <trkpt lat="49.54785" lon="3.29854">
        <ele>192.1</ele>
        <time>2016-08-27T13:38:09.000Z</time>
      </trkpt>
      <trkpt lat="49.54784" lon="3.29852">
        <ele>192.2</ele>
        <time>2016-08-27T13:38:10.000Z</time>
      </trkpt>
      <trkpt lat="49.5478" lon="3.29842">
        <ele>192.3</ele>
        <time>2016-08-27T13:38:16.000Z</time>
      </trkpt>
      <trkpt lat="49.54779" lon="3.2984">
        <ele>192.6</ele>
        <time>2016-08-27T13:38:17.000Z</time>
      </trkpt>
      <trkpt lat="49.54775" lon="3.29833">
        <ele>192.8</ele>
        <time>2016-08-27T13:38:21.000Z</time>
      </trkpt>
      <trkpt lat="49.54775" lon="3.29831">
        <ele>192.8</ele>
        <time>2016-08-27T13:38:22.000Z</time>
      </trkpt>
      <trkpt lat="49.54775" lon="3.29829">
        <ele>192.8</ele>
        <time>2016-08-27T13:38:23.000Z</time>
      </trkpt>
      <trkpt lat="49.54775" lon="3.29827">
        <ele>192.8</ele>
        <time>2016-08-27T13:38:24.000Z</time>
      </trkpt>
      <trkpt lat="49.54771" lon="3.29815">
        <ele>193.3</ele>
        <time>2016-08-27T13:38:30.000Z</time>
      </trkpt>
      <trkpt lat="49.54771" lon="3.29813">
        <ele>193.3</ele>
        <time>2016-08-27T13:38:31.000Z</time>
      </trkpt>
      <trkpt lat="49.54771" lon="3.298">
        <ele>193</ele>
        <time>2016-08-27T13:38:37.000Z</time>
      </trkpt>
      <trkpt lat="49.5477" lon="3.29798">
        <ele>193</ele>
        <time>2016-08-27T13:38:38.000Z</time>
      </trkpt>
      <trkpt lat="49.54765" lon="3.29787">
        <ele>192.2</ele>
        <time>2016-08-27T13:38:43.000Z</time>
      </trkpt>
      <trkpt lat="49.54765" lon="3.29784">
        <ele>192</ele>
        <time>2016-08-27T13:38:44.000Z</time>
      </trkpt>
      <trkpt lat="49.5476" lon="3.29775">
        <ele>191.5</ele>
        <time>2016-08-27T13:38:49.000Z</time>
      </trkpt>
      <trkpt lat="49.54759" lon="3.29773">
        <ele>191.4</ele>
        <time>2016-08-27T13:38:50.000Z</time>
      </trkpt>
      <trkpt lat="49.54754" lon="3.29766">
        <ele>190.5</ele>
        <time>2016-08-27T13:38:55.000Z</time>
      </trkpt>
      <trkpt lat="49.54754" lon="3.29764">
        <ele>190.4</ele>
        <time>2016-08-27T13:38:56.000Z</time>
      </trkpt>
      <trkpt lat="49.54753" lon="3.29763">
        <ele>190.2</ele>
        <time>2016-08-27T13:38:57.000Z</time>
      </trkpt>
      <trkpt lat="49.54747" lon="3.29754">
        <ele>190</ele>
        <time>2016-08-27T13:39:02.000Z</time>
      </trkpt>
      <trkpt lat="49.54747" lon="3.29753">
        <ele>190.1</ele>
        <time>2016-08-27T13:39:03.000Z</time>
      </trkpt>
      <trkpt lat="49.54742" lon="3.29747">
        <ele>190.8</ele>
        <time>2016-08-27T13:39:07.000Z</time>
      </trkpt>
      <trkpt lat="49.54741" lon="3.29746">
        <ele>191</ele>
        <time>2016-08-27T13:39:08.000Z</time>
      </trkpt>
      <trkpt lat="49.54741" lon="3.29745">
        <ele>190.9</ele>
        <time>2016-08-27T13:39:09.000Z</time>
      </trkpt>
      <trkpt lat="49.54737" lon="3.29733">
        <ele>189.6</ele>
        <time>2016-08-27T13:39:18.000Z</time>
      </trkpt>
      <trkpt lat="49.54737" lon="3.29731">
        <ele>189.5</ele>
        <time>2016-08-27T13:39:19.000Z</time>
      </trkpt>
      <trkpt lat="49.5473" lon="3.29727">
        <ele>188.9</ele>
        <time>2016-08-27T13:39:24.000Z</time>
      </trkpt>
      <trkpt lat="49.5473" lon="3.29728">
        <ele>188.3</ele>
        <time>2016-08-27T13:39:25.000Z</time>
      </trkpt>
      <trkpt lat="49.5473" lon="3.29728">
        <ele>187.9</ele>
        <time>2016-08-27T13:39:26.000Z</time>
      </trkpt>
      <trkpt lat="49.54732" lon="3.29726">
        <ele>187.3</ele>
        <time>2016-08-27T13:39:29.000Z</time>
      </trkpt>
      <trkpt lat="49.54732" lon="3.29725">
        <ele>187.1</ele>
        <time>2016-08-27T13:39:30.000Z</time>
      </trkpt>
      <trkpt lat="49.54731" lon="3.29723">
        <ele>186.7</ele>
        <time>2016-08-27T13:39:35.000Z</time>
      </trkpt>
      <trkpt lat="49.5473" lon="3.29713">
        <ele>185</ele>
        <time>2016-08-27T13:39:36.000Z</time>
      </trkpt>
      <trkpt lat="49.54726" lon="3.29706">
        <ele>184.4</ele>
        <time>2016-08-27T13:39:41.000Z</time>
      </trkpt>
      <trkpt lat="49.54726" lon="3.29705">
        <ele>184.4</ele>
        <time>2016-08-27T13:39:42.000Z</time>
      </trkpt>
      <trkpt lat="49.54727" lon="3.29704">
        <ele>184.3</ele>
        <time>2016-08-27T13:39:47.000Z</time>
      </trkpt>
      <trkpt lat="49.54725" lon="3.29694">
        <ele>183.9</ele>
        <time>2016-08-27T13:39:48.000Z</time>
      </trkpt>
      <trkpt lat="49.54721" lon="3.29683">
        <ele>184</ele>
        <time>2016-08-27T13:39:52.000Z</time>
      </trkpt>
      <trkpt lat="49.54719" lon="3.29682">
        <ele>183.9</ele>
        <time>2016-08-27T13:39:53.000Z</time>
      </trkpt>
      <trkpt lat="49.54714" lon="3.29673">
        <ele>182.5</ele>
        <time>2016-08-27T13:39:56.000Z</time>
      </trkpt>
      <trkpt lat="49.54712" lon="3.2967">
        <ele>182.4</ele>
        <time>2016-08-27T13:39:57.000Z</time>
      </trkpt>
      <trkpt lat="49.5471" lon="3.29658">
        <ele>182.9</ele>
        <time>2016-08-27T13:40:03.000Z</time>
      </trkpt>
      <trkpt lat="49.5471" lon="3.29656">
        <ele>182.8</ele>
        <time>2016-08-27T13:40:04.000Z</time>
      </trkpt>
      <trkpt lat="49.54709" lon="3.29655">
        <ele>182.9</ele>
        <time>2016-08-27T13:40:05.000Z</time>
      </trkpt>
      <trkpt lat="49.54709" lon="3.29654">
        <ele>182.9</ele>
        <time>2016-08-27T13:40:06.000Z</time>
      </trkpt>
      <trkpt lat="49.54708" lon="3.29644">
        <ele>182.6</ele>
        <time>2016-08-27T13:40:11.000Z</time>
      </trkpt>
      <trkpt lat="49.54708" lon="3.29642">
        <ele>182.4</ele>
        <time>2016-08-27T13:40:12.000Z</time>
      </trkpt>
      <trkpt lat="49.54708" lon="3.29641">
        <ele>182.4</ele>
        <time>2016-08-27T13:40:13.000Z</time>
      </trkpt>
      <trkpt lat="49.54705" lon="3.29628">
        <ele>182.9</ele>
        <time>2016-08-27T13:40:20.000Z</time>
      </trkpt>
      <trkpt lat="49.54704" lon="3.29627">
        <ele>183.1</ele>
        <time>2016-08-27T13:40:21.000Z</time>
      </trkpt>
      <trkpt lat="49.54704" lon="3.29625">
        <ele>183.3</ele>
        <time>2016-08-27T13:40:22.000Z</time>
      </trkpt>
      <trkpt lat="49.54703" lon="3.29623">
        <ele>183.6</ele>
        <time>2016-08-27T13:40:23.000Z</time>
      </trkpt>
      <trkpt lat="49.547" lon="3.29622">
        <ele>183.6</ele>
        <time>2016-08-27T13:40:25.000Z</time>
      </trkpt>
      <trkpt lat="49.54698" lon="3.29621">
        <ele>183.4</ele>
        <time>2016-08-27T13:40:26.000Z</time>
      </trkpt>
      <trkpt lat="49.5469" lon="3.29616">
        <ele>182.5</ele>
        <time>2016-08-27T13:40:32.000Z</time>
      </trkpt>
      <trkpt lat="49.54689" lon="3.29616">
        <ele>182.6</ele>
        <time>2016-08-27T13:40:33.000Z</time>
      </trkpt>
      <trkpt lat="49.54681" lon="3.29612">
        <ele>182.5</ele>
        <time>2016-08-27T13:40:37.000Z</time>
      </trkpt>
      <trkpt lat="49.5468" lon="3.29611">
        <ele>182.4</ele>
        <time>2016-08-27T13:40:38.000Z</time>
      </trkpt>
      <trkpt lat="49.54673" lon="3.29603">
        <ele>183.1</ele>
        <time>2016-08-27T13:40:44.000Z</time>
      </trkpt>
      <trkpt lat="49.54672" lon="3.29601">
        <ele>183.3</ele>
        <time>2016-08-27T13:40:45.000Z</time>
      </trkpt>
      <trkpt lat="49.5467" lon="3.296">
        <ele>183.5</ele>
        <time>2016-08-27T13:40:46.000Z</time>
      </trkpt>
      <trkpt lat="49.54669" lon="3.29598">
        <ele>183.7</ele>
        <time>2016-08-27T13:40:47.000Z</time>
      </trkpt>
      <trkpt lat="49.54669" lon="3.29597">
        <ele>183.7</ele>
        <time>2016-08-27T13:40:48.000Z</time>
      </trkpt>
      <trkpt lat="49.54663" lon="3.29586">
        <ele>183.5</ele>
        <time>2016-08-27T13:40:54.000Z</time>
      </trkpt>
      <trkpt lat="49.54662" lon="3.29585">
        <ele>183.5</ele>
        <time>2016-08-27T13:40:55.000Z</time>
      </trkpt>
      <trkpt lat="49.54662" lon="3.29584">
        <ele>183.3</ele>
        <time>2016-08-27T13:40:56.000Z</time>
      </trkpt>
      <trkpt lat="49.54661" lon="3.29582">
        <ele>183.4</ele>
        <time>2016-08-27T13:40:57.000Z</time>
      </trkpt>
      <trkpt lat="49.54655" lon="3.29574">
        <ele>183</ele>
        <time>2016-08-27T13:41:03.000Z</time>
      </trkpt>
      <trkpt lat="49.54653" lon="3.29574">
        <ele>183</ele>
        <time>2016-08-27T13:41:04.000Z</time>
      </trkpt>
      <trkpt lat="49.54649" lon="3.29572">
        <ele>183</ele>
        <time>2016-08-27T13:41:09.000Z</time>
      </trkpt>
      <trkpt lat="49.54648" lon="3.29571">
        <ele>182.9</ele>
        <time>2016-08-27T13:41:10.000Z</time>
      </trkpt>
      <trkpt lat="49.54648" lon="3.2957">
        <ele>182.9</ele>
        <time>2016-08-27T13:41:11.000Z</time>
      </trkpt>
      <trkpt lat="49.54641" lon="3.29562">
        <ele>182.4</ele>
        <time>2016-08-27T13:41:19.000Z</time>
      </trkpt>
      <trkpt lat="49.5464" lon="3.29561">
        <ele>182.5</ele>
        <time>2016-08-27T13:41:20.000Z</time>
      </trkpt>
      <trkpt lat="49.54632" lon="3.29555">
        <ele>181.7</ele>
        <time>2016-08-27T13:41:26.000Z</time>
      </trkpt>
      <trkpt lat="49.5463" lon="3.29553">
        <ele>181.6</ele>
        <time>2016-08-27T13:41:27.000Z</time>
      </trkpt>
      <trkpt lat="49.54624" lon="3.29548">
        <ele>181.3</ele>
        <time>2016-08-27T13:41:30.000Z</time>
      </trkpt>
      <trkpt lat="49.54622" lon="3.29546">
        <ele>181.2</ele>
        <time>2016-08-27T13:41:31.000Z</time>
      </trkpt>
      <trkpt lat="49.54615" lon="3.2954">
        <ele>180.4</ele>
        <time>2016-08-27T13:41:35.000Z</time>
      </trkpt>
      <trkpt lat="49.54613" lon="3.29538">
        <ele>180</ele>
        <time>2016-08-27T13:41:36.000Z</time>
      </trkpt>
      <trkpt lat="49.54606" lon="3.29536">
        <ele>178.1</ele>
        <time>2016-08-27T13:41:39.000Z</time>
      </trkpt>
      <trkpt lat="49.546" lon="3.29534">
        <ele>176.5</ele>
        <time>2016-08-27T13:41:40.000Z</time>
      </trkpt>
      <trkpt lat="49.54593" lon="3.2953">
        <ele>174.1</ele>
        <time>2016-08-27T13:41:42.000Z</time>
      </trkpt>
      <trkpt lat="49.5459" lon="3.29528">
        <ele>173.3</ele>
        <time>2016-08-27T13:41:43.000Z</time>
      </trkpt>
      <trkpt lat="49.54583" lon="3.29521">
        <ele>172</ele>
        <time>2016-08-27T13:41:49.000Z</time>
      </trkpt>
      <trkpt lat="49.54582" lon="3.2952">
        <ele>171.5</ele>
        <time>2016-08-27T13:41:50.000Z</time>
      </trkpt>
      <trkpt lat="49.54575" lon="3.29513">
        <ele>168.6</ele>
        <time>2016-08-27T13:41:56.000Z</time>
      </trkpt>
      <trkpt lat="49.54574" lon="3.29512">
        <ele>168.3</ele>
        <time>2016-08-27T13:41:57.000Z</time>
      </trkpt>
      <trkpt lat="49.54568" lon="3.29502">
        <ele>165</ele>
        <time>2016-08-27T13:42:08.000Z</time>
      </trkpt>
      <trkpt lat="49.54567" lon="3.29502">
        <ele>164.6</ele>
        <time>2016-08-27T13:42:09.000Z</time>
      </trkpt>
      <trkpt lat="49.54558" lon="3.29502">
        <ele>164</ele>
        <time>2016-08-27T13:42:12.000Z</time>
      </trkpt>
      <trkpt lat="49.54556" lon="3.29501">
        <ele>164</ele>
        <time>2016-08-27T13:42:13.000Z</time>
      </trkpt>
      <trkpt lat="49.54548" lon="3.29499">
        <ele>163</ele>
        <time>2016-08-27T13:42:17.000Z</time>
      </trkpt>
      <trkpt lat="49.54546" lon="3.29498">
        <ele>162.7</ele>
        <time>2016-08-27T13:42:18.000Z</time>
      </trkpt>
      <trkpt lat="49.54538" lon="3.29496">
        <ele>161.1</ele>
        <time>2016-08-27T13:42:23.000Z</time>
      </trkpt>
      <trkpt lat="49.54537" lon="3.29495">
        <ele>161</ele>
        <time>2016-08-27T13:42:24.000Z</time>
      </trkpt>
      <trkpt lat="49.54529" lon="3.29493">
        <ele>160.4</ele>
        <time>2016-08-27T13:42:28.000Z</time>
      </trkpt>
      <trkpt lat="49.54527" lon="3.29492">
        <ele>160.4</ele>
        <time>2016-08-27T13:42:29.000Z</time>
      </trkpt>
      <trkpt lat="49.5452" lon="3.29492">
        <ele>159.7</ele>
        <time>2016-08-27T13:42:33.000Z</time>
      </trkpt>
      <trkpt lat="49.54515" lon="3.29491">
        <ele>159.2</ele>
        <time>2016-08-27T13:42:34.000Z</time>
      </trkpt>
      <trkpt lat="49.54506" lon="3.29489">
        <ele>154.5</ele>
        <time>2016-08-27T13:42:38.000Z</time>
      </trkpt>
      <trkpt lat="49.54504" lon="3.29488">
        <ele>154.7</ele>
        <time>2016-08-27T13:42:39.000Z</time>
      </trkpt>
      <trkpt lat="49.54497" lon="3.29486">
        <ele>154.5</ele>
        <time>2016-08-27T13:42:42.000Z</time>
      </trkpt>
      <trkpt lat="49.54495" lon="3.29486">
        <ele>154.4</ele>
        <time>2016-08-27T13:42:43.000Z</time>
      </trkpt>
      <trkpt lat="49.54487" lon="3.29484">
        <ele>153.5</ele>
        <time>2016-08-27T13:42:48.000Z</time>
      </trkpt>
      <trkpt lat="49.54485" lon="3.29483">
        <ele>153.3</ele>
        <time>2016-08-27T13:42:49.000Z</time>
      </trkpt>
      <trkpt lat="49.54476" lon="3.29481">
        <ele>152.4</ele>
        <time>2016-08-27T13:42:56.000Z</time>
      </trkpt>
      <trkpt lat="49.54475" lon="3.29481">
        <ele>152.3</ele>
        <time>2016-08-27T13:42:57.000Z</time>
      </trkpt>
      <trkpt lat="49.54468" lon="3.29482">
        <ele>152.1</ele>
        <time>2016-08-27T13:43:02.000Z</time>
      </trkpt>
      <trkpt lat="49.54465" lon="3.29481">
        <ele>151.5</ele>
        <time>2016-08-27T13:43:03.000Z</time>
      </trkpt>
      <trkpt lat="49.54457" lon="3.29482">
        <ele>150.1</ele>
        <time>2016-08-27T13:43:09.000Z</time>
      </trkpt>
      <trkpt lat="49.54455" lon="3.29482">
        <ele>149.7</ele>
        <time>2016-08-27T13:43:10.000Z</time>
      </trkpt>
      <trkpt lat="49.54447" lon="3.29483">
        <ele>150.3</ele>
        <time>2016-08-27T13:43:16.000Z</time>
      </trkpt>
      <trkpt lat="49.54445" lon="3.29483">
        <ele>150.3</ele>
        <time>2016-08-27T13:43:17.000Z</time>
      </trkpt>
      <trkpt lat="49.54437" lon="3.29483">
        <ele>150.7</ele>
        <time>2016-08-27T13:43:22.000Z</time>
      </trkpt>
      <trkpt lat="49.54436" lon="3.29483">
        <ele>150.6</ele>
        <time>2016-08-27T13:43:23.000Z</time>
      </trkpt>
      <trkpt lat="49.54428" lon="3.29482">
        <ele>151</ele>
        <time>2016-08-27T13:43:28.000Z</time>
      </trkpt>
      <trkpt lat="49.54427" lon="3.29482">
        <ele>151.2</ele>
        <time>2016-08-27T13:43:29.000Z</time>
      </trkpt>
      <trkpt lat="49.54418" lon="3.2948">
        <ele>151.4</ele>
        <time>2016-08-27T13:43:36.000Z</time>
      </trkpt>
      <trkpt lat="49.54416" lon="3.2948">
        <ele>151.1</ele>
        <time>2016-08-27T13:43:37.000Z</time>
      </trkpt>
      <trkpt lat="49.54407" lon="3.29479">
        <ele>149</ele>
        <time>2016-08-27T13:43:45.000Z</time>
      </trkpt>
      <trkpt lat="49.54406" lon="3.29479">
        <ele>148.8</ele>
        <time>2016-08-27T13:43:46.000Z</time>
      </trkpt>
      <trkpt lat="49.54397" lon="3.29475">
        <ele>146.2</ele>
        <time>2016-08-27T13:43:53.000Z</time>
      </trkpt>
      <trkpt lat="49.54396" lon="3.29474">
        <ele>144.7</ele>
        <time>2016-08-27T13:43:54.000Z</time>
      </trkpt>
      <trkpt lat="49.54389" lon="3.2948">
        <ele>134.4</ele>
        <time>2016-08-27T13:44:20.000Z</time>
      </trkpt>
      <trkpt lat="49.54386" lon="3.29479">
        <ele>133.2</ele>
        <time>2016-08-27T13:44:21.000Z</time>
      </trkpt>
      <trkpt lat="49.54379" lon="3.29476">
        <ele>131.9</ele>
        <time>2016-08-27T13:44:25.000Z</time>
      </trkpt>
      <trkpt lat="49.54377" lon="3.29476">
        <ele>131.7</ele>
        <time>2016-08-27T13:44:26.000Z</time>
      </trkpt>
      <trkpt lat="49.54372" lon="3.29474">
        <ele>130.6</ele>
        <time>2016-08-27T13:44:31.000Z</time>
      </trkpt>
      <trkpt lat="49.54371" lon="3.29473">
        <ele>130</ele>
        <time>2016-08-27T13:44:32.000Z</time>
      </trkpt>
      <trkpt lat="49.54372" lon="3.29473">
        <ele>129.5</ele>
        <time>2016-08-27T13:44:36.000Z</time>
      </trkpt>
      <trkpt lat="49.54372" lon="3.29472">
        <ele>129.3</ele>
        <time>2016-08-27T13:44:37.000Z</time>
      </trkpt>
      <trkpt lat="49.54373" lon="3.29485">
        <ele>126.8</ele>
        <time>2016-08-27T13:45:05.000Z</time>
      </trkpt>
      <trkpt lat="49.54374" lon="3.29486">
        <ele>126.8</ele>
        <time>2016-08-27T13:45:06.000Z</time>
      </trkpt>
      <trkpt lat="49.54367" lon="3.29491">
        <ele>125.1</ele>
        <time>2016-08-27T13:45:13.000Z</time>
      </trkpt>
      <trkpt lat="49.54365" lon="3.29492">
        <ele>124.8</ele>
        <time>2016-08-27T13:45:14.000Z</time>
      </trkpt>
      <trkpt lat="49.54356" lon="3.29493">
        <ele>124.7</ele>
        <time>2016-08-27T13:45:19.000Z</time>
      </trkpt>
      <trkpt lat="49.54355" lon="3.29493">
        <ele>125.2</ele>
        <time>2016-08-27T13:45:20.000Z</time>
      </trkpt>
      <trkpt lat="49.54347" lon="3.29498">
        <ele>127.1</ele>
        <time>2016-08-27T13:45:30.000Z</time>
      </trkpt>
      <trkpt lat="49.54347" lon="3.29499">
        <ele>126.9</ele>
        <time>2016-08-27T13:45:31.000Z</time>
      </trkpt>
      <trkpt lat="49.54342" lon="3.29511">
        <ele>126</ele>
        <time>2016-08-27T13:45:40.000Z</time>
      </trkpt>
      <trkpt lat="49.54341" lon="3.29512">
        <ele>126.3</ele>
        <time>2016-08-27T13:45:41.000Z</time>
      </trkpt>
      <trkpt lat="49.54333" lon="3.29514">
        <ele>127.1</ele>
        <time>2016-08-27T13:45:46.000Z</time>
      </trkpt>
      <trkpt lat="49.54331" lon="3.29513">
        <ele>127.1</ele>
        <time>2016-08-27T13:45:47.000Z</time>
      </trkpt>
      <trkpt lat="49.54324" lon="3.29507">
        <ele>127.9</ele>
        <time>2016-08-27T13:45:54.000Z</time>
      </trkpt>
      <trkpt lat="49.54323" lon="3.29506">
        <ele>128.1</ele>
        <time>2016-08-27T13:45:55.000Z</time>
      </trkpt>
      <trkpt lat="49.54317" lon="3.29497">
        <ele>128.8</ele>
        <time>2016-08-27T13:46:02.000Z</time>
      </trkpt>
      <trkpt lat="49.54316" lon="3.29495">
        <ele>129</ele>
        <time>2016-08-27T13:46:03.000Z</time>
      </trkpt>
      <trkpt lat="49.54313" lon="3.29493">
        <ele>129.1</ele>
        <time>2016-08-27T13:46:07.000Z</time>
      </trkpt>
      <trkpt lat="49.54313" lon="3.29492">
        <ele>129.3</ele>
        <time>2016-08-27T13:46:08.000Z</time>
      </trkpt>
      <trkpt lat="49.54313" lon="3.29492">
        <ele>129.6</ele>
        <time>2016-08-27T13:46:09.000Z</time>
      </trkpt>
      <trkpt lat="49.54313" lon="3.29491">
        <ele>129.7</ele>
        <time>2016-08-27T13:46:10.000Z</time>
      </trkpt>
      <trkpt lat="49.54313" lon="3.29491">
        <ele>129.8</ele>
        <time>2016-08-27T13:46:11.000Z</time>
      </trkpt>
    </trkseg>
  </trk>
</gpx>